ftp/pub/palmer/observations_modified/2019/August/AR190823_BASE.txt

Download

Sample DateTime	Unit Id	WS Avg 2min	WD Avg 2min	WGS 10min	WGD 10min	Air Temp	Rel Humidity	Dew Point	Pyranometer	Quantum	Air Pressure	Snow Level	Rainfall	PW Current	Visibility	CBase 1	CBase 2	CBase 3	Vert Vis
2019/08/23  00:00:00  BASE  3.02232  130  3.41628  130  -7.9  100   -7.9  0     0     1012.7   NA       0.0000   BR       2800  0     0    
2019/08/23  00:01:00  BASE  2.80476  132  3.41628  130  -7.9  100   -7.9  0     0     1012.7   NA       0.0000   BR       1100  0     0    
2019/08/23  00:02:00  BASE  2.59896  133  3.41628  130  -7.9  100   -7.9  0     0     1012.7   NA       0.0000   BR       0900  0     0    
2019/08/23  00:03:00  BASE  2.52252  131  3.41628  130  -7.9  100   -7.9  0     0     1012.7   NA       0.0000   BR       1400  0     0    
2019/08/23  00:04:00  BASE  2.42256  130  3.41628  130  -7.9  100   -7.9  0     0     1012.7   NA       0.0000   BR       2300  0     0    
2019/08/23  00:05:00  BASE  2.38728  130  3.41628  130  -7.9  100   -7.9  0     0     1012.7   NA       0.0000   BR       5000  0     0    
2019/08/23  00:06:00  BASE  2.34612  130  3.41628  130  -7.9  100   -7.9  0     0     1012.7   NA       0.0000   BR       3700  0     0    
2019/08/23  00:07:00  BASE  2.03448  129  3.41628  130  -8.0  100   -8.0  0     0     1012.7   NA       0.0000   BR       2000  0     0    
2019/08/23  00:08:00  BASE  1.68168  127  3.35748  131  -8.0  100   -8.0  0     0     1012.7   NA       0.0000   BR       2100  0     0    
2019/08/23  00:09:00  BASE  1.42884  124  3.26928  135  -8.1  100   -8.1  0     0     1012.8   NA       0.0000   BR       1500  0     0    
2019/08/23  00:10:00  BASE  1.29948  119  3.2046   136  -8.1  100   -8.1  0     0     1012.8   NA       0.0000   BR       0900  0     0    
2019/08/23  00:11:00  BASE  1.19364  110  2.84592  129  -8.1  100   -8.1  0     0     1012.8   NA       0.0000   BR       0900  0     0    
2019/08/23  00:12:00  BASE  0.99372  95   2.78124  136  -8.2  100   -8.2  0     0     1012.8   NA       0.0000   BR       1100  0     0    
2019/08/23  00:13:00  BASE  0.55272  75   2.66364  126  -8.2  100   -8.2  0     0     1012.8   NA       0.0000   BR       1500  0     0    
2019/08/23  00:14:00  BASE  0.14112  69   2.63424  132  -8.2  100   -8.2  0     0     1012.8   NA       0.0000   BR       1600  0     0    
2019/08/23  00:15:00  BASE  0.12348  81   2.48136  132  -8.3  100   -8.3  0     0     1012.8   NA       0.0000   BR       1800  0     0    
2019/08/23  00:16:00  BASE  0.15876  89   2.058    128  -8.3  100   -8.3  0     0     1012.8   NA       0.0000   BR       1800  0     0    
2019/08/23  00:17:00  BASE  0.25284  92   1.69344  127  -8.3  100   -8.3  0     0     1012.8   NA       0.0000   BR       1800  0     0    
2019/08/23  00:18:00  BASE  0.79968  97   1.66404  102  -8.3  100   -8.3  0     0     1012.8   NA       0.0000   BR       2400  0     0    
2019/08/23  00:19:00  BASE  1.2936   115  1.66404  102  -8.3  100   -8.3  0     0     1012.8   NA       0.0000   BR       3000  0     0    
2019/08/23  00:20:00  BASE  1.01136  122  1.66404  102  -8.2  100   -8.2  0     0     1012.8   NA       0.0000   BR       1300  0     0    
2019/08/23  00:21:00  BASE  0.57624  112  1.66404  102  -8.2  100   -8.2  0     0     1012.8   NA       0.0000   BR       1000  0     0    
2019/08/23  00:22:00  BASE  0.32928  113  1.66404  102  -8.2  100   -8.2  0     0     1012.8   NA       0.0000   BR       1500  0     0    
2019/08/23  00:23:00  BASE  0.13524  117  1.66404  102  -8.2  100   -8.2  0     0     1012.8   NA       0.0000   BR       1800  0     0    
2019/08/23  00:24:00  BASE  0.05292  118  1.66404  102  -8.2  100   -8.2  0     0     1012.8   NA       0.0000   BR       2800  0     0    
2019/08/23  00:25:00  BASE  0        113  1.66404  102  -8.2  100   -8.2  0     0     1012.8   NA       0.0000   BR       3200  0     0    
2019/08/23  00:26:00  BASE  0        76   1.66404  102  -8.2  100   -8.2  0     0     1012.8   NA       0.0000   BR       2600  0     0    
2019/08/23  00:27:00  BASE  0.02352  40   1.66404  102  -8.2  100   -8.2  0     0     1012.8   NA       0.0000   BR       3600  0     0    
2019/08/23  00:28:00  BASE  0.09996  37   1.51116  124  -8.3  100   -8.3  0     0     1012.7   NA       0.0000   BR       7000  0     0    
2019/08/23  00:29:00  BASE  0.46452  46   1.24068  148  -8.5  100   -8.5  0     0     1012.7   NA       0.0000   BR       9999  0     0    
2019/08/23  00:30:00  BASE  0.51156  66   0.9702   115  -8.6  100   -8.6  0     0     1012.7   NA       0.0000   BR       9999  0     0    
2019/08/23  00:31:00  BASE  0.12936  73   0.84672  59   -8.7  100   -8.7  0     0     1012.7   NA       0.0000   BR       7000  0     0    
2019/08/23  00:32:00  BASE  0.02352  56   0.84672  59   -8.7  100   -8.7  0     0     1012.7   NA       0.0000   BR       6000  0     0    
2019/08/23  00:33:00  BASE  0.2352   40   0.84672  59   -8.7  100   -8.7  0     0     1012.7   NA       0.0000   BR       9000  0     0    
2019/08/23  00:34:00  BASE  0.2352   35   0.84672  59   -8.7  100   -8.7  0     0     1012.7   NA       0.0000   BR       9000  0     0    
2019/08/23  00:35:00  BASE  0.0294   37   0.84672  59   -8.6  100   -8.6  0     0     1012.7   NA       0.0000   BR       9999  0     0    
2019/08/23  00:36:00  BASE  0        37   0.84672  59   -8.6  100   -8.6  0     0     1012.7   NA       0.0000   BR       9999  0     0    
2019/08/23  00:37:00  BASE  0        33   0.84672  59   -8.6  100   -8.6  0     0     1012.7   NA       0.0000   BR       9999  160   0    
2019/08/23  00:38:00  BASE  0        29   0.84672  59   -8.5  100   -8.5  0     0     1012.7   NA       0.0000   9999     200   0     0    
2019/08/23  00:39:00  BASE  0.0294   28   0.81732  77   -8.5  100   -8.5  0     0     1012.7   NA       0.0000   9999     200   0     0    
2019/08/23  00:40:00  BASE  0.0294   29   0.75852  33   -8.6  100   -8.6  0     0     1012.7   NA       0.0000   9999     230   0     0    
2019/08/23  00:41:00  BASE  0.0882   30   0.78792  37   -8.6  100   -8.6  0     0     1012.7   NA       0.0000   9999     230   0     0    
2019/08/23  00:42:00  BASE  0.50568  31   0.90552  28   -8.7  100   -8.7  0     0     1012.7   NA       0.0000   9999     260   0     0    
2019/08/23  00:43:00  BASE  0.83496  28   0.90552  26   -8.8  100   -8.8  0     0     1012.7   NA       0.0000   9999     260   0     0    
2019/08/23  00:44:00  BASE  0.87612  25   0.9702   24   -8.8  100   -8.8  0     0     1012.7   NA       0.0000   9999     260   0     0    
2019/08/23  00:45:00  BASE  0.85848  24   0.9702   24   -8.7  100   -8.7  0     0     1012.7   NA       0.0000   9999     260   0     0    
2019/08/23  00:46:00  BASE  0.85848  24   0.9702   25   -8.7  100   -8.7  0     0     1012.7   NA       0.0000   9999     230   0     0    
2019/08/23  00:47:00  BASE  0.84672  23   0.9702   25   -8.8  100   -8.8  0     0     1012.7   NA       0.0000   9999     230   0     0    
2019/08/23  00:48:00  BASE  0.77616  17   0.9702   25   -8.8  100   -8.8  0     0     1012.7   NA       0.0000   9999     230   0     0    
2019/08/23  00:49:01  BASE  0.79968  14   0.9702   25   -8.9  100   -8.9  0     0     1012.7   NA       0.0000   9999     230   0     0    
2019/08/23  00:50:01  BASE  0.86436  14   0.9702   25   -8.9  100   -8.9  0     0     1012.7   NA       0.0000   9999     230   0     0    
2019/08/23  00:51:01  BASE  0.87612  14   0.9702   13   -9.0  100   -9.0  0     0     1012.7   NA       0.0000   9999     300   0     0    
2019/08/23  00:52:01  BASE  0.8526   16   1.029    24   -9.0  100   -9.0  0     0     1012.7   NA       0.0000   9999     360   0     0    
2019/08/23  00:53:01  BASE  0.86436  22   1.029    24   -9.0  100   -9.0  0     0     1012.7   NA       0.0000   9999     260   0     0    
2019/08/23  00:54:01  BASE  0.87024  27   1.029    24   -9.0  100   -9.0  0     0     1012.7   NA       0.0000   9999     260   0     0    
2019/08/23  00:55:01  BASE  0.8526   29   1.029    24   -9.0  100   -9.0  0     0     1012.7   NA       0.0000   9999     300   0     0    
2019/08/23  00:56:01  BASE  0.80556  30   1.029    24   -9.0  100   -9.0  0     0     1012.8   NA       0.0000   9999     0     0     0    
2019/08/23  00:57:01  BASE  0.65856  34   1.029    24   -9.1  100   -9.1  0     0     1012.8   NA       0.0000   9999     0     0     0    
2019/08/23  00:58:01  BASE  0.29988  36   1.029    24   -9.1  100   -9.1  0     0     1012.7   NA       0.0000   9999     0     0     0    
2019/08/23  00:59:01  BASE  0.2646   32   1.029    24   -9.1  100   -9.1  0     0     1012.7   NA       0.0000   9999     0     0     0    
2019/08/23  01:00:01  BASE  0.62328  32   1.029    43   -9.1  100   -9.1  0     0     1012.7   NA       0.0000   9999     0     0     0    
2019/08/23  01:01:01  BASE  0.75264  40   1.029    43   -9.1  100   -9.1  0     0     1012.7   NA       0.0000   9999     0     0     0    
2019/08/23  01:02:01  BASE  0.48216  51   1.029    43   -9.2  100   -9.2  0     0     1012.7   NA       0.0000   9999     0     0     0    
2019/08/23  01:03:01  BASE  0.18816  61   1.029    43   -9.2  100   -9.2  0     0     1012.7   NA       0.0000   9999     0     0     0    
2019/08/23  01:04:01  BASE  0.51156  62   1.029    43   -9.2  100   -9.2  0     0     1012.6   NA       0.0000   9999     0     0     0    
2019/08/23  01:05:01  BASE  0.89376  52   1.029    43   -9.2  100   -9.2  0     0     1012.6   NA       0.0000   9999     0     0     0    
2019/08/23  01:06:01  BASE  0.84672  44   1.029    43   -9.2  100   -9.2  0     0     1012.6   NA       0.0000   9999     0     0     0    
2019/08/23  01:07:01  BASE  0.75852  45   1.029    43   -9.2  100   -9.2  0     0     1012.6   NA       0.0000   9999     0     0     0    
2019/08/23  01:08:01  BASE  0.82908  44   1.0584   37   -9.2  100   -9.2  0     0     1012.6   NA       0.0000   9999     0     0     0    
2019/08/23  01:09:01  BASE  0.9996   38   1.1466   33   -9.1  100   -9.1  0     0     1012.6   NA       0.0000   9999     0     0     0    
2019/08/23  01:10:01  BASE  1.03488  34   1.1466   33   -9.1  100   -9.1  0     0     1012.6   NA       0.0000   9999     0     0     0    
2019/08/23  01:11:01  BASE  0.95844  34   1.1466   33   -9.2  100   -9.2  0     0     1012.6   NA       0.0000   9999     0     0     0    
2019/08/23  01:12:01  BASE  0.91728  34   1.1466   33   -9.2  100   -9.2  0     0     1012.6   NA       0.0000   9999     0     0     0    
2019/08/23  01:13:01  BASE  0.89376  34   1.1466   33   -9.2  100   -9.2  0     0     1012.6   NA       0.0000   9999     0     0     0    
2019/08/23  01:14:01  BASE  0.74676  35   1.1466   33   -9.2  100   -9.2  0     0     1012.5   NA       0.0000   9999     0     0     0    
2019/08/23  01:15:01  BASE  0.35868  37   1.1466   33   -9.1  100   -9.1  0     0     1012.5   NA       0.0000   9999     0     0     0    
2019/08/23  01:16:01  BASE  0.05292  47   1.1466   33   -9.1  100   -9.1  0     0     1012.5   NA       0.0000   9999     0     0     0    
2019/08/23  01:17:01  BASE  0        63   1.1466   33   -9.0  100   -9.0  0     0     1012.5   NA       0.0000   9999     0     0     0    
2019/08/23  01:18:01  BASE  0        83   1.1466   33   -9.0  100   -9.0  0     0     1012.5   NA       0.0000   9999     0     0     0    
2019/08/23  01:19:01  BASE  0        101  1.0878   33   -8.9  100   -8.9  0     0     1012.5   NA       0.0000   9999     0     0     0    
2019/08/23  01:20:01  BASE  0        119  0.9702   34   -8.9  100   -8.9  0     0     1012.5   NA       0.0000   9999     0     0     0    
2019/08/23  01:21:01  BASE  0        140  0.9702   34   -8.9  100   -8.9  0     0     1012.5   NA       0.0000   9999     0     0     0    
2019/08/23  01:22:01  BASE  0.05292  149  0.93492  34   -8.8  100   -8.8  0     0     1012.5   NA       0.0000   9999     0     0     0    
2019/08/23  01:23:01  BASE  0.05292  153  0.75852  36   -8.7  100   -8.7  0     0     1012.6   NA       0.0000   9999     0     0     0    
2019/08/23  01:24:01  BASE  0        153  0.63504  153  -8.6  100   -8.6  0     0     1012.6   NA       0.0000   9999     0     0     0    
2019/08/23  01:25:01  BASE  0        153  0.63504  153  -8.5  100   -8.5  0     0     1012.6   NA       0.0000   9999     0     0     0    
2019/08/23  01:26:01  BASE  0        158  0.63504  153  -8.5  100   -8.5  0     0     1012.6   NA       0.0000   9999     0     0     0    
2019/08/23  01:27:01  BASE  0        162  0.63504  153  -8.5  100   -8.5  0     0     1012.6   NA       0.0000   9999     0     0     0    
2019/08/23  01:28:01  BASE  0        175  0.63504  153  -8.5  100   -8.5  0     0     1012.6   NA       0.0000   9999     0     0     0    
2019/08/23  01:29:01  BASE  0        201  0.63504  153  -8.6  100   -8.6  0     0     1012.6   NA       0.0000   9999     0     0     0    
2019/08/23  01:30:01  BASE  0        216  0.63504  153  -8.6  100   -8.6  0     0     1012.6   NA       0.0000   9999     0     0     0    
2019/08/23  01:31:01  BASE  0        231  0.63504  153  -8.7  100   -8.7  0     0     1012.6   NA       0.0000   9999     0     0     0    
2019/08/23  01:32:01  BASE  0        260  0        M    -8.7  100   -8.7  0     0     1012.6   NA       0.0000   9999     0     0     0    
2019/08/23  01:33:01  BASE  0        281  0        M    -8.7  100   -8.7  0     0     1012.6   NA       0.0000   9999     0     0     0    
2019/08/23  01:34:01  BASE  0        302  0        M    -8.8  100   -8.8  0     0     1012.6   NA       0.0000   9999     0     0     0    
2019/08/23  01:35:01  BASE  0        323  0        M    -8.8  100   -8.8  0     0     1012.5   NA       0.0000   9999     0     0     0    
2019/08/23  01:36:01  BASE  0.22932  338  0.72324  345  -8.9  100   -8.9  0     0     1012.6   NA       0.0000   9999     0     0     0    
2019/08/23  01:37:01  BASE  0.57036  345  0.75852  345  -9.0  100   -9.0  0     0     1012.6   NA       0.0000   9999     0     0     0    
2019/08/23  01:38:01  BASE  0.48216  351  0.75852  345  -9.0  100   -9.0  0     0     1012.6   NA       0.0000   9999     0     0     0    
2019/08/23  01:39:01  BASE  0.13524  3    0.75852  345  -9.1  100   -9.1  0     0     1012.6   NA       0.0000   9999     0     0     0    
2019/08/23  01:40:01  BASE  0        14   0.75852  345  -9.2  100   -9.2  0     0     1012.6   NA       0.0000   9999     0     0     0    
2019/08/23  01:41:01  BASE  0        20   0.75852  345  -9.2  100   -9.2  0     0     1012.5   NA       0.0000   9999     0     0     0    
2019/08/23  01:42:01  BASE  0.19404  26   0.75852  345  -9.3  100   -9.3  0     0     1012.6   NA       0.0000   9999     0     0     0    
2019/08/23  01:43:01  BASE  0.57036  33   0.78792  35   -9.3  100   -9.3  0     0     1012.6   NA       0.0000   9999     0     0     0    
2019/08/23  01:44:01  BASE  0.72912  35   0.78792  35   -9.3  100   -9.3  0     0     1012.6   NA       0.0000   9999     0     0     0    
2019/08/23  01:45:01  BASE  0.71148  36   0.81732  45   -9.3  100   -9.3  0     0     1012.6   NA       0.0000   9999     0     0     0    
2019/08/23  01:46:01  BASE  0.441    41   0.81732  45   -9.3  100   -9.3  0     0     1012.6   NA       0.0000   9999     0     0     0    
2019/08/23  01:47:01  BASE  0.0882   43   0.81732  45   -9.3  100   -9.3  0     0     1012.5   NA       0.0000   9999     0     0     0    
2019/08/23  01:48:01  BASE  0        43   0.81732  45   -9.2  100   -9.2  0     0     1012.6   NA       0.0000   9999     0     0     0    
2019/08/23  01:49:01  BASE  0        51   0.81732  45   -9.2  100   -9.2  0     0     1012.6   NA       0.0000   9999     0     0     0    
2019/08/23  01:50:01  BASE  0        83   0.81732  45   -9.2  100   -9.2  0     0     1012.6   NA       0.0000   9999     0     0     0    
2019/08/23  01:51:01  BASE  0        106  0.81732  45   -9.1  100   -9.1  0     0     1012.5   NA       0.0000   9999     0     0     0    
2019/08/23  01:52:01  BASE  0        113  0.81732  45   -9.0  100   -9.0  0     0     1012.5   NA       0.0000   9999     0     0     0    
2019/08/23  01:53:01  BASE  0        122  0.81732  45   -9.0  100   -9.0  0     0     1012.5   NA       0.0000   9999     0     0     0    
2019/08/23  01:54:01  BASE  0        126  0.81732  45   -9.1  100   -9.1  0     0     1012.5   NA       0.0000   9999     0     0     0    
2019/08/23  01:55:01  BASE  0        127  0.75852  45   -9.1  100   -9.1  0     0     1012.5   NA       0.0000   9999     0     0     0    
2019/08/23  01:56:01  BASE  0        96   0        M    -9.1  100   -9.1  0     0     1012.4   NA       0.0000   9999     0     0     0    
2019/08/23  01:57:01  BASE  0        56   0        M    -9.2  100   -9.2  0     0     1012.3   NA       0.0000   9999     0     0     0    
2019/08/23  01:58:01  BASE  0        50   0        M    -9.2  100   -9.2  0     0     1012.3   NA       0.0000   9999     0     0     0    
2019/08/23  01:59:01  BASE  0        47   0        M    -9.2  100   -9.2  0     0     1012.3   NA       0.0000   9999     0     0     0    
2019/08/23  02:00:01  BASE  0        39   0        M    -9.2  100   -9.2  0     0     1012.3   NA       0.0000   9999     0     0     0    
2019/08/23  02:01:01  BASE  0        35   0        M    -9.3  100   -9.3  0     0     1012.3   NA       0.0000   9999     0     0     0    
2019/08/23  02:02:01  BASE  0        43   0        M    -9.3  100   -9.3  0     0     1012.3   NA       0.0000   9999     0     0     0    
2019/08/23  02:03:01  BASE  0        53   0        M    -9.3  100   -9.3  0     0     1012.3   NA       0.0000   9999     0     0     0    
2019/08/23  02:04:01  BASE  0        59   0        M    -9.3  100   -9.3  0     0     1012.3   NA       0.0000   9999     0     0     0    
2019/08/23  02:05:01  BASE  0        85   0        M    -9.3  100   -9.3  0     0     1012.3   NA       0.0000   9999     0     0     0    
2019/08/23  02:06:01  BASE  0        114  0        M    -9.3  100   -9.3  0     0     1012.4   NA       0.0000   9999     0     0     0    
2019/08/23  02:07:01  BASE  0        123  0        M    -9.3  100   -9.3  0     0     1012.4   NA       0.0000   9999     0     0     0    
2019/08/23  02:08:01  BASE  0        126  0        M    -9.2  100   -9.2  0     0     1012.5   NA       0.0000   9999     0     0     0    
2019/08/23  02:09:01  BASE  0        126  0        M    -9.2  100   -9.2  0     0     1012.4   NA       0.0000   9999     0     0     0    
2019/08/23  02:10:01  BASE  0        119  0        M    -9.1  100   -9.1  0     0     1012.4   NA       0.0000   9999     0     0     0    
2019/08/23  02:11:01  BASE  0        98   0        M    -9.0  100   -9.0  0     0     1012.4   NA       0.0000   7000     0     0     0    
2019/08/23  02:12:01  BASE  0        64   0        M    -9.0  100   -9.0  0     0     1012.5   NA       0.0000   5000     0     0     0    
2019/08/23  02:13:01  BASE  0        40   0        M    -9.0  100   -9.0  0     0     1012.5   NA       0.0000   9999     0     0     0    
2019/08/23  02:14:01  BASE  0        31   0        M    -9.2  100   -9.2  0     0     1012.5   NA       0.0000   9999     0     0     0    
2019/08/23  02:15:01  BASE  0        27   0        M    -9.3  100   -9.3  0     0     1012.5   NA       0.0000   9999     0     0     0    
2019/08/23  02:16:01  BASE  0        25   0        M    -9.5  100   -9.5  0     0     1012.5   NA       0.0000   9999     0     0     0    
2019/08/23  02:17:01  BASE  0        24   0        M    -9.7  100   -9.7  0     0     1012.5   NA       0.0000   9999     0     0     0    
2019/08/23  02:18:01  BASE  0        24   0        M    -9.6  100   -9.6  0     0     1012.5   NA       0.0000   9999     0     0     0    
2019/08/23  02:19:01  BASE  0        24   0        M    -9.5  100   -9.5  0     0     1012.5   NA       0.0000   9999     0     0     0    
2019/08/23  02:20:01  BASE  0        25   0        M    -9.4  100   -9.4  0     0     1012.5   NA       0.0000   9999     0     0     0    
2019/08/23  02:21:01  BASE  0        39   0        M    -9.2  100   -9.2  0     0     1012.5   NA       0.0000   9999     0     0     0    
2019/08/23  02:22:01  BASE  0        78   0        M    -9.0  100   -9.0  0     0     1012.4   NA       0.0000   9999     0     0     0    
2019/08/23  02:23:01  BASE  0        116  0        M    -8.9  100   -8.9  0     0     1012.4   NA       0.0000   9999     0     0     0    
2019/08/23  02:24:01  BASE  0        131  0        M    -8.8  100   -8.8  0     0     1012.3   NA       0.0000   9999     0     0     0    
2019/08/23  02:25:01  BASE  0        131  0        M    -8.7  100   -8.7  0     0     1012.3   NA       0.0000   7000     0     0     0    
2019/08/23  02:26:01  BASE  0        130  0        M    -8.7  100   -8.7  0     0     1012.3   NA       0.0000   5000     0     0     0    
2019/08/23  02:27:01  BASE  0        130  0        M    -8.7  100   -8.7  0     0     1012.3   NA       0.0000   7000     0     0     0    
2019/08/23  02:28:01  BASE  0        131  0        M    -8.7  100   -8.7  0     0     1012.3   NA       0.0000   BR       4900  0     0    
2019/08/23  02:29:01  BASE  0        131  0        M    -8.8  100   -8.8  0     0     1012.3   NA       0.0000   BR       5000  0     0    
2019/08/23  02:30:01  BASE  0        131  0        M    -8.9  100   -8.9  0     0     1012.3   NA       0.0000   BR       8000  0     0    
2019/08/23  02:31:01  BASE  0        131  0        M    -8.9  100   -8.9  0     0     1012.4   NA       0.0000   BR       9999  0     0    
2019/08/23  02:32:01  BASE  0        130  0        M    -8.9  100   -8.9  0     0     1012.4   NA       0.0000   BR       9999  0     0    
2019/08/23  02:33:01  BASE  0        130  0        M    -8.8  100   -8.8  0     0     1012.4   NA       0.0000   BR       9999  0     0    
2019/08/23  02:34:01  BASE  0        131  0        M    -8.8  100   -8.8  0     0     1012.3   NA       0.0000   BR       9999  0     0    
2019/08/23  02:35:01  BASE  0        131  0        M    -8.7  100   -8.7  0     0     1012.3   NA       0.0000   BR       9999  0     0    
2019/08/23  02:36:01  BASE  0        131  0        M    -8.7  100   -8.7  0     0     1012.3   NA       0.0000   BR       9999  0     0    
2019/08/23  02:37:01  BASE  0        132  0        M    -8.7  100   -8.7  0     0     1012.3   NA       0.0000   BR       9999  0     0    
2019/08/23  02:38:01  BASE  0.07644  134  0.63504  141  -8.7  100   -8.7  0     0     1012.2   NA       0.0000   9999     0     0     0    
2019/08/23  02:39:01  BASE  0.39396  139  0.69384  141  -8.7  100   -8.7  0     0     1012.2   NA       0.0000   9999     0     0     0    
2019/08/23  02:40:01  BASE  0.68208  143  0.75852  146  -8.7  100   -8.7  0     0     1012.2   NA       0.0000   9999     0     0     0    
2019/08/23  02:41:01  BASE  0.62916  145  0.75852  146  -8.7  100   -8.7  0     0     1012.2   NA       0.0000   9999     0     0     0    
2019/08/23  02:42:01  BASE  0.55272  146  0.75852  146  -8.7  100   -8.7  0     0     1012.2   NA       0.0000   9999     0     0     0    
2019/08/23  02:43:01  BASE  0.55272  146  0.75852  146  -8.8  100   -8.8  0     0     1012.3   NA       0.0000   9999     0     0     0    
2019/08/23  02:44:01  BASE  0.34104  148  0.75852  146  -8.8  100   -8.8  0     0     1012.3   NA       0.0000   9999     0     0     0    
2019/08/23  02:45:01  BASE  0.07644  151  0.75852  146  -8.8  100   -8.8  0     0     1012.3   NA       0.0000   9999     0     0     0    
2019/08/23  02:46:01  BASE  0.02352  153  0.75852  146  -8.8  100   -8.8  0     0     1012.3   NA       0.0000   9999     0     0     0    
2019/08/23  02:47:01  BASE  0.02352  157  0.75852  146  -8.8  100   -8.8  0     0     1012.3   NA       0.0000   9999     0     0     0    
2019/08/23  02:48:01  BASE  0        162  0.75852  146  -8.8  100   -8.8  0     0     1012.3   NA       0.0000   9999     0     0     0    
2019/08/23  02:49:01  BASE  0.07644  167  0.75852  146  -8.8  100   -8.8  0     0     1012.3   NA       0.0000   9999     0     0     0    
2019/08/23  02:50:01  BASE  0.46452  169  0.84672  168  -8.7  100   -8.7  0     0     1012.3   NA       0.0000   9999     0     0     0    
2019/08/23  02:51:01  BASE  0.79968  166  0.84672  166  -8.7  100   -8.7  0     0     1012.3   NA       0.0000   9999     0     0     0    
2019/08/23  02:52:01  BASE  0.83496  164  0.84672  163  -8.8  100   -8.8  0     0     1012.3   NA       0.0000   9999     0     0     0    
2019/08/23  02:53:01  BASE  0.8526   163  0.87612  163  -8.8  100   -8.8  0     0     1012.3   NA       0.0000   9999     0     0     0    
2019/08/23  02:54:01  BASE  0.84672  164  0.87612  166  -8.9  100   -8.9  0     0     1012.3   NA       0.0000   9999     0     0     0    
2019/08/23  02:55:01  BASE  0.85848  167  0.93492  170  -8.9  100   -8.9  0     0     1012.3   NA       0.0000   9999     0     0     0    
2019/08/23  02:56:01  BASE  0.97608  169  1.1466   166  -8.9  100   -8.9  0     0     1012.3   NA       0.0000   9999     0     0     0    
2019/08/23  02:57:01  BASE  1.14072  166  1.29948  164  -8.9  100   -8.9  0     0     1012.3   NA       0.0000   9999     0     0     0    
2019/08/23  02:58:01  BASE  1.28772  164  1.54056  163  -8.9  100   -8.9  0     0     1012.3   NA       0.0000   9999     0     0     0    
2019/08/23  02:59:01  BASE  1.39356  164  1.54056  163  -9.0  100   -9.0  0     0     1012.3   NA       0.0000   8000     0     0     0    
2019/08/23  03:00:01  BASE  1.4406   164  1.54056  163  -9.1  100   -9.1  0     0     1012.3   NA       0.0000   4600     0     0     0    
2019/08/23  03:01:01  BASE  1.47     163  1.57584  163  -9.2  100   -9.2  0     0     1012.3   NA       0.0000   BR       3400  0     0    
2019/08/23  03:02:01  BASE  1.44648  163  1.57584  163  -9.2  100   -9.2  0     0     1012.3   NA       0.0000   BR       2800  0     0    
2019/08/23  03:03:01  BASE  1.4994   163  1.63464  161  -9.2  100   -9.2  0     0     1012.3   NA       0.0000   BR       2600  0     0    
2019/08/23  03:04:01  BASE  1.71108  160  2.058    158  -9.2  100   -9.2  0     0     1012.3   NA       0.0000   BR       2700  920   0    
2019/08/23  03:05:01  BASE  1.90512  156  2.0874   157  -9.3  100   -9.3  0     0     1012.3   NA       0.0000   BR       3400  850   0    
2019/08/23  03:06:01  BASE  1.85808  147  2.0874   157  -9.4  100   -9.4  0     0     1012.3   NA       0.0000   BR       5000  0     0    
2019/08/23  03:07:01  BASE  1.62876  136  2.0874   157  -9.5  100   -9.5  0     0     1012.3   NA       0.0000   BR       9000  0     0    
2019/08/23  03:08:01  BASE  1.39356  132  2.0874   157  -9.5  100   -9.5  0     0     1012.3   NA       0.0000   BR       9999  0     0    
2019/08/23  03:09:01  BASE  1.2642   137  2.0874   157  -9.4  100   -9.4  0     0     1012.3   NA       0.0000   BR       9999  0     0    
2019/08/23  03:10:01  BASE  1.3818   147  2.0874   157  -9.3  100   -9.3  0     0     1012.3   NA       0.0000   BR       9999  0     0    
2019/08/23  03:11:01  BASE  1.3818   150  2.0874   157  -9.3  100   -9.3  0     0     1012.3   NA       0.0000   BR       9999  0     0    
2019/08/23  03:12:01  BASE  1.19364  144  2.0874   157  -9.2  100   -9.2  0     0     1012.3   NA       0.0000   BR       9999  0     0    
2019/08/23  03:13:01  BASE  1.31124  143  2.0874   157  -9.2  100   -9.2  0     0     1012.3   NA       0.0000   BR       9999  790   0    
2019/08/23  03:14:01  BASE  1.78164  149  2.32848  150  -9.3  100   -9.3  0     0     1012.3   NA       0.0000   BR       9999  720   0    
2019/08/23  03:15:01  BASE  2.06388  151  2.32848  150  -9.3  100   -9.3  0     0     1012.3   NA       0.0000   9999     720   0     0    
2019/08/23  03:16:01  BASE  1.95804  150  2.32848  150  -9.4  100   -9.4  0     0     1012.3   NA       0.0000   9000     720   0     0    
2019/08/23  03:17:01  BASE  1.86984  146  2.32848  150  -9.5  100   -9.5  0     0     1012.3   NA       0.0000   9999     720   0     0    
2019/08/23  03:18:01  BASE  2.13444  144  2.56956  147  -9.5  100   -9.5  0     0     1012.3   NA       0.0000   9999     720   0     0    
2019/08/23  03:19:01  BASE  2.34612  142  2.66364  143  -9.5  100   -9.5  0     0     1012.3   NA       0.0000   9999     750   0     0    
2019/08/23  03:20:01  BASE  2.40492  140  2.72244  143  -9.4  100   -9.4  0     0     1012.3   NA       0.0000   9999     720   0     0    
2019/08/23  03:21:01  BASE  2.39904  140  2.72244  143  -9.4  100   -9.4  0     0     1012.3   NA       0.0000   9999     690   0     0    
2019/08/23  03:22:01  BASE  2.19324  138  2.72244  143  -9.4  100   -9.4  0     0     1012.3   NA       0.0000   9999     720   0     0    
2019/08/23  03:23:01  BASE  1.92864  138  2.72244  143  -9.4  100   -9.4  0     0     1012.3   NA       0.0000   9999     690   0     0    
2019/08/23  03:24:01  BASE  1.82868  140  2.72244  143  -9.4  100   -9.4  0     0     1012.3   NA       0.0000   9999     660   0     0    
2019/08/23  03:25:01  BASE  1.64052  136  2.72244  143  -9.3  100   -9.3  0     0     1012.3   NA       0.0000   9999     690   0     0    
2019/08/23  03:26:01  BASE  1.28772  128  2.72244  143  -9.3  100   -9.3  0     0     1012.3   NA       0.0000   9999     560   0     0    
2019/08/23  03:27:01  BASE  1.25244  127  2.72244  143  -9.2  100   -9.2  0     0     1012.3   NA       0.0000   9999     520   0     0    
2019/08/23  03:28:01  BASE  1.33476  127  2.72244  143  -9.2  100   -9.2  0     0     1012.3   NA       0.0000   9999     620   0     0    
2019/08/23  03:29:01  BASE  1.4406   131  2.72244  143  -9.1  100   -9.1  0     0     1012.3   NA       0.0000   9999     620   0     0    
2019/08/23  03:30:01  BASE  1.65816  139  2.48136  147  -9.1  100   -9.1  0     0     1012.3   NA       0.0000   9999     560   0     0    
2019/08/23  03:31:01  BASE  1.78752  142  2.32848  145  -9.1  100   -9.1  0     0     1012.3   NA       0.0000   9999     490   0     0    
2019/08/23  03:32:01  BASE  1.68756  139  2.0286   147  -9.1  100   -9.1  0     0     1012.3   NA       0.0000   9999     520   0     0    
2019/08/23  03:33:01  BASE  1.45824  137  2.0286   147  -9.1  100   -9.1  0     0     1012.3   NA       0.0000   9999     590   0     0    
2019/08/23  03:34:01  BASE  1.35828  134  1.96392  144  -9.0  100   -9.0  0     0     1012.3   NA       0.0000   9999     430   0     0    
2019/08/23  03:35:01  BASE  1.3818   133  1.96392  144  -9.0  100   -9.0  0     0     1012.2   NA       0.0000   9999     520   0     0    
2019/08/23  03:36:01  BASE  1.35828  134  1.96392  144  -8.9  100   -8.9  0     0     1012.2   NA       0.0000   9999     560   0     0    
2019/08/23  03:37:01  BASE  1.31124  140  1.96392  144  -8.8  100   -8.8  0     0     1012.2   NA       0.0000   9999     590   0     0    
2019/08/23  03:38:01  BASE  1.19952  144  1.96392  144  -8.8  100   -8.8  0     0     1012.2   NA       0.0000   9999     620   0     0    
2019/08/23  03:39:01  BASE  1.09956  144  1.96392  144  -8.6  100   -8.6  0     0     1012.2   NA       0.0000   9999     590   0     0    
2019/08/23  03:40:01  BASE  0.93492  142  1.96392  144  -8.6  100   -8.6  0     0     1012.2   NA       0.0000   9999     590   0     0    
2019/08/23  03:41:01  BASE  0.7938   148  1.75224  139  -8.6  100   -8.6  0     0     1012.2   NA       0.0000   9999     490   0     0    
2019/08/23  03:42:01  BASE  0.7938   156  1.75224  139  -8.7  100   -8.7  0     0     1012.2   NA       0.0000   9999     430   0     0    
2019/08/23  03:43:01  BASE  1.02312  152  1.75224  139  -8.7  100   -8.7  0     0     1012.2   NA       0.0000   9999     520   0     0    
2019/08/23  03:44:01  BASE  1.31712  148  1.54056  139  -8.8  100   -8.8  0     0     1012.2   NA       0.0000   9999     590   0     0    
2019/08/23  03:45:01  BASE  1.34652  152  1.63464  159  -8.8  100   -8.8  0     0     1012.2   NA       0.0000   9999     520   0     0    
2019/08/23  03:46:01  BASE  1.45824  158  1.87572  153  -8.9  100   -8.9  0     0     1012.2   NA       0.0000   9999     430   0     0    
2019/08/23  03:47:01  BASE  1.60524  159  1.87572  153  -8.9  100   -8.9  0     0     1012.2   NA       0.0000   9999     490   0     0    
2019/08/23  03:48:01  BASE  1.62876  158  1.87572  153  -9.0  100   -9.0  0     0     1012.2   NA       0.0000   9999     430   0     0    
2019/08/23  03:49:01  BASE  1.60524  153  1.87572  153  -9.0  100   -9.0  0     0     1012.2   NA       0.0000   9999     390   0     0    
2019/08/23  03:50:01  BASE  1.53468  147  1.87572  153  -9.0  100   -9.0  0     0     1012.2   NA       0.0000   9999     430   0     0    
2019/08/23  03:51:01  BASE  1.38768  145  1.87572  153  -9.0  100   -9.0  0     0     1012.2   NA       0.0000   9999     430   0     0    
2019/08/23  03:52:01  BASE  1.34652  148  1.87572  153  -8.9  100   -8.9  0     0     1012.2   NA       0.0000   9999     490   0     0    
2019/08/23  03:53:01  BASE  1.2936   142  1.87572  153  -8.8  100   -8.8  0     0     1012.2   NA       0.0000   9999     520   0     0    
2019/08/23  03:54:01  BASE  1.3524   137  1.87572  153  -8.8  100   -8.8  0     0     1012.2   NA       0.0000   9999     0     0     0    
2019/08/23  03:55:01  BASE  1.45824  141  1.87572  153  -8.8  100   -8.8  0     0     1012.2   NA       0.0000   9999     0     0     0    
2019/08/23  03:56:01  BASE  1.34064  136  1.81692  162  -8.8  100   -8.8  0     0     1012.2   NA       0.0000   9999     620   0     0    
2019/08/23  03:57:01  BASE  1.02312  126  1.78752  150  -8.9  100   -8.9  0     0     1012.2   NA       0.0000   9999     560   0     0    
2019/08/23  03:58:01  BASE  0.8232   117  1.78752  150  -8.9  100   -8.9  0     0     1012.2   NA       0.0000   9999     520   0     0    
2019/08/23  03:59:01  BASE  0.91728  106  1.57584  139  -8.9  100   -8.9  0     0     1012.2   NA       0.0000   9999     520   0     0    
2019/08/23  04:00:01  BASE  0.8526   110  1.63464  126  -8.9  100   -8.9  0     0     1012.2   NA       0.0000   9999     560   0     0    
2019/08/23  04:02:01  BASE  0.80556  124  1.63464  126  -8.8  100   -8.8  0     0     1012.2   NA       0.0000   9999     560   0     0    
2019/08/23  04:03:01  BASE  0.52332  127  1.63464  126  -8.7  100   -8.7  0     0     1012.3   NA       0.0000   9999     0     0     0    
2019/08/23  04:04:01  BASE  0.2352   118  1.63464  126  -8.6  100   -8.6  0     0     1012.3   NA       0.0000   9999     0     0     0    
2019/08/23  04:05:01  BASE  0.12348  102  1.63464  126  -8.6  100   -8.6  0     0     1012.3   NA       0.0000   9999     0     0     0    
2019/08/23  04:06:01  BASE  0        96   1.63464  126  -8.5  100   -8.5  0     0     1012.3   NA       0.0000   9999     0     0     0    
2019/08/23  04:07:01  BASE  0        93   1.63464  126  -8.5  100   -8.5  0     0     1012.3   NA       0.0000   9999     0     0     0    
2019/08/23  04:08:01  BASE  0        92   1.63464  126  -8.5  100   -8.5  0     0     1012.3   NA       0.0000   9999     0     0     0    
2019/08/23  04:09:01  BASE  0        102  1.63464  126  -8.6  100   -8.6  0     0     1012.3   NA       0.0000   9999     0     0     0    
2019/08/23  04:10:01  BASE  0        106  1.63464  126  -8.8  100   -8.8  0     0     1012.3   NA       0.0000   9999     0     0     0    
2019/08/23  04:11:01  BASE  0.27636  70   1.1172   135  -9.0  100   -9.0  0     0     1012.3   NA       0.0000   9999     0     0     0    
2019/08/23  04:12:01  BASE  0.59976  44   0.81732  41   -9.2  100   -9.2  0     0     1012.3   NA       0.0000   9999     0     0     0    
2019/08/23  04:13:01  BASE  0.39984  44   0.81732  41   -9.4  100   -9.4  0     0     1012.3   NA       0.0000   9999     0     0     0    
2019/08/23  04:14:01  BASE  0.07644  43   0.81732  41   -9.5  100   -9.5  0     0     1012.3   NA       0.0000   9999     0     0     0    
2019/08/23  04:15:01  BASE  0        42   0.81732  41   -9.4  100   -9.4  0     0     1012.3   NA       0.0000   9999     590   0     0    
2019/08/23  04:16:01  BASE  0.0882   20   0.81732  41   -9.4  100   -9.4  0     0     1012.3   NA       0.0000   9999     590   0     0    
2019/08/23  04:17:01  BASE  0.39984  353  0.84672  347  -9.4  100   -9.4  0     0     1012.2   NA       0.0000   9999     560   0     0    
2019/08/23  04:18:01  BASE  0.8232   347  1.1172   348  -9.5  100   -9.5  0     0     1012.2   NA       0.0000   9999     520   0     0    
2019/08/23  04:19:01  BASE  1.09956  345  1.21128  337  -9.6  100   -9.6  0     0     1012.2   NA       0.0000   9999     560   0     0    
2019/08/23  04:20:01  BASE  1.15836  341  1.24068  339  -9.7  100   -9.7  0     0     1012.2   NA       0.0000   9999     560   0     0    
2019/08/23  04:21:01  BASE  1.22304  339  1.48176  337  -10.0 100   -10.0 0     0     1012.2   NA       0.0000   9999     560   0     0    
2019/08/23  04:22:01  BASE  1.30536  342  1.48176  337  -10.2 100   -10.2 0     0     1012.2   NA       0.0000   9999     490   0     0    
2019/08/23  04:23:01  BASE  1.18776  347  1.48176  337  -10.4 100   -10.4 0     0     1012.2   NA       0.0000   9999     460   0     0    
2019/08/23  04:24:01  BASE  0.98196  351  1.48176  337  -10.5 100   -10.5 0     0     1012.2   NA       0.0000   9999     430   0     0    
2019/08/23  04:25:01  BASE  0.7938   1    1.48176  337  -10.4 100   -10.4 0     0     1012.2   NA       0.0000   9999     430   0     0    
2019/08/23  04:26:01  BASE  0.72912  12   1.48176  337  -10.2 100   -10.2 0     0     1012.2   NA       0.0000   9999     430   0     0    
2019/08/23  04:27:01  BASE  0.78792  18   1.48176  337  -10.0 100   -10.0 0     0     1012.2   NA       0.0000   9999     390   0     0    
2019/08/23  04:28:01  BASE  0.81144  19   1.48176  337  -9.8  100   -9.8  0     0     1012.2   NA       0.0000   9999     430   0     0    
2019/08/23  04:29:01  BASE  0.84084  12   1.48176  337  -9.6  100   -9.6  0     0     1012.2   NA       0.0000   9999     460   0     0    
2019/08/23  04:30:01  BASE  0.8526   9    1.48176  337  -9.6  100   -9.6  0     0     1012.1   NA       0.0000   9999     430   0     0    
2019/08/23  04:31:01  BASE  0.87612  8    1.42296  338  -9.6  100   -9.6  0     0     1012.1   NA       0.0000   9999     430   0     0    
2019/08/23  04:32:01  BASE  0.99372  5    1.21128  347  -9.7  100   -9.7  0     0     1012.1   NA       0.0000   9999     390   0     0    
2019/08/23  04:33:01  BASE  1.07604  3    1.18188  2    -9.7  100   -9.7  0     0     1012.1   NA       0.0000   9999     360   0     0    
2019/08/23  04:34:01  BASE  1.0878   3    1.21128  5    -9.8  100   -9.8  0     0     1012.1   NA       0.0000   9999     360   0     0    
2019/08/23  04:35:01  BASE  1.06428  6    1.21128  5    -9.8  100   -9.8  0     0     1012.1   NA       0.0000   9999     330   0     0    
2019/08/23  04:36:01  BASE  0.9996   10   1.21128  5    -9.9  100   -9.9  0     0     1012.1   NA       0.0000   9999     300   0     0    
2019/08/23  04:37:01  BASE  0.91728  13   1.21128  5    -9.9  100   -9.9  0     0     1012.1   NA       0.0000   9999     300   0     0    
2019/08/23  04:38:01  BASE  0.78204  6    1.21128  5    -9.8  100   -9.8  0     0     1012.1   NA       0.0000   9999     300   0     0    
2019/08/23  04:39:01  BASE  0.68796  358  1.21128  5    -9.8  100   -9.8  0     0     1012.1   NA       0.0000   9999     300   0     0    
2019/08/23  04:40:01  BASE  0.41748  359  1.21128  5    -9.8  100   -9.8  0     0     1012.1   NA       0.0000   9999     260   0     0    
2019/08/23  04:41:00  BASE  0.07644  11   1.21128  5    -9.7  100   -9.7  0     0     1012.1   NA       0.0000   9999     260   0     0    
2019/08/23  04:42:00  BASE  0        24   1.21128  5    -9.7  100   -9.7  0     0     1012.1   NA       0.0000   9999     300   0     0    
2019/08/23  04:43:00  BASE  0        27   1.21128  5    -9.7  100   -9.7  0     0     1012.1   NA       0.0000   9999     300   0     0    
2019/08/23  04:44:00  BASE  0.19404  17   1.1172   5    -9.6  100   -9.6  0     0     1012.1   NA       0.0000   9999     230   0     0    
2019/08/23  04:45:00  BASE  0.39396  6    1.029    14   -9.6  100   -9.6  0     0     1012.2   NA       0.0000   9999     230   0     0    
2019/08/23  04:46:00  BASE  0.441    4    0.9996   19   -9.5  100   -9.5  0     0     1012.2   NA       0.0000   9999     230   0     0    
2019/08/23  04:47:00  BASE  0.67032  6    0.90552  8    -9.5  100   -9.5  0     0     1012.2   NA       0.0000   9999     230   0     0    
2019/08/23  04:48:00  BASE  0.86436  8    0.93492  5    -9.4  100   -9.4  0     0     1012.2   NA       0.0000   9999     230   0     0    
2019/08/23  04:49:00  BASE  0.9114   2    1.029    355  -9.4  100   -9.4  0     0     1012.2   NA       0.0000   9999     200   0     0    
2019/08/23  04:50:00  BASE  0.88788  353  1.029    355  -9.3  100   -9.3  0     0     1012.2   NA       0.0000   9999     200   0     0    
2019/08/23  04:51:00  BASE  0.71736  353  1.029    355  -9.3  100   -9.3  0     0     1012.2   NA       0.0000   9999     200   0     0    
2019/08/23  04:52:00  BASE  0.60564  351  1.029    355  -9.3  100   -9.3  0     0     1012.2   NA       0.0000   9999     200   0     0    
2019/08/23  04:53:00  BASE  0.60564  345  1.029    355  -9.3  100   -9.3  0     0     1012.2   NA       0.0000   9999     260   0     0    
2019/08/23  04:54:00  BASE  0.77616  354  1.029    355  -9.3  100   -9.3  0     0     1012.2   NA       0.0000   9999     230   0     0    
2019/08/23  04:55:00  BASE  0.96432  358  1.0584   347  -9.3  100   -9.3  0     0     1012.2   NA       0.0000   9999     230   0     0    
2019/08/23  04:56:01  BASE  1.00548  348  1.0878   343  -9.4  100   -9.4  0     0     1012.2   NA       0.0000   9999     260   0     0    
2019/08/23  04:57:00  BASE  0.99372  345  1.0878   343  -9.5  100   -9.5  0     0     1012.2   NA       0.0000   9999     200   0     0    
2019/08/23  04:58:00  BASE  0.91728  351  1.0878   343  -9.6  100   -9.6  0     0     1012.2   NA       0.0000   9999     200   0     0    
2019/08/23  04:59:00  BASE  0.8526   1    1.0878   343  -9.7  100   -9.7  0     0     1012.2   NA       0.0000   9999     160   0     0    
2019/08/23  05:00:01  BASE  0.84084  8    1.0878   343  -9.7  100   -9.7  0     0     1012.2   NA       0.0000   9999     160   0     0    
2019/08/23  05:01:00  BASE  0.88788  7    1.0878   1    -9.7  100   -9.7  0     0     1012.2   NA       0.0000   9999     160   0     0    
2019/08/23  05:02:00  BASE  0.92316  8    1.0878   1    -9.7  100   -9.7  0     0     1012.2   NA       0.0000   9999     160   0     0    
2019/08/23  05:03:00  BASE  0.9702   14   1.1172   25   -9.7  100   -9.7  0     0     1012.2   NA       0.0000   9999     160   0     0    
2019/08/23  05:04:00  BASE  0.97608  20   1.1172   25   -9.7  100   -9.7  0     0     1012.2   NA       0.0000   9999     160   0     0    
2019/08/23  05:05:00  BASE  1.01724  26   1.21128  29   -9.7  100   -9.7  0     0     1012.2   NA       0.0000   9999     0     0     0    
2019/08/23  05:06:00  BASE  1.13484  33   1.27008  41   -9.6  100   -9.6  0     0     1012.2   NA       0.0000   9999     0     0     0    
2019/08/23  05:07:00  BASE  1.22304  39   1.42296  41   -9.6  100   -9.6  0     0     1012.2   NA       0.0000   9999     0     0     0    
2019/08/23  05:08:01  BASE  1.3818   39   1.54056  41   -9.6  100   -9.6  0     0     1012.3   NA       0.0000   9999     160   0     0    
2019/08/23  05:09:01  BASE  1.47     37   1.54056  41   -9.6  100   -9.6  0     0     1012.3   NA       0.0000   9999     160   0     0    
2019/08/23  05:10:01  BASE  1.3818   35   1.54056  41   -9.6  100   -9.6  0     0     1012.3   NA       0.0000   9999     200   0     0    
2019/08/23  05:11:01  BASE  1.39944  36   1.57584  36   -9.6  100   -9.6  0     0     1012.2   NA       0.0000   9999     200   0     0    
2019/08/23  05:12:01  BASE  1.48764  37   1.57584  38   -9.6  100   -9.6  0     0     1012.2   NA       0.0000   9999     200   0     0    
2019/08/23  05:13:00  BASE  1.47588  40   1.57584  38   -9.6  100   -9.6  0     0     1012.2   NA       0.0000   9999     200   0     0    
2019/08/23  05:14:00  BASE  1.39356  42   1.57584  38   -9.6  100   -9.6  0     0     1012.2   NA       0.0000   9999     160   0     0    
2019/08/23  05:15:00  BASE  1.31712  44   1.57584  38   -9.6  100   -9.6  0     0     1012.2   NA       0.0000   9999     160   0     0    
2019/08/23  05:16:00  BASE  1.27596  46   1.57584  38   -9.6  100   -9.6  0     0     1012.2   NA       0.0000   9999     160   0     0    
2019/08/23  05:17:00  BASE  1.22304  43   1.57584  38   -9.5  100   -9.5  0     0     1012.2   NA       0.0000   9999     160   0     0    
2019/08/23  05:18:00  BASE  1.18776  39   1.57584  38   -9.5  100   -9.5  0     0     1012.2   NA       0.0000   9999     200   0     0    
2019/08/23  05:19:00  BASE  1.17012  37   1.57584  38   -9.4  100   -9.4  0     0     1012.2   NA       0.0000   9999     200   0     0    
2019/08/23  05:20:00  BASE  1.15836  40   1.57584  38   -9.3  100   -9.3  0     0     1012.2   NA       0.0000   9999     200   0     0    
2019/08/23  05:21:00  BASE  1.1172   43   1.57584  38   -9.3  100   -9.3  0     0     1012.2   NA       0.0000   9999     200   0     0    
2019/08/23  05:22:00  BASE  1.09368  45   1.48176  39   -9.3  100   -9.3  0     0     1012.2   NA       0.0000   9999     200   0     0    
2019/08/23  05:23:00  BASE  1.14072  45   1.42296  38   -9.3  100   -9.3  0     0     1012.1   NA       0.0000   9999     260   0     0    
2019/08/23  05:24:00  BASE  1.1466   47   1.32888  46   -9.4  100   -9.4  0     0     1012.2   NA       0.0000   9999     230   0     0    
2019/08/23  05:25:00  BASE  1.13484  47   1.27008  38   -9.4  100   -9.4  0     0     1012.1   NA       0.0000   9999     230   0     0    
2019/08/23  05:26:00  BASE  1.13484  45   1.27008  38   -9.4  100   -9.4  0     0     1012.1   NA       0.0000   9999     260   0     0    
2019/08/23  05:27:00  BASE  1.09956  46   1.27008  38   -9.4  100   -9.4  0     0     1012.1   NA       0.0000   9999     260   0     0    
2019/08/23  05:28:00  BASE  1.029    45   1.27008  38   -9.4  100   -9.4  0     0     1012.1   NA       0.0000   9999     0     0     0    
2019/08/23  05:29:00  BASE  1.01136  37   1.24068  46   -9.4  100   -9.4  0     0     1012.1   NA       0.0000   9999     0     0     0    
2019/08/23  05:30:00  BASE  1.07016  23   1.24068  46   -9.3  100   -9.3  0     0     1012.2   NA       0.0000   9999     0     0     0    
2019/08/23  05:31:00  BASE  1.13484  9    1.24068  360  -9.3  100   -9.3  0     0     1012.2   NA       0.0000   9999     0     0     0    
2019/08/23  05:32:00  BASE  1.19952  5    1.27008  10   -9.3  100   -9.3  0     0     1012.2   NA       0.0000   9999     0     0     0    
2019/08/23  05:33:00  BASE  1.14072  10   1.27008  10   -9.4  100   -9.4  0     0     1012.2   NA       0.0000   9999     0     0     0    
2019/08/23  05:34:00  BASE  1.10544  19   1.27008  10   -9.4  100   -9.4  0     0     1012.2   NA       0.0000   9999     0     0     0    
2019/08/23  05:35:00  BASE  1.09368  28   1.27008  10   -9.5  100   -9.5  0     0     1012.2   NA       0.0000   9999     0     0     0    
2019/08/23  05:36:00  BASE  1.12896  31   1.29948  28   -9.6  100   -9.6  0     0     1012.2   NA       0.0000   9999     0     0     0    
2019/08/23  05:37:00  BASE  1.18188  27   1.29948  28   -9.6  100   -9.6  0     0     1012.2   NA       0.0000   9999     0     0     0    
2019/08/23  05:38:00  BASE  1.12896  19   1.29948  28   -9.7  100   -9.7  0     0     1012.2   NA       0.0000   9999     0     0     0    
2019/08/23  05:39:00  BASE  1.07016  13   1.29948  28   -9.7  100   -9.7  0     0     1012.2   NA       0.0000   9999     0     0     0    
2019/08/23  05:40:00  BASE  0.9408   13   1.29948  28   -9.7  100   -9.7  0     0     1012.1   NA       0.0000   9999     0     0     0    
2019/08/23  05:41:00  BASE  0.5292   11   1.29948  28   -9.7  100   -9.7  0     0     1012.1   NA       0.0000   9999     0     0     0    
2019/08/23  05:42:00  BASE  0.10584  1    1.29948  28   -9.7  100   -9.7  0     0     1012.1   NA       0.0000   9999     0     0     0    
2019/08/23  05:43:00  BASE  0        353  1.29948  28   -9.6  100   -9.6  0     0     1012.1   NA       0.0000   9999     0     0     0    
2019/08/23  05:44:00  BASE  0        356  1.29948  28   -9.6  100   -9.6  0     0     1012.0   NA       0.0000   9999     0     0     0    
2019/08/23  05:45:00  BASE  0.0294   9    1.29948  28   -9.5  100   -9.5  0     0     1012.0   NA       0.0000   9999     0     0     0    
2019/08/23  05:46:00  BASE  0.05292  32   1.24068  7    -9.5  100   -9.5  0     0     1012.0   NA       0.0000   9999     0     0     0    
2019/08/23  05:47:00  BASE  0.0294   42   1.24068  7    -9.5  100   -9.5  0     0     1012.0   NA       0.0000   9999     0     0     0    
2019/08/23  05:48:01  BASE  0        40   1.21128  6    -9.4  100   -9.4  0     0     1012.0   NA       0.0000   9999     0     0     0    
2019/08/23  05:49:00  BASE  0        41   1.029    15   -9.5  100   -9.5  0     0     1012.0   NA       0.0000   9999     0     0     0    
2019/08/23  05:50:00  BASE  0        43   0.66444  42   -9.5  100   -9.5  0     0     1012.1   NA       0.0000   9999     0     0     0    
2019/08/23  05:51:00  BASE  0        44   0.66444  42   -9.4  100   -9.4  0     0     1012.1   NA       0.0000   9999     0     0     0    
2019/08/23  05:52:00  BASE  0        44   0.66444  42   -9.4  100   -9.4  0     0     1012.1   NA       0.0000   9999     0     0     0    
2019/08/23  05:53:00  BASE  0        28   0.66444  42   -9.4  100   -9.4  0     0     1012.1   NA       0.0000   9999     0     0     0    
2019/08/23  05:54:00  BASE  0.12936  351  0.81732  351  -9.4  100   -9.4  0     0     1012.1   NA       0.0000   9999     0     0     0    
2019/08/23  05:55:00  BASE  0.66444  343  1.29948  343  -9.4  100   -9.4  0     0     1012.1   NA       0.0000   9999     0     0     0    
2019/08/23  05:56:00  BASE  1.13484  343  1.32888  332  -9.4  100   -9.4  0     0     1012.1   NA       0.0000   9999     0     0     0    
2019/08/23  05:57:00  BASE  1.19952  337  1.35828  345  -9.5  100   -9.5  0     0     1012.1   NA       0.0000   9999     0     0     0    
2019/08/23  05:58:01  BASE  1.29948  338  1.54056  342  -9.5  100   -9.5  0     0     1012.2   NA       0.0000   9999     0     0     0    
2019/08/23  05:59:00  BASE  1.35828  345  1.54056  344  -9.5  100   -9.5  0     0     1012.2   NA       0.0000   9999     0     0     0    
2019/08/23  06:00:00  BASE  1.25244  354  1.54056  344  -9.6  100   -9.6  0     0     1012.2   NA       0.0000   9999     0     0     0    
2019/08/23  06:01:00  BASE  1.2054   359  1.54056  344  -9.7  100   -9.7  0     0     1012.2   NA       0.0000   9999     0     0     0    
2019/08/23  06:02:00  BASE  1.2936   4    1.54056  344  -9.8  100   -9.8  0     0     1012.2   NA       0.0000   9999     0     0     0    
2019/08/23  06:03:00  BASE  1.33476  4    1.54056  344  -9.8  100   -9.8  0     0     1012.2   NA       0.0000   9999     0     0     0    
2019/08/23  06:04:00  BASE  1.33476  1    1.54056  344  -9.9  100   -9.9  0     0     1012.2   NA       0.0000   9999     0     0     0    
2019/08/23  06:05:00  BASE  1.24068  1    1.54056  344  -10.0 100   -10.0 0     0     1012.1   NA       0.0000   9999     230   0     0    
2019/08/23  06:06:00  BASE  1.09956  4    1.54056  344  -10.0 100   -10.0 0     0     1012.1   NA       0.0000   9999     230   0     0    
2019/08/23  06:07:00  BASE  1.06428  6    1.54056  344  -10.0 100   -10.0 0     0     1012.2   NA       0.0000   9999     230   0     0    
2019/08/23  06:08:00  BASE  0.97608  3    1.54056  344  -10.0 100   -10.0 0     0     1012.2   NA       0.0000   9999     260   0     0    
2019/08/23  06:09:00  BASE  0.90552  3    1.48176  354  -10.0 100   -10.0 0     0     1012.2   NA       0.0000   9999     230   0     0    
2019/08/23  06:10:00  BASE  0.95256  8    1.48176  354  -10.0 100   -10.0 0     0     1012.2   NA       0.0000   9999     260   0     0    
2019/08/23  06:11:00  BASE  1.04664  6    1.48176  354  -9.9  100   -9.9  0     0     1012.2   NA       0.0000   9999     300   0     0    
2019/08/23  06:12:00  BASE  1.12308  356  1.48176  354  -9.9  100   -9.9  0     0     1012.2   NA       0.0000   9999     360   0     0    
2019/08/23  06:13:00  BASE  1.15836  351  1.48176  354  -9.9  100   -9.9  0     0     1012.2   NA       0.0000   9999     300   0     0    
2019/08/23  06:14:00  BASE  1.13484  3    1.27008  353  -9.9  100   -9.9  0     0     1012.2   NA       0.0000   9999     260   0     0    
2019/08/23  06:15:00  BASE  1.1172   358  1.24068  288  -9.9  100   -9.9  0     0     1012.2   NA       0.0000   9999     200   0     0    
2019/08/23  06:16:00  BASE  1.09368  351  1.24068  288  -9.9  100   -9.9  0     0     1012.2   NA       0.0000   9999     230   0     0    
2019/08/23  06:17:00  BASE  1.03488  1    1.24068  288  -9.9  100   -9.9  0     0     1012.2   NA       0.0000   9999     330   0     0    
2019/08/23  06:18:00  BASE  0.95256  5    1.24068  288  -9.9  100   -9.9  0     0     1012.2   NA       0.0000   9999     300   0     0    
2019/08/23  06:19:00  BASE  0.79968  11   1.24068  288  -9.9  100   -9.9  0     0     1012.2   NA       0.0000   9999     360   0     0    
2019/08/23  06:20:00  BASE  0.48216  13   1.24068  288  -10.0 100   -10.0 0     0     1012.2   NA       0.0000   9999     330   0     0    
2019/08/23  06:21:00  BASE  0.12936  15   1.24068  288  -10.0 100   -10.0 0     0     1012.2   NA       0.0000   9999     330   0     0    
2019/08/23  06:22:00  BASE  0        18   1.24068  288  -10.0 100   -10.0 0     0     1012.1   NA       0.0000   9999     0     0     0    
2019/08/23  06:23:00  BASE  0        31   1.24068  288  -10.0 100   -10.0 0     0     1012.1   NA       0.0000   9999     330   0     0    
2019/08/23  06:24:00  BASE  0        53   1.24068  288  -10.0 100   -10.0 0     0     1012.1   NA       0.0000   9999     360   0     0    
2019/08/23  06:25:00  BASE  0        65   1.21128  136  -9.9  100   -9.9  0     0     1012.1   NA       0.0000   9999     430   0     0    
2019/08/23  06:26:00  BASE  0        66   1.18188  355  -9.9  100   -9.9  0     0     1012.1   NA       0.0000   9999     390   0     0    
2019/08/23  06:27:00  BASE  0        65   1.0584   1    -9.8  100   -9.8  0     0     1012.1   NA       0.0000   9999     390   0     0    
2019/08/23  06:28:01  BASE  0        84   0.9702   14   -9.8  100   -9.8  0     0     1012.0   NA       0.0000   9999     390   0     0    
2019/08/23  06:29:00  BASE  0        101  0.66444  351  -9.7  100   -9.7  0     0     1012.0   NA       0.0000   9999     360   0     0    
2019/08/23  06:30:00  BASE  0        104  0        M    -9.6  100   -9.6  0     0     1012.0   NA       0.0000   9999     360   0     0    
2019/08/23  06:31:00  BASE  0        105  0        M    -9.6  100   -9.6  0     0     1011.9   NA       0.0000   9999     330   0     0    
2019/08/23  06:32:00  BASE  0        104  0        M    -9.5  100   -9.5  0     0     1011.9   NA       0.0000   9999     300   0     0    
2019/08/23  06:33:00  BASE  0        101  0        M    -9.5  100   -9.5  0     0     1011.9   NA       0.0000   9999     330   0     0    
2019/08/23  06:34:00  BASE  0.36456  98   0.81732  110  -9.4  100   -9.4  0     0     1011.9   NA       0.0000   9999     260   0     0    
2019/08/23  06:35:00  BASE  0.78204  106  0.90552  115  -9.4  100   -9.4  0     0     1011.8   NA       0.0000   9999     260   0     0    
2019/08/23  06:36:00  BASE  0.87024  117  0.9702   120  -9.4  100   -9.4  0     0     1011.8   NA       0.0000   9999     260   0     0    
2019/08/23  06:37:00  BASE  0.88788  124  0.9702   120  -9.4  100   -9.4  0     0     1011.9   NA       0.0000   9999     0     0     0    
2019/08/23  06:38:00  BASE  0.84084  128  0.9702   120  -9.5  100   -9.5  0     0     1011.9   NA       0.0000   9999     0     0     0    
2019/08/23  06:39:00  BASE  0.65268  128  0.9702   120  -9.6  100   -9.6  0     0     1011.9   NA       0.0000   9999     0     0     0    
2019/08/23  06:40:00  BASE  0.24696  128  0.9702   120  -9.6  100   -9.6  0     0     1011.9   NA       0.0000   9999     330   0     0    
2019/08/23  06:41:00  BASE  0        128  0.9702   120  -9.6  100   -9.6  0     0     1011.9   NA       0.0000   9999     260   0     0    
2019/08/23  06:42:00  BASE  0        128  0.9702   120  -9.5  100   -9.5  0     0     1011.9   NA       0.0000   9999     300   0     0    
2019/08/23  06:43:00  BASE  0        130  0.9702   120  -9.4  100   -9.4  0     0     1012.0   NA       0.0000   9999     330   0     0    
2019/08/23  06:44:00  BASE  0        142  0.9702   120  -9.2  100   -9.2  0     0     1012.0   NA       0.0000   9999     0     0     0    
2019/08/23  06:45:00  BASE  0        154  0.9702   120  -9.1  100   -9.1  0     0     1012.0   NA       0.0000   9999     330   0     0    
2019/08/23  06:46:00  BASE  0        154  0.90552  128  -9.1  100   -9.1  0     0     1012.0   NA       0.0000   9999     0     0     0    
2019/08/23  06:47:00  BASE  0        154  0.84672  128  -9.0  100   -9.0  0     0     1012.0   NA       0.0000   9999     0     0     0    
2019/08/23  06:48:00  BASE  0        154  0.75852  128  -9.0  100   -9.0  0     0     1012.0   NA       0.0000   9999     0     0     0    
2019/08/23  06:49:00  BASE  0        154  0        M    -9.0  100   -9.0  0     0     1012.0   NA       0.0000   9999     0     0     0    
2019/08/23  06:50:00  BASE  0        154  0        M    -9.0  100   -9.0  0     0     1012.0   NA       0.0000   9999     300   0     0    
2019/08/23  06:51:00  BASE  0        154  0        M    -8.9  100   -8.9  0     0     1012.0   NA       0.0000   9999     330   0     0    
2019/08/23  06:52:00  BASE  0        154  0        M    -8.9  100   -8.9  0     0     1012.0   NA       0.0000   9999     520   0     0    
2019/08/23  06:53:00  BASE  0        167  0        M    -8.9  100   -8.9  0     0     1012.1   NA       0.0000   9999     490   0     0    
2019/08/23  06:54:00  BASE  0        202  0        M    -8.9  100   -8.9  0     0     1012.1   NA       0.0000   9999     520   0     0    
2019/08/23  06:55:00  BASE  0        257  0        M    -9.0  100   -9.0  0     0     1012.1   NA       0.0000   9999     560   0     0    
2019/08/23  06:56:00  BASE  0        281  0        M    -9.2  100   -9.2  0     0     1012.1   NA       0.0000   9999     690   0     0    
2019/08/23  06:57:00  BASE  0        282  0        M    -9.4  100   -9.4  0     0     1012.1   NA       0.0000   9999     850   0     0    
2019/08/23  06:58:00  BASE  0        284  0        M    -9.7  100   -9.7  0     0     1012.0   NA       0.0000   9999     850   0     0    
2019/08/23  06:59:00  BASE  0        286  0        M    -9.8  100   -9.8  0     0     1012.0   NA       0.0000   9999     850   0     0    
2019/08/23  07:00:00  BASE  0        306  0        M    -9.9  100   -9.9  0     0     1012.0   NA       0.0000   9999     920   0     0    
2019/08/23  07:01:00  BASE  0.33516  343  0.75852  19   -9.9  100   -9.9  0     0     1012.0   NA       0.0000   9999     0     0     0    
2019/08/23  07:02:00  BASE  0.71148  12   0.84672  31   -9.8  100   -9.8  0     0     1012.1   NA       0.0000   9999     0     0     0    
2019/08/23  07:03:00  BASE  0.78204  29   0.87612  33   -9.8  100   -9.8  0     0     1012.1   NA       0.0000   9999     0     0     0    
2019/08/23  07:04:00  BASE  0.65856  26   0.87612  33   -9.8  100   -9.8  0     0     1012.1   NA       0.0000   9999     0     0     0    
2019/08/23  07:05:00  BASE  0.66444  21   0.87612  31   -9.9  100   -9.9  0     0     1012.1   NA       0.0000   9999     850   0     0    
2019/08/23  07:06:00  BASE  0.8232   24   0.90552  32   -10.0 100   -10.0 0     0     1012.1   NA       0.0000   9999     820   0     0    
2019/08/23  07:07:00  BASE  0.78792  23   0.90552  32   -10.2 100   -10.2 0     0     1012.1   NA       0.0000   9999     850   0     0    
2019/08/23  07:08:00  BASE  0.74088  19   0.90552  32   -10.3 100   -10.3 0     0     1012.1   NA       0.0000   9999     820   0     0    
2019/08/23  07:09:00  BASE  0.69972  18   0.90552  32   -10.3 100   -10.3 0     0     1012.0   NA       0.0000   9999     790   0     0    
2019/08/23  07:10:00  BASE  0.51156  16   0.90552  32   -10.2 100   -10.2 0     0     1012.0   NA       0.0000   9999     750   0     0    
2019/08/23  07:11:00  BASE  0.50568  15   0.90552  32   -10.0 100   -10.0 0     0     1012.0   NA       0.0000   9999     690   0     0    
2019/08/23  07:12:00  BASE  0.65856  18   0.90552  32   -9.8  100   -9.8  0     0     1012.0   NA       0.0000   9999     690   0     0    
2019/08/23  07:13:00  BASE  0.6762   23   0.90552  32   -9.6  100   -9.6  0     0     1012.0   NA       0.0000   9999     620   0     0    
2019/08/23  07:14:00  BASE  0.6762   29   0.90552  32   -9.5  100   -9.5  0     0     1012.0   NA       0.0000   9999     690   0     0    
2019/08/23  07:15:00  BASE  0.68796  30   0.90552  32   -9.4  100   -9.4  0     0     1012.0   NA       0.0000   9999     720   0     0    
2019/08/23  07:16:00  BASE  0.7056   24   0.78792  18   -9.3  100   -9.3  0     0     1012.0   NA       0.0000   9999     750   0     0    
2019/08/23  07:17:00  BASE  0.57036  19   0.78792  18   -9.3  100   -9.3  0     0     1012.0   NA       0.0000   9999     790   0     0    
2019/08/23  07:18:00  BASE  0.21168  21   0.75852  19   -9.4  100   -9.4  0     0     1011.9   NA       0.0000   9999     750   0     0    
2019/08/23  07:19:00  BASE  0        29   0.75852  19   -9.5  100   -9.5  0     0     1011.9   NA       0.0000   9999     0     0     0    
2019/08/23  07:20:00  BASE  0        34   0.75852  19   -9.5  100   -9.5  0     0     1011.9   NA       0.0000   9999     750   0     0    
2019/08/23  07:21:00  BASE  0        35   0.75852  19   -9.5  100   -9.5  0     0     1011.9   NA       0.0000   9999     720   0     0    
2019/08/23  07:22:00  BASE  0        54   0.75852  19   -9.5  100   -9.5  0     0     1011.9   NA       0.0000   9999     660   0     0    
2019/08/23  07:23:00  BASE  0        83   0.75852  19   -9.5  100   -9.5  0     0     1011.8   NA       0.0000   9999     620   0     0    
2019/08/23  07:24:00  BASE  0        95   0.75852  19   -9.5  100   -9.5  0     0     1011.9   NA       0.0000   9999     0     0     0    
2019/08/23  07:25:00  BASE  0        96   0.75852  19   -9.5  100   -9.5  0     0     1011.9   NA       0.0000   9999     0     0     0    
2019/08/23  07:26:00  BASE  0        96   0.69384  19   -9.4  100   -9.4  0     0     1011.9   NA       0.0000   9999     0     0     0    
2019/08/23  07:27:00  BASE  0        96   0        M    -9.4  100   -9.4  0     0     1011.9   NA       0.0000   9999     720   0     0    
2019/08/23  07:28:00  BASE  0        96   0        M    -9.4  100   -9.4  0     0     1011.9   NA       0.0000   9999     690   0     0    
2019/08/23  07:29:00  BASE  0        96   0        M    -9.3  100   -9.3  0     0     1011.9   NA       0.0000   9999     690   0     0    
2019/08/23  07:30:00  BASE  0        96   0        M    -9.1  100   -9.1  0     0     1011.9   NA       0.0000   9999     690   0     0    
2019/08/23  07:31:00  BASE  0        96   0        M    -9.1  100   -9.1  0     0     1011.9   NA       0.0000   9999     690   0     0    
2019/08/23  07:32:00  BASE  0        95   0        M    -9.0  100   -9.0  0     0     1011.9   NA       0.0000   9999     660   0     0    
2019/08/23  07:33:00  BASE  0        91   0        M    -8.9  100   -8.9  0     0     1011.9   NA       0.0000   9999     660   0     0    
2019/08/23  07:34:00  BASE  0        84   0        M    -8.8  100   -8.8  0     0     1011.9   NA       0.0000   9999     620   0     0    
2019/08/23  07:35:00  BASE  0        83   0        M    -8.8  100   -8.8  0     0     1011.8   NA       0.0000   9999     620   0     0    
2019/08/23  07:36:00  BASE  0        83   0        M    -8.8  100   -8.8  0     0     1011.8   NA       0.0000   9999     590   0     0    
2019/08/23  07:37:00  BASE  0        83   0        M    -8.7  100   -8.7  0     0     1011.7   NA       0.0000   9999     590   0     0    
2019/08/23  07:38:00  BASE  0        83   0        M    -8.7  100   -8.7  0     0     1011.7   NA       0.0000   9999     590   0     0    
2019/08/23  07:39:00  BASE  0        83   0        M    -8.7  100   -8.7  0     0     1011.7   NA       0.0000   9999     590   0     0    
2019/08/23  07:40:00  BASE  0        83   0        M    -8.7  100   -8.7  0     0     1011.7   NA       0.0000   9999     620   0     0    
2019/08/23  07:41:00  BASE  0        84   0        M    -8.7  100   -8.7  0     0     1011.7   NA       0.0000   9999     620   0     0    
2019/08/23  07:42:00  BASE  0        85   0        M    -8.7  100   -8.7  0     0     1011.7   NA       0.0000   9999     620   0     0    
2019/08/23  07:43:00  BASE  0        76   0        M    -8.7  100   -8.7  0     0     1011.7   NA       0.0000   9999     590   0     0    
2019/08/23  07:44:00  BASE  0        56   0        M    -8.7  100   -8.7  0     0     1011.7   NA       0.0000   9999     0     0     0    
2019/08/23  07:45:00  BASE  0        48   0        M    -8.7  100   -8.7  0     0     1011.7   NA       0.0000   9999     0     0     0    
2019/08/23  07:46:00  BASE  0        48   0        M    -8.8  100   -8.8  0     0     1011.7   NA       0.0000   9999     0     0     0    
2019/08/23  07:47:00  BASE  0        49   0        M    -8.8  100   -8.8  0     0     1011.9   NA       0.0000   9999     0     0     0    
2019/08/23  07:48:00  BASE  0        50   0        M    -8.9  100   -8.9  0     0     1011.9   NA       0.0000   9999     0     0     0    
2019/08/23  07:49:00  BASE  0        49   0        M    -9.0  100   -9.0  0     0     1011.9   NA       0.0000   9999     0     0     0    
2019/08/23  07:50:00  BASE  0        57   0        M    -9.1  100   -9.1  0     0     1011.9   NA       0.0000   9999     0     0     0    
2019/08/23  07:51:00  BASE  0.12348  69   0.81732  73   -9.2  100   -9.2  0     0     1011.8   NA       0.0000   9999     0     0     0    
2019/08/23  07:52:00  BASE  0.3528   71   0.90552  66   -9.3  100   -9.3  0     0     1011.7   NA       0.0000   9999     0     0     0    
2019/08/23  07:53:00  BASE  0.34104  70   0.90552  66   -9.3  100   -9.3  0     0     1011.7   NA       0.0000   9999     0     0     0    
2019/08/23  07:54:00  BASE  0.10584  79   0.90552  66   -9.2  100   -9.2  0     0     1011.7   NA       0.0000   9999     0     0     0    
2019/08/23  07:55:00  BASE  0        91   0.90552  66   -9.2  100   -9.2  0     0     1011.7   NA       0.0000   9999     0     0     0    
2019/08/23  07:56:00  BASE  0        96   0.90552  66   -9.2  100   -9.2  0     0     1011.7   NA       0.0000   9999     0     0     0    
2019/08/23  07:57:00  BASE  0.05292  96   0.90552  66   -9.1  100   -9.1  0     0     1011.7   NA       0.0000   9999     0     0     0    
2019/08/23  07:58:00  BASE  0.05292  96   0.90552  66   -9.0  100   -9.0  0     0     1011.7   NA       0.0000   9999     0     0     0    
2019/08/23  07:59:00  BASE  0.0294   99   0.90552  66   -9.0  100   -9.0  0     0     1011.7   NA       0.0000   9999     0     0     0    
2019/08/23  08:00:00  BASE  0.0294   100  0.90552  66   -8.9  100   -8.9  0     0     1011.6   NA       0.0000   9999     0     0     0    
2019/08/23  08:01:00  BASE  0        97   0.90552  66   -8.9  100   -8.9  0     0     1011.6   NA       0.0000   9999     0     0     0    
2019/08/23  08:02:00  BASE  0        96   0.69384  67   -8.8  100   -8.8  0     0     1011.6   NA       0.0000   9999     0     0     0    
2019/08/23  08:03:00  BASE  0        95   0.66444  96   -8.8  100   -8.8  0     0     1011.6   NA       0.0000   9999     0     0     0    
2019/08/23  08:04:00  BASE  0        96   0.66444  96   -8.8  100   -8.8  0     0     1011.6   NA       0.0000   9999     850   0     0    
2019/08/23  08:05:00  BASE  0        96   0.66444  96   -8.8  100   -8.8  0     0     1011.6   NA       0.0000   9999     850   0     0    
2019/08/23  08:06:00  BASE  0        96   0.66444  96   -8.8  100   -8.8  0     0     1011.7   NA       0.0000   9999     820   0     0    
2019/08/23  08:07:00  BASE  0        96   0.66444  96   -8.8  100   -8.8  0     0     1011.6   NA       0.0000   9999     850   0     0    
2019/08/23  08:08:00  BASE  0        97   0.66444  96   -8.8  100   -8.8  0     0     1011.6   NA       0.0000   9999     850   0     0    
2019/08/23  08:09:00  BASE  0        104  0        M    -8.8  100   -8.8  0     0     1011.6   NA       0.0000   9999     0     0     0    
2019/08/23  08:10:00  BASE  0        110  0        M    -8.8  100   -8.8  0     0     1011.6   NA       0.0000   9999     0     0     0    
2019/08/23  08:11:00  BASE  0        110  0        M    -8.8  100   -8.8  0     0     1011.6   NA       0.0000   9999     0     0     0    
2019/08/23  08:12:00  BASE  0        110  0        M    -8.9  100   -8.9  0     0     1011.6   NA       0.0000   9999     0     0     0    
2019/08/23  08:13:00  BASE  0        110  0        M    -8.9  100   -8.9  0     0     1011.6   NA       0.0000   9999     0     0     0    
2019/08/23  08:14:00  BASE  0        110  0        M    -8.9  100   -8.9  0     0     1011.6   NA       0.0000   9999     0     0     0    
2019/08/23  08:15:00  BASE  0        110  0        M    -8.9  100   -8.9  0     0     1011.5   NA       0.0000   9999     0     0     0    
2019/08/23  08:16:00  BASE  0        110  0        M    -8.9  100   -8.9  0     0     1011.5   NA       0.0000   9999     0     0     0    
2019/08/23  08:17:00  BASE  0        110  0        M    -8.9  100   -8.9  0     0     1011.5   NA       0.0000   9999     0     0     0    
2019/08/23  08:18:00  BASE  0        110  0        M    -8.8  100   -8.8  0     0     1011.5   NA       0.0000   9999     0     0     0    
2019/08/23  08:19:00  BASE  0        110  0        M    -8.8  100   -8.8  0     0     1011.5   NA       0.0000   9999     0     0     0    
2019/08/23  08:20:00  BASE  0        110  0        M    -8.8  100   -8.8  0     0     1011.4   NA       0.0000   9999     0     0     0    
2019/08/23  08:21:00  BASE  0        110  0        M    -8.7  100   -8.7  0     0     1011.4   NA       0.0000   9999     0     0     0    
2019/08/23  08:22:00  BASE  0        110  0        M    -8.7  100   -8.7  0     0     1011.5   NA       0.0000   9999     0     0     0    
2019/08/23  08:23:00  BASE  0        110  0        M    -8.7  100   -8.7  0     0     1011.5   NA       0.0000   9999     0     0     0    
2019/08/23  08:24:00  BASE  0        110  0        M    -8.7  100   -8.7  0     0     1011.4   NA       0.0000   9999     0     0     0    
2019/08/23  08:25:00  BASE  0        110  0        M    -8.8  100   -8.8  0     0     1011.4   NA       0.0000   9999     0     0     0    
2019/08/23  08:26:00  BASE  0        110  0        M    -8.8  100   -8.8  0     0     1011.4   NA       0.0000   9999     0     0     0    
2019/08/23  08:27:00  BASE  0        110  0        M    -8.9  100   -8.9  0     0     1011.4   NA       0.0000   9999     0     0     0    
2019/08/23  08:28:00  BASE  0        66   0        M    -9.0  100   -9.0  0     0     1011.4   NA       0.0000   9999     0     0     0    
2019/08/23  08:29:00  BASE  0        356  0        M    -9.1  100   -9.1  0     0     1011.4   NA       0.0000   9999     0     0     0    
2019/08/23  08:30:00  BASE  0        343  0        M    -9.1  100   -9.1  0     0     1011.4   NA       0.0000   9999     0     0     0    
2019/08/23  08:31:00  BASE  0        345  0        M    -9.2  100   -9.2  0     0     1011.4   NA       0.0000   9999     0     0     0    
2019/08/23  08:32:00  BASE  0        346  0        M    -9.2  100   -9.2  0     0     1011.4   NA       0.0000   9999     0     0     0    
2019/08/23  08:33:00  BASE  0        346  0        M    -9.2  100   -9.2  0     0     1011.4   NA       0.0000   9999     0     0     0    
2019/08/23  08:34:00  BASE  0        345  0        M    -9.3  100   -9.3  0     0     1011.4   NA       0.0000   9999     0     0     0    
2019/08/23  08:35:00  BASE  0        340  0        M    -9.4  100   -9.4  0     0     1011.4   NA       0.0000   9999     0     0     0    
2019/08/23  08:36:00  BASE  0        334  0        M    -9.5  100   -9.5  0     0     1011.4   NA       0.0000   9999     0     0     0    
2019/08/23  08:37:00  BASE  0        331  0        M    -9.7  100   -9.7  0     0     1011.4   NA       0.0000   9999     0     0     0    
2019/08/23  08:38:00  BASE  0        335  0        M    -9.8  100   -9.8  0     0     1011.4   NA       0.0000   9999     0     0     0    
2019/08/23  08:39:00  BASE  0        343  0        M    -9.8  100   -9.8  0     0     1011.4   NA       0.0000   9999     0     0     0    
2019/08/23  08:40:00  BASE  0        354  0        M    -9.8  100   -9.8  0     0     1011.4   NA       0.0000   9999     0     0     0    
2019/08/23  08:41:00  BASE  0        2    0        M    -9.7  100   -9.7  0     0     1011.4   NA       0.0000   9999     0     0     0    
2019/08/23  08:42:00  BASE  0        7    0        M    -9.5  100   -9.5  0     0     1011.4   NA       0.0000   9999     0     0     0    
2019/08/23  08:43:00  BASE  0        20   0        M    -9.4  100   -9.4  0     0     1011.4   NA       0.0000   9999     0     0     0    
2019/08/23  08:44:00  BASE  0        38   0        M    -9.3  100   -9.3  0     0     1011.4   NA       0.0000   9999     0     0     0    
2019/08/23  08:45:00  BASE  0        56   0        M    -9.2  100   -9.2  0     0     1011.4   NA       0.0000   9999     0     0     0    
2019/08/23  08:46:00  BASE  0        66   0        M    -9.2  100   -9.2  0     0     1011.3   NA       0.0000   9999     0     0     0    
2019/08/23  08:47:00  BASE  0        78   0        M    -9.2  100   -9.2  0     0     1011.3   NA       0.0000   9999     0     0     0    
2019/08/23  08:48:00  BASE  0        90   0        M    -9.2  100   -9.2  0     0     1011.3   NA       0.0000   9999     0     0     0    
2019/08/23  08:49:00  BASE  0.02352  98   0.60564  104  -9.2  100   -9.2  0     0     1011.3   NA       0.0000   9999     0     0     0    
2019/08/23  08:50:00  BASE  0.02352  106  0.60564  104  -9.2  100   -9.2  0     0     1011.2   NA       0.0000   9999     0     0     0    
2019/08/23  08:51:00  BASE  0        109  0.60564  104  -9.2  100   -9.2  0     0     1011.1   NA       0.0000   9999     0     0     0    
2019/08/23  08:52:00  BASE  0        108  0.60564  104  -9.1  100   -9.1  0     0     1011.1   NA       0.0000   9999     0     0     0    
2019/08/23  08:53:00  BASE  0        104  0.60564  104  -9.1  100   -9.1  0     0     1011.1   NA       0.0000   9999     0     0     0    
2019/08/23  08:54:00  BASE  0        100  0.60564  104  -9.1  100   -9.1  0     0     1011.1   NA       0.0000   9999     0     0     0    
2019/08/23  08:55:00  BASE  0        100  0.60564  104  -9.1  100   -9.1  0     0     1011.1   NA       0.0000   9999     0     0     0    
2019/08/23  08:56:00  BASE  0        102  0.60564  104  -9.0  100   -9.0  0     0     1011.1   NA       0.0000   9999     0     0     0    
2019/08/23  08:57:00  BASE  0        101  0.60564  104  -9.0  100   -9.0  0     0     1011.1   NA       0.0000   9999     0     0     0    
2019/08/23  08:58:00  BASE  0        101  0.60564  104  -9.0  100   -9.0  0     0     1011.1   NA       0.0000   9999     0     0     0    
2019/08/23  08:59:00  BASE  0        101  0        M    -9.0  100   -9.0  0     0     1011.1   NA       0.0000   9999     0     0     0    
2019/08/23  09:00:00  BASE  0        101  0        M    -8.9  100   -8.9  0     0     1011.1   NA       0.0000   9999     0     0     0    
2019/08/23  09:01:00  BASE  0        101  0        M    -8.9  100   -8.9  0     0     1011.1   NA       0.0000   9999     0     0     0    
2019/08/23  09:02:00  BASE  0        113  0        M    -8.9  100   -8.9  0     0     1011.1   NA       0.0000   9999     0     0     0    
2019/08/23  09:03:00  BASE  0        159  0        M    -8.9  100   -8.9  0     0     1011.1   NA       0.0000   9999     0     0     0    
2019/08/23  09:04:00  BASE  0        193  0        M    -8.8  100   -8.8  0     0     1011.1   NA       0.0000   9999     0     0     0    
2019/08/23  09:05:00  BASE  0.25872  201  0.75852  203  -8.8  100   -8.8  0     0     1011.1   NA       0.0000   9999     0     0     0    
2019/08/23  09:06:00  BASE  0.65856  198  1.029    172  -8.9  100   -8.9  0     0     1011.1   NA       0.0000   9999     0     0     0    
2019/08/23  09:07:00  BASE  0.95256  182  1.21128  172  -9.0  100   -9.0  0     0     1011.1   NA       0.0000   9999     0     0     0    
2019/08/23  09:08:00  BASE  1.029    176  1.21128  172  -9.1  100   -9.1  0     0     1011.1   NA       0.0000   9999     0     0     0    
2019/08/23  09:09:00  BASE  0.89376  179  1.21128  172  -9.2  100   -9.2  0     0     1011.1   NA       0.0000   9999     0     0     0    
2019/08/23  09:10:00  BASE  0.78204  182  1.21128  172  -9.3  100   -9.3  0     0     1011.1   NA       0.0000   9999     0     0     0    
2019/08/23  09:11:00  BASE  0.58212  187  1.21128  172  -9.4  100   -9.4  0     0     1011.1   NA       0.0000   9999     0     0     0    
2019/08/23  09:12:00  BASE  0.21756  189  1.21128  172  -9.3  100   -9.3  0     0     1011.1   NA       0.0000   9999     0     0     0    
2019/08/23  09:13:00  BASE  0.02352  188  1.21128  172  -9.3  100   -9.3  0     0     1011.1   NA       0.0000   9999     0     0     0    
2019/08/23  09:14:00  BASE  0.38808  174  1.21128  172  -9.2  100   -9.2  0     0     1011.1   NA       0.0000   9999     0     0     0    
2019/08/23  09:15:00  BASE  0.72912  159  1.21128  172  -9.2  100   -9.2  0     0     1011.0   NA       0.0000   9999     0     0     0    
2019/08/23  09:16:00  BASE  0.51156  153  1.21128  172  -9.2  100   -9.2  0     0     1011.0   NA       0.0000   9999     0     0     0    
2019/08/23  09:17:00  BASE  0.29988  150  1.0878   176  -9.2  100   -9.2  0     0     1010.9   NA       0.0000   9999     0     0     0    
2019/08/23  09:18:00  BASE  0.4998   145  0.87612  182  -9.2  100   -9.2  0     0     1010.9   NA       0.0000   9999     0     0     0    
2019/08/23  09:19:00  BASE  0.735    140  0.84672  138  -9.2  100   -9.2  0     0     1010.9   NA       0.0000   9000     0     0     0    
2019/08/23  09:20:00  BASE  0.46452  139  0.84672  138  -9.2  100   -9.2  0     0     1010.9   NA       0.0000   7000     0     0     0    
2019/08/23  09:21:00  BASE  0.07644  139  0.84672  138  -9.2  100   -9.2  0     0     1010.9   NA       0.0000   9000     0     0     0    
2019/08/23  09:22:00  BASE  0        139  0.84672  138  -9.2  100   -9.2  0     0     1010.9   NA       0.0000   9999     0     0     0    
2019/08/23  09:23:00  BASE  0        139  0.84672  138  -9.2  100   -9.2  0     0     1010.9   NA       0.0000   9999     0     0     0    
2019/08/23  09:24:00  BASE  0        139  0.84672  138  -9.2  100   -9.2  0     0     1010.9   NA       0.0000   9999     0     0     0    
2019/08/23  09:25:00  BASE  0        139  0.84672  138  -9.3  100   -9.3  0     0     1010.9   NA       0.0000   9999     0     0     0    
2019/08/23  09:26:00  BASE  0        139  0.84672  138  -9.3  100   -9.3  0     0     1010.9   NA       0.0000   9999     0     0     0    
2019/08/23  09:27:00  BASE  0        139  0.84672  138  -9.4  100   -9.4  0     0     1010.9   NA       0.0000   9999     0     0     0    
2019/08/23  09:28:00  BASE  0        143  0.84672  138  -9.3  100   -9.3  0     0     1010.9   NA       0.0000   9999     0     0     0    
2019/08/23  09:29:00  BASE  0        146  0.66444  139  -9.2  100   -9.2  0     0     1010.9   NA       0.0000   9999     0     0     0    
2019/08/23  09:30:00  BASE  0        146  0        M    -9.1  100   -9.1  0     0     1010.9   NA       0.0000   9999     0     0     0    
2019/08/23  09:31:00  BASE  0        129  0        M    -9.1  100   -9.1  0     0     1010.9   NA       0.0000   9999     0     0     0    
2019/08/23  09:32:00  BASE  0.30576  101  0.93492  82   -9.0  100   -9.0  0     0     1010.9   NA       0.0000   9999     0     0     0    
2019/08/23  09:33:00  BASE  0.75264  89   1.029    88   -9.1  100   -9.1  0     0     1010.9   NA       0.0000   9999     0     0     0    
2019/08/23  09:34:00  BASE  0.72912  90   1.029    88   -9.1  100   -9.1  0     0     1010.9   NA       0.0000   9999     0     0     0    
2019/08/23  09:35:00  BASE  0.56448  88   1.029    88   -9.1  100   -9.1  0     0     1010.9   NA       0.0000   9999     0     0     0    
2019/08/23  09:36:00  BASE  0.3528   84   1.029    88   -9.0  100   -9.0  0     0     1010.9   NA       0.0000   9999     0     0     0    
2019/08/23  09:37:00  BASE  0.22932  85   1.029    88   -9.0  100   -9.0  0     0     1010.9   NA       0.0000   9999     0     0     0    
2019/08/23  09:38:00  BASE  0.147    90   1.029    88   -8.9  100   -8.9  0     0     1010.9   NA       0.0000   9999     0     0     0    
2019/08/23  09:39:00  BASE  0        96   1.029    88   -8.9  100   -8.9  0     0     1010.9   NA       0.0000   9999     0     0     0    
2019/08/23  09:40:00  BASE  0        106  1.029    88   -8.8  100   -8.8  0     0     1010.9   NA       0.0000   9999     0     0     0    
2019/08/23  09:41:00  BASE  0        119  1.029    88   -8.8  100   -8.8  0     0     1010.9   NA       0.0000   9999     0     0     0    
2019/08/23  09:42:00  BASE  0        130  1.029    88   -8.8  100   -8.8  0     0     1010.9   NA       0.0000   9999     0     0     0    
2019/08/23  09:43:00  BASE  0        134  0.93492  83   -8.8  100   -8.8  0     0     1010.9   NA       0.0000   9999     0     0     0    
2019/08/23  09:44:00  BASE  0        134  0.78792  85   -8.9  100   -8.9  0     0     1010.9   NA       0.0000   9999     0     0     0    
2019/08/23  09:45:00  BASE  0        134  0.78792  85   -9.0  100   -9.0  0     0     1010.9   NA       0.0000   9999     0     0     0    
2019/08/23  09:46:00  BASE  0        134  0.78792  85   -9.1  100   -9.1  0     0     1010.9   NA       0.0000   9999     0     0     0    
2019/08/23  09:47:00  BASE  0        131  0        M    -9.1  100   -9.1  0     0     1010.9   NA       0.0000   9999     0     0     0    
2019/08/23  09:48:00  BASE  0.441    126  1.63464  117  -9.1  100   -9.1  0     0     1010.9   NA       0.0000   9999     0     0     0    
2019/08/23  09:49:00  BASE  1.22304  123  1.90512  122  -9.1  100   -9.1  0     0     1010.9   NA       0.0000   9999     0     0     0    
2019/08/23  09:50:00  BASE  1.50528  121  1.90512  122  -9.1  100   -9.1  0     0     1010.9   NA       0.0000   9999     0     0     0    
2019/08/23  09:51:00  BASE  1.51116  125  1.90512  122  -9.1  100   -9.1  0     0     1010.9   NA       0.0000   9999     0     0     0    
2019/08/23  09:52:00  BASE  1.31124  124  1.90512  122  -9.1  100   -9.1  0     0     1010.9   NA       0.0000   9999     0     0     0    
2019/08/23  09:53:00  BASE  0.62328  102  1.90512  122  -9.1  100   -9.1  0     0     1010.9   NA       0.0000   9999     0     0     0    
2019/08/23  09:54:00  BASE  0.32928  63   1.90512  122  -9.1  100   -9.1  0     0     1010.9   NA       0.0000   9999     0     0     0    
2019/08/23  09:55:00  BASE  0.62328  26   1.90512  122  -9.2  100   -9.2  0     0     1010.9   NA       0.0000   9999     0     0     0    
2019/08/23  09:56:00  BASE  0.80556  14   1.90512  122  -9.2  100   -9.2  0     0     1010.9   NA       0.0000   9999     0     0     0    
2019/08/23  09:57:00  BASE  0.86436  24   1.90512  122  -9.3  100   -9.3  0     0     1010.9   NA       0.0000   9999     0     0     0    
2019/08/23  09:58:00  BASE  0.77028  31   1.90512  122  -9.3  100   -9.3  0     0     1010.9   NA       0.0000   9999     0     0     0    
2019/08/23  09:59:00  BASE  0.735    25   1.81692  123  -9.5  100   -9.5  0     0     1010.9   NA       0.0000   9999     0     0     0    
2019/08/23  10:00:00  BASE  0.78792  25   1.75224  126  -9.6  100   -9.6  0     0     1010.9   NA       0.0000   9999     0     0     0    
2019/08/23  10:01:00  BASE  0.81732  37   1.21128  115  -9.6  100   -9.6  0     0     1010.9   NA       0.0000   9999     0     0     0    
2019/08/23  10:02:00  BASE  0.81732  40   1.1172   42   -9.6  100   -9.6  0     0     1010.9   NA       0.0000   9999     0     0     0    
2019/08/23  10:03:00  BASE  0.78204  35   1.1172   42   -9.7  100   -9.7  0     0     1010.9   NA       0.0000   9999     0     0     0    
2019/08/23  10:04:00  BASE  0.84672  32   1.1172   42   -9.7  100   -9.7  0     0     1010.9   NA       0.0000   9999     0     0     0    
2019/08/23  10:05:00  BASE  0.82908  30   1.1172   42   -9.6  100   -9.6  0     0     1010.9   NA       0.0000   9999     0     0     0    
2019/08/23  10:06:00  BASE  0.77616  34   1.1172   42   -9.6  100   -9.6  0     0     1010.9   NA       0.0000   9999     0     0     0    
2019/08/23  10:07:00  BASE  0.87024  46   1.1466   50   -9.5  100   -9.5  0     0     1010.9   NA       0.0000   9999     0     0     0    
2019/08/23  10:08:00  BASE  1.07604  56   1.29948  61   -9.4  100   -9.4  0     0     1010.9   NA       0.0000   9999     0     0     0    
2019/08/23  10:09:00  BASE  1.18188  62   1.29948  61   -9.3  100   -9.3  0     0     1010.9   NA       0.0000   9999     0     0     0    
2019/08/23  10:10:00  BASE  1.15836  65   1.29948  61   -9.2  100   -9.2  0     0     1010.8   NA       0.0000   9999     0     0     0    
2019/08/23  10:11:00  BASE  1.05252  66   1.29948  61   -9.2  100   -9.2  0     0     1010.9   NA       0.0000   9999     0     0     0    
2019/08/23  10:12:00  BASE  0.94668  66   1.29948  61   -9.2  100   -9.2  0     0     1010.9   NA       0.0000   9999     0     0     0    
2019/08/23  10:13:00  BASE  0.86436  56   1.29948  61   -9.2  100   -9.2  0     0     1010.9   NA       0.0000   9999     0     0     0    
2019/08/23  10:14:00  BASE  0.87024  39   1.29948  61   -9.3  100   -9.3  0     0     1010.9   NA       0.0000   9999     0     0     0    
2019/08/23  10:15:00  BASE  0.96432  28   1.29948  61   -9.4  100   -9.4  0     0     1010.9   NA       0.0000   9999     0     0     0    
2019/08/23  10:16:00  BASE  1.00548  28   1.29948  61   -9.5  100   -9.5  0     0     1010.8   NA       0.0000   9999     0     0     0    
2019/08/23  10:17:00  BASE  1.029    29   1.29948  61   -9.6  100   -9.6  0     0     1010.8   NA       0.0000   9999     0     0     0    
2019/08/23  10:18:00  BASE  1.12896  30   1.24068  36   -9.7  100   -9.7  0     0     1010.8   NA       0.0000   9999     0     0     0    
2019/08/23  10:19:00  BASE  1.19364  26   1.24068  36   -9.7  100   -9.7  0     0     1010.8   NA       0.0000   9999     0     0     0    
2019/08/23  10:20:00  BASE  1.2054   17   1.24068  14   -9.7  100   -9.7  0     0     1010.8   NA       0.0000   9999     0     0     0    
2019/08/23  10:21:00  BASE  1.21128  14   1.24068  14   -9.8  100   -9.8  0     0     1010.8   NA       0.0000   9999     0     0     0    
2019/08/23  10:22:00  BASE  1.19952  14   1.24068  14   -9.9  100   -9.9  0     0     1010.8   NA       0.0000   9999     0     0     0    
2019/08/23  10:23:00  BASE  1.21716  13   1.24068  10   -9.9  100   -9.9  0     0     1010.8   NA       0.0000   9999     0     0     0    
2019/08/23  10:24:00  BASE  1.24068  10   1.27008  10   -10.0 100   -10.0 0     0     1010.8   NA       0.0000   9999     0     0     0    
2019/08/23  10:25:00  BASE  1.21716  6    1.27008  10   -10.0 100   -10.0 0     0     1010.8   NA       0.0000   9999     0     0     0    
2019/08/23  10:26:00  BASE  1.17012  4    1.27008  10   -9.9  100   -9.9  0     0     1010.8   NA       0.0000   9999     0     0     0    
2019/08/23  10:27:00  BASE  1.2054   6    1.29948  10   -9.9  100   -9.9  0     0     1010.8   NA       0.0000   9999     0     0     0    
2019/08/23  10:28:00  BASE  1.28184  9    1.32888  8    -9.9  100   -9.9  0     0     1010.8   NA       0.0000   9999     0     0     0    
2019/08/23  10:29:00  BASE  1.25244  9    1.32888  8    -9.8  100   -9.9  0     0     1010.8   NA       0.0000   9999     0     0     0    
2019/08/23  10:30:00  BASE  1.1466   10   1.32888  8    -9.9  100   -9.9  0     0     1010.8   NA       0.0000   9999     0     0     0    
2019/08/23  10:31:00  BASE  1.12308  13   1.32888  8    -9.9  100   -9.9  0     0     1010.8   NA       0.0000   9999     0     0     0    
2019/08/23  10:32:00  BASE  1.21128  14   1.35828  16   -10.0 100   -10.0 0     0     1010.8   NA       0.0000   9999     0     0     0    
2019/08/23  10:33:00  BASE  1.24656  6    1.48176  360  -10.1 100   -10.1 0     0     1010.8   NA       0.0000   9999     0     0     0    
2019/08/23  10:34:00  BASE  1.27008  358  1.48176  360  -10.2 100   -10.2 0     0     1010.8   NA       0.0000   9999     0     0     0    
2019/08/23  10:35:00  BASE  1.41708  353  1.72284  348  -10.3 100   -10.3 0     0     1010.9   NA       0.0000   9999     0     0     0    
2019/08/23  10:36:00  BASE  1.69344  347  1.96392  344  -10.3 100   -10.3 0     0     1010.9   NA       0.0000   9999     0     0     0    
2019/08/23  10:37:00  BASE  1.82868  341  1.9992   336  -10.3 100   -10.3 0     0     1010.9   NA       0.0000   9999     0     0     0    
2019/08/23  10:38:00  BASE  1.75812  340  1.9992   336  -10.3 100   -10.3 0     0     1010.9   NA       0.0000   9999     0     0     0    
2019/08/23  10:39:00  BASE  1.5876   340  1.9992   336  -10.3 100   -10.3 0     0     1010.9   NA       0.0000   9999     0     0     0    
2019/08/23  10:40:00  BASE  1.51116  338  1.9992   336  -10.3 100   -10.3 0     0     1010.8   NA       0.0000   9999     0     0     0    
2019/08/23  10:41:00  BASE  1.65228  337  1.9992   336  -10.2 100   -10.2 0     0     1010.8   NA       0.0000   9999     0     0     0    
2019/08/23  10:42:00  BASE  1.59348  335  1.9992   336  -10.2 100   -10.2 0     0     1010.8   NA       0.0000   9999     0     0     0    
2019/08/23  10:43:00  BASE  1.60524  338  1.9992   336  -10.2 100   -10.2 0     0     1010.8   NA       0.0000   9999     0     0     0    
2019/08/23  10:44:00  BASE  1.74048  345  1.9992   336  -10.1 100   -10.1 0     0     1010.8   NA       0.0000   9999     0     0     0    
2019/08/23  10:45:00  BASE  1.76988  347  2.21088  341  -10.1 100   -10.1 0     0     1010.8   NA       0.0000   9999     0     0     0    
2019/08/23  10:46:00  BASE  1.7346   349  2.21088  341  -10.1 100   -10.1 0     0     1010.8   NA       0.0000   9999     0     0     0    
2019/08/23  10:47:00  BASE  1.617    350  2.21088  341  -10.1 100   -10.1 0     0     1010.8   NA       0.0000   9999     0     0     0    
2019/08/23  10:48:00  BASE  1.48764  349  2.21088  341  -10.1 100   -10.1 0     0     1010.8   NA       0.0000   9999     0     0     0    
2019/08/23  10:49:00  BASE  1.38768  345  2.21088  341  -10.1 100   -10.1 0     0     1010.8   NA       0.0000   9999     0     0     0    
2019/08/23  10:50:00  BASE  1.4406   339  2.21088  341  -10.0 100   -10.0 0     0     1010.8   NA       0.0000   9999     0     0     0    
2019/08/23  10:51:00  BASE  1.4994   339  2.21088  341  -9.9  100   -9.9  0     0     1010.8   NA       0.0000   9999     0     0     0    
2019/08/23  10:52:00  BASE  1.39944  339  2.21088  341  -9.8  100   -9.8  0     0     1010.8   NA       0.0000   9999     0     0     0    
2019/08/23  10:53:00  BASE  1.37592  331  2.21088  341  -9.7  100   -9.7  0     0     1010.8   NA       0.0000   9999     0     0     0    
2019/08/23  10:54:00  BASE  1.52292  324  2.21088  341  -9.7  100   -9.7  0     0     1010.8   NA       0.0000   9999     0     0     0    
2019/08/23  10:55:00  BASE  1.4994   327  1.90512  346  -9.7  100   -9.7  0     0     1010.8   NA       0.0000   9999     0     0     0    
2019/08/23  10:56:00  BASE  1.47     329  1.81692  322  -9.7  100   -9.7  0     0     1010.9   NA       0.0000   9999     0     0     0    
2019/08/23  10:57:00  BASE  1.62876  323  1.84632  321  -9.7  100   -9.7  0     0     1010.9   NA       0.0000   9999     0     0     0    
2019/08/23  10:58:00  BASE  1.72284  321  1.90512  320  -9.8  100   -9.8  0     0     1010.9   NA       0.0000   9999     0     0     0    
2019/08/23  10:59:00  BASE  1.57584  325  1.90512  320  -9.8  100   -9.8  0     0     1010.9   NA       0.0000   9999     0     0     0    
2019/08/23  11:00:00  BASE  1.48764  324  1.90512  320  -9.8  100   -9.8  0     0     1010.9   NA       0.0000   9999     0     0     0    
2019/08/23  11:01:00  BASE  1.41708  329  1.90512  320  -9.9  100   -9.9  0     0     1010.9   NA       0.0000   9999     0     0     0    
2019/08/23  11:02:00  BASE  1.29948  335  1.90512  320  -10.0 100   -10.0 0     0     1010.9   NA       0.0000   9999     0     0     0    
2019/08/23  11:03:00  BASE  1.34652  332  1.90512  320  -10.0 100   -10.0 0     0     1010.9   NA       0.0000   9999     0     0     0    
2019/08/23  11:04:00  BASE  1.27596  339  1.90512  320  -10.0 100   -10.0 0     0     1010.9   NA       0.0000   9999     0     0     0    
2019/08/23  11:05:00  BASE  1.09368  352  1.90512  320  -9.9  100   -9.9  0     0     1010.9   NA       0.0000   9999     0     0     0    
2019/08/23  11:06:00  BASE  1.02312  356  1.90512  320  -9.9  100   -9.9  0     0     1010.9   NA       0.0000   9999     0     0     0    
2019/08/23  11:07:00  BASE  0.84672  355  1.90512  320  -9.9  100   -9.9  0     0     1010.9   NA       0.0000   9999     0     0     0    
2019/08/23  11:08:00  BASE  0.59388  359  1.69344  329  -9.8  100   -9.8  0     0     1010.9   NA       0.0000   9999     0     0     0    
2019/08/23  11:09:00  BASE  0.62916  353  1.69344  329  -9.7  100   -9.7  0     0     1010.9   NA       0.0000   9999     0     0     0    
2019/08/23  11:10:00  BASE  0.50568  352  1.69344  329  -9.6  100   -9.6  0     0     1010.9   NA       0.0000   9999     0     0     0    
2019/08/23  11:11:00  BASE  0.25872  12   1.54056  327  -9.5  100   -9.5  0     0     1010.9   NA       0.0000   9999     0     0     0    
2019/08/23  11:12:00  BASE  0.17052  22   1.51116  329  -9.4  100   -9.4  0     0     1010.8   NA       0.0000   9999     0     0     0    
2019/08/23  11:13:00  BASE  0.05292  25   1.24068  336  -9.3  100   -9.3  0     0     1010.8   NA       0.0000   9999     0     0     0    
2019/08/23  11:14:00  BASE  0        38   1.1466   354  -9.3  100   -9.3  0     0     1010.8   NA       0.0000   9999     0     0     0    
2019/08/23  11:15:00  BASE  0        23   1.1466   354  -9.3  100   -9.3  0     0     1010.8   NA       0.0000   9999     0     0     0    
2019/08/23  11:16:00  BASE  0        346  1.029    354  -9.3  100   -9.3  0     0     1010.9   NA       0.0000   9999     0     0     0    
2019/08/23  11:17:00  BASE  0        330  1.029    354  -9.2  100   -9.2  0     0     1010.9   NA       0.0000   9999     0     0     0    
2019/08/23  11:18:00  BASE  0        332  1.029    354  -9.2  100   -9.2  0     0     1010.9   NA       0.0000   9999     0     0     0    
2019/08/23  11:19:00  BASE  0        342  0.75852  118  -9.2  100   -9.3  0     0     1010.8   NA       0.0000   9999     0     0     0    
2019/08/23  11:20:00  BASE  0        359  0.75852  118  -9.3  100   -9.3  0     0     1010.8   NA       0.0000   9999     0     0     0    
2019/08/23  11:21:00  BASE  0        6    0.63504  17   -9.3  100   -9.3  0     0     1010.8   NA       0.0000   9999     0     0     0    
2019/08/23  11:22:00  BASE  0        360  0        M    -9.3  100   -9.3  0     0     1010.8   NA       0.0000   9999     0     0     0    
2019/08/23  11:23:00  BASE  0        354  0        M    -9.3  100   -9.3  0     0     1010.8   NA       0.0000   9999     0     0     0    
2019/08/23  11:24:00  BASE  0        358  0        M    -9.2  100   -9.2  0     0     1010.9   NA       0.0000   9999     0     0     0    
2019/08/23  11:25:00  BASE  0        0    0        M    -9.2  100   -9.2  0     0     1010.8   NA       0.0000   9999     0     0     0    
2019/08/23  11:26:00  BASE  0        2    0        M    -9.2  100   -9.2  0     0     1010.8   NA       0.0000   9999     0     0     0    
2019/08/23  11:27:00  BASE  0        17   0        M    -9.1  100   -9.1  0     0     1010.8   NA       0.0000   9999     0     0     0    
2019/08/23  11:28:00  BASE  0        30   0        M    -9.1  100   -9.1  0     0     1010.8   NA       0.0000   9999     0     0     0    
2019/08/23  11:29:00  BASE  0        20   0        M    -9.0  100   -9.0  0     0     1010.8   NA       0.0000   9999     0     0     0    
2019/08/23  11:30:00  BASE  0        1    0        M    -9.0  100   -9.0  1     0     1010.8   NA       0.0000   9999     0     0     0    
2019/08/23  11:31:00  BASE  0        357  0        M    -9.0  100   -9.0  1     0     1010.8   NA       0.0000   9999     0     0     0    
2019/08/23  11:32:00  BASE  0        0    0        M    -9.0  100   -9.0  1     0     1010.8   NA       0.0000   9999     0     0     0    
2019/08/23  11:33:00  BASE  0        0    0        M    -9.0  100   -9.0  1     0     1010.8   NA       0.0000   9999     0     0     0    
2019/08/23  11:34:00  BASE  0        0    0        M    -9.0  100   -9.0  1     0     1010.8   NA       0.0000   9999     0     0     0    
2019/08/23  11:35:00  BASE  0        0    0        M    -9.0  100   -9.0  1     0     1010.8   NA       0.0000   9999     0     0     0    
2019/08/23  11:36:00  BASE  0        0    0        M    -9.0  100   -9.0  1     0     1010.8   NA       0.0000   9999     0     0     0    
2019/08/23  11:37:00  BASE  0        0    0        M    -9.1  100   -9.1  1     0     1010.8   NA       0.0000   9999     0     0     0    
2019/08/23  11:38:00  BASE  0        0    0        M    -9.1  100   -9.1  1     0     1010.8   NA       0.0000   9999     0     0     0    
2019/08/23  11:39:00  BASE  0        3    0        M    -9.1  100   -9.1  1     0     1010.8   NA       0.0000   9999     0     0     0    
2019/08/23  11:40:00  BASE  0        357  0        M    -9.2  100   -9.2  1     0     1010.8   NA       0.0000   9999     0     0     0    
2019/08/23  11:41:00  BASE  0.15876  356  0.63504  7    -9.2  100   -9.2  2     0     1010.8   NA       0.0000   9999     0     0     0    
2019/08/23  11:42:00  BASE  0.2646   8    0.63504  18   -9.3  100   -9.3  2     0     1010.9   NA       0.0000   9999     0     0     0    
2019/08/23  11:43:00  BASE  0.15876  23   0.63504  32   -9.4  100   -9.4  2     0     1010.8   NA       0.0000   9999     0     0     0    
2019/08/23  11:44:00  BASE  0.18228  40   0.63504  60   -9.5  100   -9.5  2     0     1010.8   NA       0.0000   9999     0     0     0    
2019/08/23  11:45:00  BASE  0.30576  51   0.75852  61   -9.5  100   -9.5  2     0     1010.9   NA       0.0000   9999     0     0     0    
2019/08/23  11:46:00  BASE  0.3234   51   0.81732  46   -9.4  100   -9.4  3     0     1010.9   NA       0.0000   9999     0     0     0    
2019/08/23  11:47:00  BASE  0.19404  43   0.81732  46   -9.3  100   -9.3  3     0     1010.9   NA       0.0000   9999     0     0     0    
2019/08/23  11:48:00  BASE  0.05292  42   0.81732  46   -9.2  100   -9.2  3     0     1010.9   NA       0.0000   9999     0     0     0    
2019/08/23  11:49:00  BASE  0        47   0.81732  46   -9.2  100   -9.2  3     0     1010.9   NA       0.0000   9999     0     0     0    
2019/08/23  11:50:00  BASE  0        53   0.81732  46   -9.1  100   -9.1  4     0     1010.9   NA       0.0000   9999     0     0     0    
2019/08/23  11:51:00  BASE  0        58   0.81732  46   -9.1  100   -9.1  4     0     1010.9   NA       0.0000   9999     0     0     0    
2019/08/23  11:52:00  BASE  0        59   0.81732  46   -9.1  100   -9.1  4     0     1010.9   NA       0.0000   9999     0     0     0    
2019/08/23  11:53:00  BASE  0        64   0.81732  46   -9.0  100   -9.0  5     0     1010.9   NA       0.0000   9999     0     0     0    
2019/08/23  11:54:00  BASE  0        77   0.81732  46   -9.0  100   -9.0  5     0     1010.9   NA       0.0000   9999     0     0     0    
2019/08/23  11:55:00  BASE  0        100  0.81732  46   -8.9  100   -8.9  5     0     1010.9   NA       0.0000   9999     0     0     0    
2019/08/23  11:56:00  BASE  0        121  0.63504  44   -8.9  100   -8.9  6     0     1010.9   NA       0.0000   9999     660   0     0    
2019/08/23  11:57:00  BASE  0        122  0        M    -8.9  100   -8.9  6     0     1010.9   NA       0.0000   9999     660   0     0    
2019/08/23  11:58:00  BASE  0        117  0        M    -9.0  100   -9.0  7     0     1010.9   NA       0.0000   9999     690   0     0    
2019/08/23  11:59:00  BASE  0        123  0        M    -9.1  100   -9.1  7     0     1010.9   NA       0.0000   9999     0     0     0    
2019/08/23  12:00:00  BASE  0.19404  127  0.69384  117  -9.3  100   -9.3  8     0     1010.9   NA       0.0000   9999     620   0     0    
2019/08/23  12:01:00  BASE  0.46452  119  0.69384  113  -9.5  100   -9.5  8     0     1010.9   NA       0.0000   9999     0     0     0    
2019/08/23  12:02:00  BASE  0.27048  114  0.69384  113  -9.6  100   -9.6  9     0     1010.9   NA       0.0000   9999     0     0     0    
2019/08/23  12:03:00  BASE  0        111  0.69384  113  -9.6  100   -9.6  9     0     1010.9   NA       0.0000   9999     0     0     0    
2019/08/23  12:04:00  BASE  0        110  0.69384  113  -9.5  100   -9.5  10    0     1010.9   NA       0.0000   9999     0     0     0    
2019/08/23  12:05:00  BASE  0        112  0.69384  113  -9.4  100   -9.4  10    0     1010.9   NA       0.0000   9999     560   0     0    
2019/08/23  12:06:00  BASE  0        118  0.69384  113  -9.2  100   -9.2  11    0     1010.9   NA       0.0000   9999     560   0     0    
2019/08/23  12:07:00  BASE  0        121  0.69384  113  -9.2  100   -9.2  11    0     1010.9   NA       0.0000   9999     590   0     0    
2019/08/23  12:08:00  BASE  0        122  0.69384  113  -9.3  100   -9.3  12    0     1010.9   NA       0.0000   9999     590   0     0    
2019/08/23  12:09:00  BASE  0        123  0.69384  113  -9.5  100   -9.5  13    0     1011.0   NA       0.0000   9999     560   0     0    
2019/08/23  12:10:00  BASE  0        127  0.69384  113  -9.7  100   -9.7  13    0     1011.1   NA       0.0000   9999     0     0     0    
2019/08/23  12:11:00  BASE  0        138  0        M    -9.9  100   -9.9  14    0     1011.1   NA       0.0000   9999     0     0     0    
2019/08/23  12:12:00  BASE  0        151  0        M    -10.0 100   -10.0 14    0     1011.1   NA       0.0000   9999     0     0     0    
2019/08/23  12:13:00  BASE  0        156  0        M    -10.0 100   -10.0 15    0     1011.1   NA       0.0000   9999     0     0     0    
2019/08/23  12:14:00  BASE  0        156  0        M    -9.9  100   -9.9  15    0     1011.1   NA       0.0000   9999     0     0     0    
2019/08/23  12:15:00  BASE  0        156  0        M    -9.8  100   -9.8  16    0     1011.1   NA       0.0000   9999     660   0     0    
2019/08/23  12:16:00  BASE  0        156  0        M    -9.7  100   -9.7  17    0     1011.1   NA       0.0000   9999     660   0     0    
2019/08/23  12:17:00  BASE  0        156  0        M    -9.6  100   -9.6  17    0     1011.1   NA       0.0000   9999     660   0     0    
2019/08/23  12:18:00  BASE  0        155  0        M    -9.5  100   -9.5  18    0     1011.1   NA       0.0000   9999     620   0     0    
2019/08/23  12:19:00  BASE  0        135  0        M    -9.4  100   -9.4  18    0     1011.1   NA       0.0000   9999     590   0     0    
2019/08/23  12:20:00  BASE  0        111  0        M    -9.4  100   -9.4  19    0     1011.1   NA       0.0000   9999     620   0     0    
2019/08/23  12:21:00  BASE  0        103  0        M    -9.4  100   -9.4  20    0     1011.1   NA       0.0000   9999     660   0     0    
2019/08/23  12:22:00  BASE  0        101  0        M    -9.4  100   -9.4  20    0     1011.1   NA       0.0000   9999     590   0     0    
2019/08/23  12:23:00  BASE  0        95   0        M    -9.3  100   -9.3  21    0     1011.1   NA       0.0000   9999     590   0     0    
2019/08/23  12:24:00  BASE  0        82   0        M    -9.2  100   -9.2  21    0     1011.0   NA       0.0000   9999     590   0     0    
2019/08/23  12:25:00  BASE  0        61   0        M    -9.2  100   -9.2  22    0     1011.1   NA       0.0000   9999     620   0     0    
2019/08/23  12:26:00  BASE  0.294    41   0.87612  35   -9.2  100   -9.2  23    0     1011.1   NA       0.0000   9999     660   0     0    
2019/08/23  12:27:00  BASE  0.42924  34   0.87612  35   -9.3  100   -9.3  23    0     1011.1   NA       0.0000   9999     660   0     0    
2019/08/23  12:28:00  BASE  0.13524  36   0.87612  35   -9.3  100   -9.3  24    0     1011.0   NA       0.0000   9999     660   0     0    
2019/08/23  12:29:00  BASE  0        42   0.87612  35   -9.4  100   -9.4  24    0     1011.0   NA       0.0000   9999     0     0     0    
2019/08/23  12:30:00  BASE  0        50   0.87612  35   -9.4  100   -9.4  25    0     1011.1   NA       0.0000   9999     0     0     0    
2019/08/23  12:31:00  BASE  0        54   0.87612  35   -9.3  100   -9.3  25    0     1011.1   NA       0.0000   9999     0     0     0    
2019/08/23  12:32:00  BASE  0        54   0.87612  35   -9.1  100   -9.1  26    0     1011.1   NA       0.0000   9999     0     0     0    
2019/08/23  12:33:00  BASE  0        71   0.87612  35   -9.0  100   -9.0  27    0     1011.1   NA       0.0000   9999     0     0     0    
2019/08/23  12:34:00  BASE  0        105  0.87612  35   -8.9  100   -8.9  27    0     1011.1   NA       0.0000   9999     0     0     0    
2019/08/23  12:35:00  BASE  0        117  0.87612  35   -8.9  100   -8.9  28    0     1011.1   NA       0.0000   9999     0     0     0    
2019/08/23  12:36:00  BASE  0        117  0.72324  34   -8.9  100   -8.9  28    0     1011.1   NA       0.0000   9999     0     0     0    
2019/08/23  12:37:00  BASE  0        117  0        M    -8.9  100   -8.9  29    0     1011.1   NA       0.0000   9999     0     0     0    
2019/08/23  12:38:00  BASE  0        117  0        M    -8.9  100   -8.9  30    0     1011.1   NA       0.0000   9999     0     0     0    
2019/08/23  12:39:00  BASE  0.15288  120  0.63504  125  -9.0  100   -9.0  30    0     1011.0   NA       0.0000   9999     0     0     0    
2019/08/23  12:40:00  BASE  0.51156  126  0.81732  132  -9.0  100   -9.0  31    0     1010.9   NA       0.0000   9999     0     0     0    
2019/08/23  12:41:00  BASE  0.77028  131  0.84672  135  -9.0  100   -9.0  32    0     1010.9   NA       0.0000   9999     0     0     0    
2019/08/23  12:42:00  BASE  0.84084  135  0.93492  140  -9.1  100   -9.1  32    0     1010.9   NA       0.0000   9999     0     0     0    
2019/08/23  12:43:00  BASE  0.91728  139  1.029    141  -9.1  100   -9.1  33    0     1010.9   NA       0.0000   9999     0     0     0    
2019/08/23  12:44:00  BASE  1.03488  141  1.1172   140  -9.1  100   -9.1  34    0     1010.9   NA       0.0000   9999     0     0     0    
2019/08/23  12:45:00  BASE  1.029    139  1.1172   140  -9.1  100   -9.1  35    0     1010.9   NA       0.0000   9999     0     0     0    
2019/08/23  12:46:00  BASE  0.93492  138  1.1172   140  -9.1  100   -9.1  36    0     1010.9   NA       0.0000   9999     0     0     0    
2019/08/23  12:47:00  BASE  0.93492  137  1.1172   140  -9.1  100   -9.1  37    0     1010.9   NA       0.0000   9999     0     0     0    
2019/08/23  12:48:00  BASE  0.98784  137  1.1172   140  -9.0  100   -9.0  38    0     1010.9   NA       0.0000   9999     0     0     0    
2019/08/23  12:49:00  BASE  1.00548  136  1.1172   140  -8.9  100   -8.9  39    0     1010.9   NA       0.0000   9999     0     0     0    
2019/08/23  12:50:00  BASE  1.02312  135  1.1172   140  -8.9  100   -8.9  41    0     1010.9   NA       0.0000   9999     0     0     0    
2019/08/23  12:51:00  BASE  1.029    133  1.1172   140  -8.8  100   -8.8  42    0     1010.9   NA       0.0000   9999     0     0     0    
2019/08/23  12:52:00  BASE  1.03488  129  1.1172   128  -8.8  100   -8.8  42    0     1010.9   NA       0.0000   9999     0     0     0    
2019/08/23  12:53:00  BASE  1.11132  128  1.29948  128  -8.7  100   -8.7  43    0     1010.9   NA       0.0000   9999     0     0     0    
2019/08/23  12:54:00  BASE  1.19364  127  1.29948  128  -8.7  100   -8.7  44    0     1010.9   NA       0.0000   9999     0     0     0    
2019/08/23  12:55:00  BASE  1.22892  126  1.42296  122  -8.7  100   -8.7  45    0     1010.9   NA       0.0000   9999     0     0     0    
2019/08/23  12:56:00  BASE  1.35828  122  1.57584  121  -8.7  100   -8.7  45    0     1010.9   NA       0.0000   9999     0     0     0    
2019/08/23  12:57:00  BASE  1.45824  118  1.57584  121  -8.7  100   -8.7  46    0     1010.9   NA       0.0000   9999     0     0     0    
2019/08/23  12:58:00  BASE  1.43472  120  1.57584  121  -8.8  100   -8.8  47    0     1010.9   NA       0.0000   9999     0     0     0    
2019/08/23  12:59:00  BASE  1.49352  124  1.63464  126  -8.8  100   -8.8  48    0     1010.9   NA       0.0000   9999     0     0     0    
2019/08/23  13:00:00  BASE  1.68756  126  1.96392  129  -8.9  100   -8.9  48    0     1010.9   NA       0.0000   9999     0     0     0    
2019/08/23  13:01:00  BASE  1.81692  127  1.96392  129  -8.8  100   -8.8  49    0     1010.9   NA       0.0000   9999     0     0     0    
2019/08/23  13:02:00  BASE  1.86396  127  1.96392  130  -8.8  100   -8.8  50    0     1010.9   NA       0.0000   9999     0     0     0    
2019/08/23  13:03:00  BASE  1.92276  128  2.1462   127  -8.7  100   -8.7  51    0     1010.9   NA       0.0000   9999     0     0     0    
2019/08/23  13:04:00  BASE  1.75812  130  2.1462   127  -8.6  100   -8.6  52    0     1010.9   NA       0.0000   9999     0     0     0    
2019/08/23  13:05:00  BASE  1.6464   133  2.1462   127  -8.5  100   -8.5  52    0     1010.9   NA       0.0000   9999     0     0     0    
2019/08/23  13:06:00  BASE  1.65228  137  2.1462   127  -8.4  100   -8.4  53    0     1010.9   NA       0.0000   9999     0     0     0    
2019/08/23  13:07:00  BASE  1.4994   140  2.1462   127  -8.2  100   -8.2  53    0     1010.9   NA       0.0000   9999     0     0     0    
2019/08/23  13:08:00  BASE  1.55232  148  2.1462   127  -8.0  100   -8.0  53    0     1010.9   NA       0.0000   9999     0     0     0    
2019/08/23  13:09:00  BASE  1.8816   158  2.45196  163  -7.9  100   -7.9  53    0     1010.9   NA       0.0000   9999     0     0     0    
2019/08/23  13:10:00  BASE  1.98156  162  2.45196  163  -7.8  100   -7.8  54    0     1010.9   NA       0.0000   9999     0     0     0    
2019/08/23  13:11:00  BASE  1.52292  159  2.45196  163  -7.8  100   -7.8  54    0     1010.9   NA       0.0000   9999     0     0     0    
2019/08/23  13:12:00  BASE  0.98784  151  2.45196  163  -8.0  100   -8.0  54    0     1010.9   NA       0.0000   9999     0     0     0    
2019/08/23  13:13:00  BASE  0.735    141  2.45196  163  -8.2  100   -8.2  54    0     1011.0   NA       0.0000   9999     0     0     0    
2019/08/23  13:14:00  BASE  0.75264  148  2.45196  163  -8.2  100   -8.2  54    0     1011.0   NA       0.0000   9999     0     0     0    
2019/08/23  13:15:00  BASE  1.02312  167  2.45196  163  -8.3  100   -8.3  55    0     1011.0   NA       0.0000   9999     0     0     0    
2019/08/23  13:16:00  BASE  1.15836  179  2.45196  163  -8.5  100   -8.5  55    0     1011.0   NA       0.0000   9999     0     0     0    
2019/08/23  13:17:00  BASE  1.10544  175  2.45196  163  -8.8  100   -8.8  56    0     1011.1   NA       0.0000   9999     0     0     0    
2019/08/23  13:18:00  BASE  1.03488  155  2.45196  163  -8.9  100   -8.9  56    0     1011.1   NA       0.0000   9999     0     0     0    
2019/08/23  13:19:00  BASE  1.3524   149  2.35788  165  -9.1  100   -9.1  57    0     1011.0   NA       0.0000   9999     0     0     0    
2019/08/23  13:20:00  BASE  1.52292  148  2.35788  165  -9.3  100   -9.3  58    0     1011.0   NA       0.0000   9999     0     0     0    
2019/08/23  13:21:00  BASE  1.19952  130  2.35788  165  -9.2  100   -9.2  59    0     1011.0   NA       0.0000   9999     0     0     0    
2019/08/23  13:22:00  BASE  1.09368  111  2.35788  165  -9.0  100   -9.0  61    0     1011.0   NA       0.0000   9999     0     0     0    
2019/08/23  13:23:00  BASE  0.9996   99   2.35788  165  -8.8  100   -8.8  62    0     1011.0   NA       0.0000   9999     0     0     0    
2019/08/23  13:24:00  BASE  0.94668  91   2.35788  165  -8.5  100   -8.5  63    0     1011.0   NA       0.0000   9999     0     0     0    
2019/08/23  13:25:00  BASE  0.96432  105  2.35788  165  -8.3  100   -8.3  65    0     1010.9   NA       0.0000   9999     0     0     0    
2019/08/23  13:26:00  BASE  0.9702   126  2.35788  165  -8.1  100   -8.1  67    0     1011.0   NA       0.0000   9999     0     0     0    
2019/08/23  13:27:00  BASE  0.87612  110  2.35788  165  -7.9  100   -7.9  68    0     1011.1   NA       0.0000   9999     0     0     0    
2019/08/23  13:28:00  BASE  0.75852  78   2.35788  165  -7.8  100   -7.8  69    0     1011.1   NA       0.0000   9999     0     0     0    
2019/08/23  13:29:00  BASE  0.92904  71   1.51116  152  -7.9  100   -7.9  70    0     1011.1   NA       0.0000   9999     0     0     0    
2019/08/23  13:30:00  BASE  1.0878   84   1.42296  95   -7.9  100   -7.9  70    0     1011.1   NA       0.0000   9999     0     0     0    
2019/08/23  13:31:00  BASE  0.92904  104  1.42296  95   -8.0  100   -8.0  70    0     1011.1   NA       0.0000   9999     0     0     0    
2019/08/23  13:32:00  BASE  0.67032  117  1.42296  95   -8.1  100   -8.1  70    0     1011.1   NA       0.0000   9999     0     0     0    
2019/08/23  13:33:00  BASE  0.32928  117  1.42296  95   -8.1  100   -8.1  69    0     1011.1   NA       0.0000   9999     0     0     0    
2019/08/23  13:34:00  BASE  0.05292  123  1.24068  87   -8.0  100   -8.0  69    0     1011.0   NA       0.0000   9999     0     0     0    
2019/08/23  13:35:00  BASE  0.06468  115  1.24068  87   -8.0  100   -8.0  69    0     1010.9   NA       0.0000   9999     0     0     0    
2019/08/23  13:36:00  BASE  0.40572  83   1.24068  87   -8.0  100   -8.0  71    0     1010.9   NA       0.0000   9999     0     0     0    
2019/08/23  13:37:00  BASE  0.34104  79   1.24068  87   -7.9  100   -7.9  72    0     1010.9   NA       0.0000   9999     0     0     0    
2019/08/23  13:38:00  BASE  0.24696  92   1.24068  87   -8.0  100   -8.0  73    0     1010.9   NA       0.0000   9999     0     0     0    
2019/08/23  13:39:00  BASE  0.294    108  1.24068  87   -7.9  100   -7.9  73    0     1010.9   NA       0.0000   9999     0     0     0    
2019/08/23  13:40:00  BASE  0.14112  116  1.0878   119  -7.9  100   -7.9  74    0     1010.9   NA       0.0000   9999     0     0     0    
2019/08/23  13:41:00  BASE  0.21168  98   1.0878   119  -7.9  100   -7.9  75    0     1010.9   NA       0.0000   9999     0     0     0    
2019/08/23  13:42:00  BASE  0.28812  82   0.87612  86   -7.8  100   -7.8  76    0     1010.9   NA       0.0000   9999     0     0     0    
2019/08/23  13:43:00  BASE  0.16464  79   0.87612  86   -7.8  100   -7.8  78    0     1010.9   NA       0.0000   9999     0     0     0    
2019/08/23  13:44:00  BASE  0        94   0.87612  86   -7.8  100   -7.8  80    0     1010.9   NA       0.0000   9999     0     0     0    
2019/08/23  13:45:00  BASE  0        105  0.87612  86   -7.9  100   -7.9  81    0     1010.9   NA       0.0000   9999     0     0     0    
2019/08/23  13:46:00  BASE  0        110  0.87612  86   -8.0  100   -8.0  83    0     1010.9   NA       0.0000   9999     0     0     0    
2019/08/23  13:47:00  BASE  0.12936  145  0.87612  86   -8.0  100   -8.0  84    0     1010.9   NA       0.0000   9999     0     0     0    
2019/08/23  13:48:00  BASE  0.12936  144  0.84672  173  -8.0  100   -8.0  85    0     1010.9   NA       0.0000   9999     0     0     0    
2019/08/23  13:49:00  BASE  0        83   0.84672  173  -8.0  100   -8.0  87    0     1010.9   NA       0.0000   9999     0     0     0    
2019/08/23  13:50:00  BASE  0        54   0.84672  173  -8.0  100   -8.0  89    0     1010.9   NA       0.0000   9999     0     0     0    
2019/08/23  13:51:00  BASE  0        62   0.84672  173  -7.9  100   -7.9  91    0     1010.9   NA       0.0000   9999     0     0     0    
2019/08/23  13:52:00  BASE  0        98   0.84672  173  -7.8  100   -7.8  93    0     1010.9   NA       0.0000   9999     0     0     0    
2019/08/23  13:53:00  BASE  0        120  0.84672  173  -7.8  100   -7.8  94    0     1010.9   NA       0.0000   9999     0     0     0    
2019/08/23  13:54:00  BASE  0        132  0.84672  173  -7.7  100   -7.7  94    0     1010.9   NA       0.0000   9999     0     0     0    
2019/08/23  13:55:00  BASE  0        139  0.84672  173  -7.7  100   -7.7  94    0     1010.9   NA       0.0000   9999     0     0     0    
2019/08/23  13:56:00  BASE  0.4998   107  1.39356  83   -7.7  100   -7.7  94    0     1010.9   NA       0.0000   9999     0     0     0    
2019/08/23  13:57:00  BASE  0.8232   83   1.39356  83   -7.7  100   -7.7  95    0     1011.0   NA       0.0000   9999     0     0     0    
2019/08/23  13:58:00  BASE  0.62916  74   1.39356  83   -7.8  100   -7.8  96    0     1011.0   NA       0.0000   9999     0     0     0    
2019/08/23  13:59:00  BASE  0.29988  78   1.39356  83   -7.8  100   -7.8  97    0     1011.0   NA       0.0000   9999     0     0     0    
2019/08/23  14:00:00  BASE  0        104  1.39356  83   -7.8  100   -7.8  98    0     1011.1   NA       0.0000   9999     0     0     0    
2019/08/23  14:01:00  BASE  0.22344  144  1.39356  83   -7.8  100   -7.8  97    0     1011.1   NA       0.0000   9999     0     0     0    
2019/08/23  14:02:00  BASE  0.43512  168  1.39356  83   -7.8  100   -7.8  97    0     1011.1   NA       0.0000   9999     0     0     0    
2019/08/23  14:03:00  BASE  0.294    165  1.39356  83   -7.8  100   -7.8  97    0     1011.1   NA       0.0000   9999     0     0     0    
2019/08/23  14:04:00  BASE  0.3822   142  1.39356  83   -7.9  100   -7.9  99    0     1011.2   NA       0.0000   9999     0     0     0    
2019/08/23  14:05:00  BASE  0.29988  142  1.39356  83   -7.9  100   -7.9  100   0     1011.3   NA       0.0000   9999     0     0     0    
2019/08/23  14:06:00  BASE  0        193  1.21128  179  -8.0  100   -8.0  102   0     1011.3   NA       0.0000   9999     0     0     0    
2019/08/23  14:07:00  BASE  0.34692  215  1.21128  179  -8.2  100   -8.2  103   0     1011.3   NA       0.0000   9999     0     0     0    
2019/08/23  14:08:00  BASE  0.72912  218  1.21128  179  -8.3  100   -8.3  105   0     1011.3   NA       0.0000   9999     0     0     0    
2019/08/23  14:09:00  BASE  0.4116   212  1.21128  179  -8.5  100   -8.5  107   0     1011.3   NA       0.0000   9999     0     0     0    
2019/08/23  14:10:00  BASE  0.38808  195  1.21128  179  -8.7  100   -8.7  110   0     1011.3   NA       0.0000   9999     0     0     0    
2019/08/23  14:11:00  BASE  0.81732  176  1.21128  179  -8.8  100   -8.8  111   0     1011.3   NA       0.0000   9999     0     0     0    
2019/08/23  14:12:00  BASE  0.9702   175  1.21128  189  -8.9  100   -8.9  113   1     1011.3   NA       0.0000   9999     0     0     0    
2019/08/23  14:13:00  BASE  1.04664  183  1.21128  189  -8.9  100   -8.9  114   0     1011.3   NA       0.0000   9999     0     0     0    
2019/08/23  14:14:00  BASE  1.029    178  1.21128  189  -8.9  100   -8.9  115   0     1011.3   NA       0.0000   9999     0     0     0    
2019/08/23  14:15:00  BASE  1.05252  166  1.21128  189  -8.9  100   -8.9  117   1     1011.3   NA       0.0000   9999     0     0     0    
2019/08/23  14:16:00  BASE  0.94668  143  1.21128  189  -8.9  100   -8.9  117   0     1011.4   NA       0.0000   9999     0     0     0    
2019/08/23  14:17:00  BASE  0.42924  110  1.21128  189  -9.0  100   -9.0  118   1     1011.4   NA       0.0000   9999     0     0     0    
2019/08/23  14:18:00  BASE  0.39396  88   1.21128  189  -9.0  100   -9.0  119   0     1011.4   NA       0.0000   9999     0     0     0    
2019/08/23  14:19:00  BASE  0.42336  86   1.21128  189  -9.0  100   -9.0  120   0     1011.4   NA       0.0000   9999     0     0     0    
2019/08/23  14:20:00  BASE  0.60564  73   1.48176  61   -9.0  100   -9.0  120   0     1011.4   NA       0.0000   9999     0     0     0    
2019/08/23  14:21:00  BASE  1.18188  59   1.48176  61   -9.0  100   -9.0  121   0     1011.3   NA       0.0000   9999     0     0     0    
2019/08/23  14:22:00  BASE  1.18188  53   1.48176  61   -9.0  100   -9.0  122   0     1011.4   NA       0.0000   9999     0     0     0    
2019/08/23  14:23:00  BASE  1.2642   50   1.54056  49   -9.0  100   -9.0  123   0     1011.5   NA       0.0000   9999     0     0     0    
2019/08/23  14:24:00  BASE  1.42296  48   1.54056  49   -9.2  100   -9.2  123   1     1011.5   NA       0.0000   9999     0     0     0    
2019/08/23  14:25:00  BASE  1.36416  39   1.54056  49   -9.4  100   -9.4  123   0     1011.5   NA       0.0000   9999     0     0     0    
2019/08/23  14:26:00  BASE  1.21716  27   1.54056  49   -9.6  100   -9.6  123   0     1011.5   NA       0.0000   9999     0     0     0    
2019/08/23  14:27:00  BASE  1.13484  9    1.54056  49   -9.8  100   -9.8  123   0     1011.5   NA       0.0000   9999     0     0     0    
2019/08/23  14:28:00  BASE  1.25244  343  1.69344  327  -9.9  100   -9.9  123   1     1011.5   NA       0.0000   9999     0     0     0    
2019/08/23  14:29:00  BASE  1.5582   330  1.96392  333  -9.8  100   -9.8  124   0     1011.5   NA       0.0000   9999     0     0     0    
2019/08/23  14:30:00  BASE  1.91688  325  2.51076  325  -9.7  100   -9.7  124   2     1011.5   NA       0.0000   9999     0     0     0    
2019/08/23  14:31:00  BASE  2.09328  324  2.51076  325  -9.5  100   -9.5  124   0     1011.5   NA       0.0000   9999     0     0     0    
2019/08/23  14:32:00  BASE  2.15796  332  2.56956  335  -9.4  100   -9.4  124   2     1011.5   NA       0.0000   9999     0     0     0    
2019/08/23  14:33:00  BASE  2.4108   337  2.78124  337  -9.4  100   -9.4  125   0     1011.6   NA       0.0000   9999     0     0     0    
2019/08/23  14:34:00  BASE  2.52252  339  2.78124  337  -9.5  100   -9.5  126   0     1011.6   NA       0.0000   9999     0     0     0    
2019/08/23  14:35:00  BASE  2.24616  338  2.78124  337  -9.5  100   -9.5  126   2     1011.6   NA       0.0000   9999     0     0     0    
2019/08/23  14:36:00  BASE  2.11092  336  2.78124  337  -9.6  100   -9.6  125   2     1011.6   NA       0.0000   9999     0     0     0    
2019/08/23  14:37:00  BASE  2.12856  338  2.78124  337  -9.6  100   -9.6  125   0     1011.6   NA       0.0000   9999     0     0     0    
2019/08/23  14:38:00  BASE  1.911    347  2.78124  337  -9.6  100   -9.6  124   0     1011.6   NA       0.0000   9999     0     0     0    
2019/08/23  14:39:00  BASE  1.61112  351  2.78124  337  -9.6  100   -9.6  125   2     1011.6   NA       0.0000   9999     0     0     0    
2019/08/23  14:40:00  BASE  1.39944  350  2.78124  337  -9.6  100   -9.6  124   0     1011.5   NA       0.0000   9999     0     0     0    
2019/08/23  14:41:00  BASE  1.31712  349  2.78124  337  -9.6  100   -9.6  124   0     1011.6   NA       0.0000   9999     0     0     0    
2019/08/23  14:42:00  BASE  1.30536  351  2.78124  337  -9.6  100   -9.6  124   0     1011.6   NA       0.0000   9999     0     0     0    
2019/08/23  14:43:00  BASE  1.28184  359  2.56956  340  -9.5  100   -9.5  122   0     1011.5   NA       0.0000   9999     0     0     0    
2019/08/23  14:44:00  BASE  1.24068  6    2.32848  336  -9.5  100   -9.5  122   0     1011.5   NA       0.0000   9999     0     0     0    
2019/08/23  14:45:00  BASE  1.18188  7    2.32848  336  -9.5  100   -9.5  120   0     1011.5   NA       0.0000   9999     0     0     0    
2019/08/23  14:46:00  BASE  1.0878   7    2.26968  338  -9.4  100   -9.4  120   0     1011.5   NA       0.0000   9999     0     0     0    
2019/08/23  14:47:00  BASE  0.84084  12   1.81692  351  -9.5  100   -9.5  119   0     1011.5   NA       0.0000   9999     0     0     0    
2019/08/23  14:48:00  BASE  0.40572  24   1.57584  349  -9.5  100   -9.5  120   1     1011.5   NA       0.0000   9999     0     0     0    
2019/08/23  14:49:00  BASE  0.07644  31   1.48176  350  -9.5  100   -9.5  120   0     1011.5   NA       0.0000   9999     0     0     0    
2019/08/23  14:50:00  BASE  0        16   1.48176  350  -9.5  100   -9.5  120   0     1011.5   NA       0.0000   9999     0     0     0    
2019/08/23  14:51:00  BASE  0        349  1.42296  3    -9.5  100   -9.5  122   0     1011.5   NA       0.0000   9999     0     0     0    
2019/08/23  14:52:00  BASE  0        335  1.42296  3    -9.5  100   -9.5  123   1     1011.5   NA       0.0000   9999     0     0     0    
2019/08/23  14:53:00  BASE  0        334  1.27008  8    -9.5  100   -9.5  123   0     1011.5   NA       0.0000   9999     0     0     0    
2019/08/23  14:54:00  BASE  0        357  1.21128  5    -9.5  100   -9.5  123   3     1011.5   NA       0.0000   9999     0     0     0    
2019/08/23  14:55:00  BASE  0        60   1.18188  3    -9.4  100   -9.4  124   0     1011.5   NA       0.0000   9999     0     0     0    
2019/08/23  14:56:00  BASE  0.10584  88   0.84672  12   -9.3  100   -9.3  124   0     1011.5   NA       0.0000   9999     0     0     0    
2019/08/23  14:57:00  BASE  0.441    90   0.78792  92   -9.1  100   -9.1  125   0     1011.5   NA       0.0000   9999     0     0     0    
2019/08/23  14:58:00  BASE  0.441    92   0.78792  92   -8.9  100   -8.9  125   0     1011.5   NA       0.0000   9999     0     0     0    
2019/08/23  14:59:00  BASE  0.27636  95   0.78792  92   -8.7  100   -8.7  127   0     1011.5   NA       0.0000   9999     0     0     0    
2019/08/23  15:00:00  BASE  0.51156  99   0.78792  100  -8.6  100   -8.6  128   0     1011.5   NA       0.0000   9999     0     0     0    
2019/08/23  15:01:00  BASE  0.34104  99   0.78792  100  -8.6  100   -8.6  130   0     1011.4   NA       0.0000   9999     0     0     0    
2019/08/23  15:02:00  BASE  0        95   0.78792  100  -8.6  100   -8.6  130   0     1011.4   NA       0.0000   9999     0     0     0    
2019/08/23  15:03:00  BASE  0.05292  117  0.78792  100  -8.6  100   -8.6  129   2     1011.4   NA       0.0000   9999     0     0     0    
2019/08/23  15:04:00  BASE  0.35868  158  1.029    176  -8.7  100   -8.7  130   3     1011.3   NA       0.0000   9999     0     0     0    
2019/08/23  15:05:00  BASE  0.92316  171  1.51116  169  -8.8  100   -8.8  132   0     1011.3   NA       0.0000   9999     0     0     0    
2019/08/23  15:06:00  BASE  1.37592  169  1.81692  163  -8.8  100   -8.8  134   2     1011.3   NA       0.0000   9999     0     0     0    
2019/08/23  15:07:00  BASE  1.37004  165  1.81692  163  -8.9  100   -8.9  135   0     1011.3   NA       0.0000   9999     0     0     0    
2019/08/23  15:08:00  BASE  1.34652  158  1.90512  148  -8.9  100   -8.9  135   0     1011.2   NA       0.0000   9999     0     0     0    
2019/08/23  15:09:00  BASE  1.68756  151  2.26968  143  -8.9  100   -8.9  135   0     1011.1   NA       0.0000   9999     0     0     0    
2019/08/23  15:10:00  BASE  2.02272  147  2.35788  143  -8.9  100   -8.9  135   0     1011.1   NA       0.0000   9999     0     0     0    
2019/08/23  15:11:00  BASE  2.0874   148  2.35788  143  -8.8  100   -8.8  137   0     1011.1   NA       0.0000   9999     0     0     0    
2019/08/23  15:12:00  BASE  2.01096  154  2.35788  143  -8.8  100   -8.8  139   0     1011.1   NA       0.0000   9999     0     0     0    
2019/08/23  15:13:00  BASE  1.95216  158  2.35788  143  -8.8  100   -8.8  138   0     1011.1   NA       0.0000   9999     0     0     0    
2019/08/23  15:14:00  BASE  1.87572  160  2.35788  143  -8.8  100   -8.8  139   0     1011.1   NA       0.0000   9999     0     0     0    
2019/08/23  15:15:00  BASE  1.77576  163  2.35788  143  -8.9  100   -8.9  140   0     1011.1   NA       0.0000   9999     0     0     0    
2019/08/23  15:16:00  BASE  1.9698   158  2.56956  149  -8.9  100   -8.9  140   0     1011.1   NA       0.0000   9999     0     0     0    
2019/08/23  15:17:00  BASE  2.13444  155  2.56956  145  -8.9  100   -8.9  140   2     1011.0   NA       0.0000   9999     0     0     0    
2019/08/23  15:18:00  BASE  2.09916  157  2.56956  145  -8.9  100   -8.9  142   0     1010.9   NA       0.0000   9999     0     0     0    
2019/08/23  15:19:00  BASE  1.93452  156  2.56956  145  -8.7  100   -8.7  142   2     1010.9   NA       0.0000   9999     0     0     0    
2019/08/23  15:20:00  BASE  1.60524  160  2.56956  145  -8.6  100   -8.6  142   2     1010.9   NA       0.0000   9999     0     0     0    
2019/08/23  15:21:00  BASE  1.42884  159  2.56956  145  -8.5  100   -8.5  142   1     1010.9   NA       0.0000   9999     0     0     0    
2019/08/23  15:22:00  BASE  1.45236  150  2.56956  145  -8.4  100   -8.4  143   0     1010.9   NA       0.0000   9999     0     0     0    
2019/08/23  15:23:00  BASE  1.28184  135  2.56956  145  -8.4  100   -8.4  144   0     1010.9   NA       0.0000   9999     0     0     0    
2019/08/23  15:24:00  BASE  1.12308  124  2.56956  145  -8.4  100   -8.4  144   0     1010.9   NA       0.0000   9999     0     0     0    
2019/08/23  15:25:00  BASE  1.2348   124  2.56956  145  -8.4  100   -8.4  144   0     1010.9   NA       0.0000   9999     0     0     0    
2019/08/23  15:26:00  BASE  1.14072  120  2.56956  145  -8.3  100   -8.3  144   3     1010.9   NA       0.0000   9999     0     0     0    
2019/08/23  15:27:00  BASE  0.65268  101  2.48136  148  -8.3  100   -8.3  144   0     1010.9   NA       0.0000   9999     0     0     0    
2019/08/23  15:28:00  BASE  0.43512  103  2.32848  141  -8.2  100   -8.2  145   0     1010.9   NA       0.0000   9999     0     0     0    
2019/08/23  15:29:00  BASE  0.95844  113  2.32848  141  -8.2  100   -8.2  146   0     1010.9   NA       0.0000   9999     0     0     0    
2019/08/23  15:30:00  BASE  1.08192  104  2.32848  141  -8.2  100   -8.2  146   1     1010.8   NA       0.0000   9999     0     0     0    
2019/08/23  15:31:00  BASE  1.07016  96   2.32848  141  -8.2  100   -8.2  146   0     1010.8   NA       0.0000   9999     0     0     0    
2019/08/23  15:32:00  BASE  0.95256  89   2.0286   134  -8.2  100   -8.2  145   1     1010.8   NA       0.0000   9999     0     0     0    
2019/08/23  15:33:00  BASE  0.81732  105  2.0286   134  -8.2  100   -8.2  145   0     1010.8   NA       0.0000   9999     0     0     0    
2019/08/23  15:34:00  BASE  1.029    113  2.0286   134  -8.3  100   -8.3  143   0     1010.7   NA       0.0000   9999     0     0     0    
2019/08/23  15:35:00  BASE  1.28772  106  1.96392  109  -8.2  100   -8.2  143   2     1010.7   NA       0.0000   9999     0     0     0    
2019/08/23  15:36:00  BASE  1.19364  109  1.96392  109  -8.1  100   -8.1  141   0     1010.7   NA       0.0000   9999     0     0     0    
2019/08/23  15:37:00  BASE  0.52332  101  1.96392  109  -8.0  100   -8.0  141   0     1010.7   NA       0.0000   9999     0     0     0    
2019/08/23  15:38:00  BASE  0.15876  101  1.96392  109  -8.0  100   -8.0  139   0     1010.7   NA       0.0000   9999     0     0     0    
2019/08/23  15:39:00  BASE  0.1764   111  1.96392  109  -7.9  100   -7.9  139   1     1010.7   NA       0.0000   9999     0     0     0    
2019/08/23  15:40:00  BASE  0.62328  124  1.96392  109  -7.9  100   -7.9  139   0     1010.7   NA       0.0000   9999     0     0     0    
2019/08/23  15:41:00  BASE  1.2054   121  1.96392  109  -7.9  100   -7.9  140   0     1010.7   NA       0.0000   9999     0     0     0    
2019/08/23  15:42:00  BASE  1.52292  111  2.42256  103  -7.9  100   -7.9  140   0     1010.7   NA       0.0000   9999     0     0     0    
2019/08/23  15:43:00  BASE  2.0286   117  2.81064  97   -8.0  100   -8.0  140   0     1010.7   NA       0.0000   9999     0     0     0    
2019/08/23  15:44:00  BASE  2.34024  119  2.81064  97   -8.0  100   -8.0  140   2     1010.7   NA       0.0000   9999     0     0     0    
2019/08/23  15:45:00  BASE  2.57544  120  3.41628  105  -8.0  100   -8.0  140   0     1010.6   NA       0.0000   9999     0     0     0    
2019/08/23  15:46:00  BASE  2.40492  115  3.41628  105  -7.9  100   -7.9  139   2     1010.7   NA       0.0000   9999     0     0     0    
2019/08/23  15:47:00  BASE  2.00508  110  3.41628  105  -7.9  100   -7.9  137   1     1010.7   NA       0.0000   9999     0     0     0    
2019/08/23  15:48:00  BASE  2.38728  122  3.78084  138  -7.9  100   -7.9  134   0     1010.7   NA       0.0000   9999     0     0     0    
2019/08/23  15:49:00  BASE  2.35788  133  3.78084  138  -7.8  100   -7.8  130   0     1010.7   NA       0.0000   9999     0     0     0    
2019/08/23  15:50:00  BASE  1.84044  127  3.78084  138  -7.7  100   -7.7  130   2     1010.7   NA       0.0000   9999     0     0     0    
2019/08/23  15:51:00  BASE  1.74636  130  3.78084  138  -7.7  100   -7.7  132   2     1010.8   NA       0.0000   9999     0     0     0    
2019/08/23  15:52:00  BASE  1.60524  133  3.78084  138  -7.7  100   -7.7  129   0     1010.8   NA       0.0000   9999     0     0     0    
2019/08/23  15:53:00  BASE  1.68168  133  3.78084  138  -7.8  100   -7.8  128   1     1010.8   NA       0.0000   9999     0     0     0    
2019/08/23  15:54:00  BASE  2.15796  132  3.78084  138  -7.8  100   -7.8  128   0     1010.8   NA       0.0000   9999     0     0     0    
2019/08/23  15:55:00  BASE  2.19324  128  3.78084  138  -7.8  100   -7.8  127   0     1010.8   NA       0.0000   9999     0     0     0    
2019/08/23  15:56:00  BASE  2.56368  131  4.2042   132  -7.9  100   -7.9  126   0     1010.8   NA       0.0000   9999     0     0     0    
2019/08/23  15:57:00  BASE  2.79888  131  4.2042   132  -7.8  100   -7.8  128   0     1010.8   NA       0.0000   9999     0     0     0    
2019/08/23  15:58:00  BASE  2.4402   125  4.2042   132  -7.8  100   -7.8  130   0     1010.8   NA       0.0000   9999     0     0     0    
2019/08/23  15:59:00  BASE  2.205    117  4.2042   132  -7.8  100   -7.8  131   0     1010.9   NA       0.0000   9999     0     0     0    
2019/08/23  16:00:00  BASE  1.5876   100  4.2042   132  -7.8  100   -7.8  132   0     1010.8   NA       0.0000   9999     0     0     0    
2019/08/23  16:01:00  BASE  0.81144  94   4.2042   132  -7.7  100   -7.7  132   0     1010.8   NA       0.0000   9999     0     0     0    
2019/08/23  16:02:00  BASE  0.74676  123  4.2042   132  -7.7  100   -7.7  130   1     1010.8   NA       0.0000   9999     0     0     0    
2019/08/23  16:03:00  BASE  0.52332  135  4.2042   132  -7.7  100   -7.7  129   1     1010.8   NA       0.0000   9999     0     0     0    
2019/08/23  16:04:00  BASE  0        90   4.2042   132  -7.6  100   -7.6  123   0     1010.8   NA       0.0000   9999     0     0     0    
2019/08/23  16:05:00  BASE  0        30   4.2042   132  -7.6  100   -7.6  122   0     1010.8   NA       0.0000   9999     0     0     0    
2019/08/23  16:06:00  BASE  0        360  3.0576   137  -7.7  100   -7.7  123   0     1010.8   NA       0.0000   9999     0     0     0    
2019/08/23  16:07:00  BASE  0        358  3.0576   137  -7.7  100   -7.7  125   1     1010.8   NA       0.0000   9999     0     0     0    
2019/08/23  16:08:00  BASE  0.15288  358  2.51076  91   -7.7  100   -7.7  128   0     1010.8   NA       0.0000   9999     0     0     0    
2019/08/23  16:09:00  BASE  0.34104  352  2.26968  98   -7.7  100   -7.7  128   0     1010.8   NA       0.0000   9999     0     0     0    
2019/08/23  16:10:00  BASE  0.21168  343  1.90512  152  -7.7  100   -7.7  127   0     1010.7   NA       0.0000   9999     0     0     0    
2019/08/23  16:11:00  BASE  0.02352  335  1.90512  152  -7.6  100   -7.6  118   2     1010.7   NA       0.0000   9999     0     0     0    
2019/08/23  16:12:00  BASE  0        333  0.78792  354  -7.6  100   -7.6  115   0     1010.7   NA       0.0000   9999     0     0     0    
2019/08/23  16:13:00  BASE  0        331  0.78792  354  -7.6  100   -7.6  129   0     1010.7   NA       0.0000   9999     0     0     0    
2019/08/23  16:14:00  BASE  0        330  0.78792  354  -7.5  100   -7.5  138   1     1010.7   NA       0.0000   9999     0     0     0    
2019/08/23  16:15:00  BASE  0        331  0.78792  354  -7.5  100   -7.5  141   2     1010.7   NA       0.0000   9999     0     0     0    
2019/08/23  16:16:00  BASE  0        343  0.78792  354  -7.6  100   -7.6  142   0     1010.7   NA       0.0000   9999     0     0     0    
2019/08/23  16:17:00  BASE  0        354  0.78792  354  -7.6  100   -7.6  142   0     1010.7   NA       0.0000   9999     0     0     0    
2019/08/23  16:18:00  BASE  0        353  0.69384  353  -7.7  100   -7.7  143   0     1010.8   NA       0.0000   9999     0     0     0    
2019/08/23  16:19:00  BASE  0        356  0.60564  335  -7.7  100   -7.7  143   0     1010.8   NA       0.0000   9999     0     0     0    
2019/08/23  16:20:00  BASE  0        360  0        M    -7.7  100   -7.7  143   0     1010.8   NA       0.0000   9999     0     0     0    
2019/08/23  16:21:00  BASE  0        1    0        M    -7.7  100   -7.7  143   0     1010.8   NA       0.0000   9999     0     0     0    
2019/08/23  16:22:00  BASE  0        0    0        M    -7.7  100   -7.7  142   0     1010.8   NA       0.0000   9999     0     0     0    
2019/08/23  16:23:00  BASE  0        353  0        M    -7.6  100   -7.6  143   0     1010.8   NA       0.0000   9999     0     0     0    
2019/08/23  16:24:00  BASE  0        347  0        M    -7.6  100   -7.6  143   0     1010.8   NA       0.0000   9999     0     0     0    
2019/08/23  16:25:00  BASE  0.09996  3    0.63504  24   -7.6  100   -7.6  142   0     1010.8   NA       0.0000   9999     0     0     0    
2019/08/23  16:26:00  BASE  0.49392  21   0.9996   21   -7.6  100   -7.6  141   0     1010.9   NA       0.0000   9999     0     0     0    
2019/08/23  16:27:00  BASE  0.84672  30   1.0584   19   -7.5  100   -7.5  141   0     1010.9   NA       0.0000   9999     0     0     0    
2019/08/23  16:28:00  BASE  0.78204  32   1.0584   19   -7.5  100   -7.5  141   0     1010.9   NA       0.0000   9999     0     0     0    
2019/08/23  16:29:00  BASE  0.74088  35   1.0584   19   -7.5  100   -7.5  141   0     1010.8   NA       0.0000   9999     0     0     0    
2019/08/23  16:30:00  BASE  0.84672  42   1.0584   19   -7.5  99    -7.5  139   0     1010.9   NA       0.0000   9999     0     0     0    
2019/08/23  16:31:00  BASE  0.9114   44   1.0584   19   -7.5  99    -7.6  138   0     1010.9   NA       0.0000   9999     0     0     0    
2019/08/23  16:32:00  BASE  1.08192  47   1.32888  48   -7.6  99    -7.8  137   0     1010.8   NA       0.0000   9999     0     0     0    
2019/08/23  16:33:00  BASE  1.1466   51   1.32888  48   -7.7  98    -7.9  135   0     1010.8   NA       0.0000   9999     0     0     0    
2019/08/23  16:34:00  BASE  1.04076  53   1.32888  48   -7.8  98    -8.0  134   0     1010.8   NA       0.0000   9999     0     0     0    
2019/08/23  16:35:00  BASE  1.02312  53   1.32888  48   -7.9  98    -8.1  135   0     1010.8   NA       0.0000   9999     0     0     0    
2019/08/23  16:36:00  BASE  1.0878   48   1.32888  48   -7.9  99    -8.1  134   0     1010.8   NA       0.0000   9999     0     0     0    
2019/08/23  16:37:00  BASE  1.2054   43   1.39356  41   -7.9  99    -8.1  134   0     1010.8   NA       0.0000   9999     0     0     0    
2019/08/23  16:38:00  BASE  1.34652  38   1.48176  37   -8.0  99    -8.1  133   0     1010.8   NA       0.0000   9999     0     0     0    
2019/08/23  16:39:00  BASE  1.34652  31   1.48176  37   -8.0  99    -8.1  132   0     1010.8   NA       0.0000   9999     0     0     0    
2019/08/23  16:40:00  BASE  1.27596  28   1.48176  37   -8.1  100   -8.1  131   0     1010.8   NA       0.0000   9999     0     0     0    
2019/08/23  16:41:00  BASE  1.176    25   1.48176  37   -8.2  100   -8.2  131   0     1010.8   NA       0.0000   9999     0     0     0    
2019/08/23  16:42:00  BASE  1.01724  21   1.48176  37   -8.2  100   -8.2  129   0     1010.8   NA       0.0000   9999     0     0     0    
2019/08/23  16:43:00  BASE  0.89376  21   1.48176  37   -8.3  100   -8.3  124   0     1010.8   NA       0.0000   9999     0     0     0    
2019/08/23  16:44:00  BASE  0.80556  20   1.48176  37   -8.3  100   -8.3  124   0     1010.8   NA       0.0000   9999     0     0     0    
2019/08/23  16:45:00  BASE  0.78792  18   1.48176  37   -8.3  100   -8.3  121   0     1010.8   NA       0.0000   9999     0     0     0    
2019/08/23  16:46:00  BASE  0.77028  16   1.48176  37   -8.3  100   -8.3  123   0     1010.8   NA       0.0000   9999     6500  0     0    
2019/08/23  16:47:00  BASE  0.71148  15   1.48176  37   -8.3  100   -8.3  124   0     1010.8   NA       0.0000   9999     6500  0     0    
2019/08/23  16:48:00  BASE  0.44688  24   1.35828  28   -8.3  100   -8.3  124   0     1010.8   NA       0.0000   9999     6530  0     0    
2019/08/23  16:49:00  BASE  0.10584  18   1.29948  28   -8.3  100   -8.3  123   0     1010.8   NA       0.0000   9999     6560  0     0    
2019/08/23  16:50:00  BASE  0        358  1.24068  28   -8.2  100   -8.2  122   0     1010.8   NA       0.0000   9999     0     0     0    
2019/08/23  16:51:00  BASE  0        351  0.9996   16   -8.2  100   -8.2  122   0     1010.8   NA       0.0000   9999     0     0     0    
2019/08/23  16:52:00  BASE  0        348  0.90552  23   -8.2  100   -8.2  115   0     1010.8   NA       0.0000   9999     6560  0     0    
2019/08/23  16:53:00  BASE  0        331  0.84672  18   -8.1  100   -8.1  107   0     1010.8   NA       0.0000   9999     6560  0     0    
2019/08/23  16:54:00  BASE  0        323  0.84672  18   -8.0  100   -8.0  105   0     1010.8   NA       0.0000   9999     6630  0     0    
2019/08/23  16:55:00  BASE  0        336  0.81732  14   -7.9  100   -7.9  103   0     1010.9   NA       0.0000   9999     0     0     0    
2019/08/23  16:56:00  BASE  0.22344  358  0.69384  21   -7.9  100   -7.9  105   0     1010.9   NA       0.0000   9999     0     0     0    
2019/08/23  16:57:00  BASE  0.6174   15   0.84672  26   -7.9  100   -7.9  104   0     1010.9   NA       0.0000   9999     0     0     0    
2019/08/23  16:58:00  BASE  0.83496  24   0.9702   22   -7.9  100   -7.9  106   0     1010.9   NA       0.0000   9999     0     0     0    
2019/08/23  16:59:00  BASE  0.90552  24   1.029    27   -7.9  100   -7.9  114   0     1010.9   NA       0.0000   9999     0     0     0    
2019/08/23  17:00:00  BASE  0.95256  23   1.0584   23   -7.9  100   -7.9  110   0     1010.9   NA       0.0000   9999     0     0     0    
2019/08/23  17:01:00  BASE  0.94668  25   1.0584   23   -8.0  100   -8.0  108   0     1010.9   NA       0.0000   9999     0     0     0    
2019/08/23  17:02:00  BASE  0.95256  26   1.0584   23   -8.0  100   -8.0  104   0     1010.9   NA       0.0000   9999     6790  0     0    
2019/08/23  17:03:00  BASE  1.07016  27   1.24068  26   -8.0  100   -8.0  99    0     1010.9   NA       0.0000   9999     6820  0     0    
2019/08/23  17:04:00  BASE  1.18776  26   1.24068  24   -8.0  100   -8.0  95    0     1010.9   NA       0.0000   9999     6790  0     0    
2019/08/23  17:05:00  BASE  1.21716  24   1.24068  17   -8.1  100   -8.1  96    0     1010.9   NA       0.0000   9999     0     0     0    
2019/08/23  17:06:00  BASE  1.24656  17   1.35828  11   -8.1  100   -8.1  100   0     1010.9   NA       0.0000   9999     0     0     0    
2019/08/23  17:07:00  BASE  1.30536  14   1.35828  19   -8.1  100   -8.1  102   0     1010.9   NA       0.0000   9999     0     0     0    
2019/08/23  17:08:00  BASE  1.37592  14   1.51116  10   -8.2  100   -8.2  106   0     1010.9   NA       0.0000   9999     0     0     0    
2019/08/23  17:09:00  BASE  1.40532  11   1.54056  11   -8.2  100   -8.2  111   0     1011.1   NA       0.0000   9999     0     0     0    
2019/08/23  17:10:00  BASE  1.2642   7    1.54056  11   -8.3  100   -8.3  114   0     1011.1   NA       0.0000   9999     0     0     0    
2019/08/23  17:11:00  BASE  1.12308  5    1.54056  11   -8.3  100   -8.3  115   0     1011.1   NA       0.0000   9999     0     0     0    
2019/08/23  17:12:00  BASE  1.12308  359  1.54056  11   -8.3  100   -8.3  114   0     1011.1   NA       0.0000   9999     0     0     0    
2019/08/23  17:13:00  BASE  1.09956  350  1.54056  11   -8.4  100   -8.4  112   0     1011.1   NA       0.0000   9999     0     0     0    
2019/08/23  17:14:00  BASE  1.029    348  1.54056  11   -8.4  100   -8.4  109   0     1011.1   NA       0.0000   9999     0     0     0    
2019/08/23  17:15:00  BASE  0.90552  346  1.54056  11   -8.3  100   -8.3  107   0     1011.1   NA       0.0000   9999     0     0     0    
2019/08/23  17:16:00  BASE  0.75264  345  1.54056  11   -8.3  100   -8.3  105   0     1011.1   NA       0.0000   9999     0     0     0    
2019/08/23  17:17:00  BASE  0.56448  348  1.54056  11   -8.2  100   -8.2  104   0     1011.1   NA       0.0000   9999     0     0     0    
2019/08/23  17:18:00  BASE  0.59976  350  1.54056  11   -8.1  100   -8.1  103   0     1011.0   NA       0.0000   9999     0     0     0    
2019/08/23  17:19:00  BASE  0.53508  360  1.21128  7    -8.1  100   -8.1  103   0     1010.9   NA       0.0000   9999     0     0     0    
2019/08/23  17:20:00  BASE  0.15876  10   1.18188  360  -8.1  100   -8.1  105   0     1010.9   NA       0.0000   9999     0     0     0    
2019/08/23  17:21:00  BASE  0        17   1.18188  360  -8.2  100   -8.2  107   0     1010.9   NA       0.0000   9999     0     0     0    
2019/08/23  17:22:00  BASE  0        12   1.1466   347  -8.2  100   -8.2  106   0     1010.9   NA       0.0000   9999     0     0     0    
2019/08/23  17:23:00  BASE  0        354  1.0584   345  -8.2  100   -8.2  104   0     1010.9   NA       0.0000   9999     0     0     0    
2019/08/23  17:24:00  BASE  0        351  0.84672  348  -8.2  100   -8.2  102   0     1010.9   NA       0.0000   9999     0     0     0    
2019/08/23  17:25:00  BASE  0        351  0.84672  348  -8.2  100   -8.2  100   0     1010.8   NA       0.0000   9999     0     0     0    
2019/08/23  17:26:00  BASE  0        357  0.84672  348  -8.1  100   -8.1  99    0     1010.8   NA       0.0000   9999     0     0     0    
2019/08/23  17:27:00  BASE  0        82   0.84672  348  -8.0  100   -8.0  98    0     1010.8   NA       0.0000   9999     0     0     0    
2019/08/23  17:28:00  BASE  0.02352  138  0.66444  354  -8.0  100   -8.0  99    0     1010.8   NA       0.0000   9999     0     0     0    
2019/08/23  17:29:00  BASE  0.09996  141  0.63504  143  -8.0  100   -8.0  97    0     1010.8   NA       0.0000   9999     0     0     0    
2019/08/23  17:30:00  BASE  0.43512  147  0.78792  154  -8.1  100   -8.1  94    0     1010.8   NA       0.0000   9999     0     0     0    
2019/08/23  17:31:00  BASE  0.65856  153  0.78792  154  -8.1  100   -8.1  93    0     1010.7   NA       0.0000   9999     0     0     0    
2019/08/23  17:32:00  BASE  0.30576  154  0.78792  154  -8.1  100   -8.1  92    0     1010.7   NA       0.0000   9999     0     0     0    
2019/08/23  17:33:00  BASE  0        154  0.78792  154  -8.1  100   -8.1  90    0     1010.7   NA       0.0000   9999     0     0     0    
2019/08/23  17:34:00  BASE  0.18228  153  0.78792  154  -8.0  100   -8.0  89    0     1010.7   NA       0.0000   9999     0     0     0    
2019/08/23  17:35:00  BASE  0.2646   151  0.78792  154  -7.9  100   -7.9  88    0     1010.6   NA       0.0000   9999     0     0     0    
2019/08/23  17:36:00  BASE  0.3528   147  0.81732  145  -7.8  100   -7.8  87    0     1010.6   NA       0.0000   9999     0     0     0    
2019/08/23  17:37:00  BASE  0.75264  147  1.24068  153  -7.9  100   -7.9  86    0     1010.6   NA       0.0000   9999     0     0     0    
2019/08/23  17:38:00  BASE  1.27596  153  1.75224  160  -8.0  100   -8.0  86    0     1010.6   NA       0.0000   9999     0     0     0    
2019/08/23  17:39:00  BASE  1.71108  161  2.0286   171  -8.1  100   -8.1  86    0     1010.5   NA       0.0000   9999     0     0     0    
2019/08/23  17:40:00  BASE  1.89924  166  2.26968  163  -8.2  100   -8.2  86    0     1010.5   NA       0.0000   9999     0     0     0    
2019/08/23  17:41:00  BASE  2.058    160  2.32848  155  -8.2  100   -8.2  85    0     1010.4   NA       0.0000   9999     0     0     0    
2019/08/23  17:42:00  BASE  1.97568  157  2.32848  155  -8.2  100   -8.2  85    0     1010.4   NA       0.0000   9999     0     0     0    
2019/08/23  17:43:00  BASE  1.8522   161  2.32848  155  -8.2  100   -8.2  84    0     1010.4   NA       0.0000   9999     0     0     0    
2019/08/23  17:44:00  BASE  1.87572  158  2.32848  155  -8.1  100   -8.1  84    0     1010.4   NA       0.0000   9999     0     0     0    
2019/08/23  17:45:00  BASE  1.75224  151  2.32848  155  -8.2  100   -8.2  84    0     1010.4   NA       0.0000   9999     4430  0     0    
2019/08/23  17:46:00  BASE  1.51116  150  2.32848  155  -8.2  100   -8.2  83    0     1010.4   NA       0.0000   9999     4400  0     0    
2019/08/23  17:47:00  BASE  1.56996  151  2.32848  155  -8.2  100   -8.2  83    0     1010.4   NA       0.0000   9999     4400  0     0    
2019/08/23  17:48:00  BASE  1.7934   150  2.32848  155  -8.2  100   -8.2  83    0     1010.4   NA       0.0000   9999     4430  0     0    
2019/08/23  17:49:00  BASE  2.02272  151  2.63424  145  -8.3  100   -8.3  82    0     1010.4   NA       0.0000   9999     0     0     0    
2019/08/23  17:50:00  BASE  2.3226   151  2.66364  150  -8.3  100   -8.3  82    0     1010.3   NA       0.0000   9999     0     0     0    
2019/08/23  17:51:00  BASE  2.50488  149  2.75184  149  -8.3  100   -8.3  81    0     1010.3   NA       0.0000   9999     0     0     0    
2019/08/23  17:52:00  BASE  2.51664  148  2.75184  149  -8.3  100   -8.3  81    0     1010.3   NA       0.0000   9999     0     0     0    
2019/08/23  17:53:00  BASE  2.38728  148  2.75184  149  -8.2  100   -8.2  81    0     1010.3   NA       0.0000   9999     0     0     0    
2019/08/23  17:54:00  BASE  2.28732  148  2.75184  149  -8.1  100   -8.1  81    0     1010.3   NA       0.0000   9999     0     0     0    
2019/08/23  17:55:00  BASE  2.21676  149  2.75184  149  -7.9  100   -7.9  80    0     1010.3   NA       0.0000   9999     6100  0     0    
2019/08/23  17:56:00  BASE  2.26968  150  2.75184  149  -7.8  100   -7.8  80    0     1010.3   NA       0.0000   9999     6140  0     0    
2019/08/23  17:57:00  BASE  2.45196  151  3.02232  158  -7.7  100   -7.7  79    0     1010.3   NA       0.0000   9999     0     0     0    
2019/08/23  17:58:00  BASE  2.5578   150  3.02232  158  -7.5  100   -7.5  79    0     1010.3   NA       0.0000   9999     0     0     0    
2019/08/23  17:59:00  BASE  2.29908  144  3.02232  158  -7.4  100   -7.4  79    0     1010.3   NA       0.0000   9999     0     0     0    
2019/08/23  18:00:00  BASE  1.911    135  3.02232  158  -7.3  100   -7.3  79    0     1010.3   NA       0.0000   9999     0     0     0    
2019/08/23  18:01:00  BASE  1.56408  124  3.02232  158  -7.3  100   -7.3  78    0     1010.3   NA       0.0000   9999     0     0     0    
2019/08/23  18:02:00  BASE  1.37592  121  3.02232  158  -7.2  100   -7.2  78    0     1010.3   NA       0.0000   9999     0     0     0    
2019/08/23  18:03:00  BASE  1.49352  133  3.02232  158  -7.1  100   -7.1  78    0     1010.2   NA       0.0000   9999     5970  0     0    
2019/08/23  18:04:00  BASE  1.45236  149  3.02232  158  -7.0  100   -7.0  77    0     1010.2   NA       0.0000   9999     6040  0     0    
2019/08/23  18:05:00  BASE  1.28184  156  3.02232  158  -6.9  100   -6.9  76    0     1010.2   NA       0.0000   9999     0     0     0    
2019/08/23  18:06:00  BASE  1.18188  149  3.02232  158  -6.9  100   -6.9  76    0     1010.2   NA       0.0000   9999     0     0     0    
2019/08/23  18:07:00  BASE  0.92316  139  2.93412  155  -6.9  100   -6.9  75    0     1010.2   NA       0.0000   9999     5910  0     0    
2019/08/23  18:08:01  BASE  0.39396  119  2.35788  143  -6.9  100   -6.9  75    0     1010.2   NA       0.0000   9999     0     0     0    
2019/08/23  18:09:01  BASE  0.31164  105  2.0874   136  -6.8  100   -6.8  75    0     1010.1   NA       0.0000   9999     0     0     0    
2019/08/23  18:10:01  BASE  0.35868  107  2.0874   136  -6.7  100   -6.7  75    0     1010.1   NA       0.0000   9999     5970  0     0    
2019/08/23  18:11:01  BASE  0.37044  130  2.0874   136  -6.5  99    -6.6  75    0     1010.1   NA       0.0000   9999     0     0     0    
2019/08/23  18:12:01  BASE  0.86436  148  1.93452  147  -6.3  99    -6.5  75    0     1010.1   NA       0.0000   9999     0     0     0    
2019/08/23  18:13:01  BASE  1.08192  156  1.57584  133  -6.2  98    -6.5  75    0     1010.0   NA       0.0000   9999     0     0     0    
2019/08/23  18:14:01  BASE  1.17012  149  1.57584  133  -6.2  97    -6.7  76    0     1010.0   NA       0.0000   9999     0     0     0    
2019/08/23  18:15:01  BASE  1.27008  139  1.57584  137  -6.2  96    -6.8  76    0     1010.0   NA       0.0000   9999     0     0     0    
2019/08/23  18:16:01  BASE  1.18776  148  1.72284  135  -6.2  95    -6.8  76    0     1010.0   NA       0.0000   9999     0     0     0    
2019/08/23  18:17:01  BASE  1.3524   144  1.78752  138  -6.2  95    -6.9  75    0     1010.0   NA       0.0000   9999     0     0     0    
2019/08/23  18:18:01  BASE  1.3818   126  1.78752  138  -6.0  95    -6.7  74    0     1010.0   NA       0.0000   9999     0     0     0    
2019/08/23  18:19:01  BASE  0.66444  123  1.78752  138  -5.8  95    -6.5  74    0     1010.0   NA       0.0000   9999     0     0     0    
2019/08/23  18:20:01  BASE  0.07644  147  1.78752  138  -5.7  95    -6.5  73    0     1010.0   NA       0.0000   9999     0     0     0    
2019/08/23  18:21:01  BASE  0.05292  180  1.78752  138  -5.7  94    -6.4  73    0     1010.0   NA       0.0000   9999     6000  0     0    
2019/08/23  18:22:01  BASE  0.02352  193  1.78752  138  -5.6  94    -6.4  72    0     1010.0   NA       0.0000   9999     6000  0     0    
2019/08/23  18:23:01  BASE  0        69   1.78752  138  -5.7  93    -6.7  72    0     1010.0   NA       0.0000   9999     5970  0     0    
2019/08/23  18:24:01  BASE  0        88   1.78752  138  -5.8  92    -6.9  72    0     1010.1   NA       0.0000   9999     5970  0     0    
2019/08/23  18:25:01  BASE  0        157  1.78752  138  -5.9  91    -7.1  72    0     1010.1   NA       0.0000   9999     5940  0     0    
2019/08/23  18:26:01  BASE  0        195  1.78752  138  -6.0  90    -7.4  72    0     1010.1   NA       0.0000   9999     5940  0     0    
2019/08/23  18:27:01  BASE  0        255  1.69344  149  -6.2  90    -7.6  73    0     1010.2   NA       0.0000   9999     5940  0     0    
2019/08/23  18:28:01  BASE  0.15876  321  0.66444  348  -6.3  90    -7.7  73    0     1010.2   NA       0.0000   9999     5870  0     0    
2019/08/23  18:29:01  BASE  0.48804  338  0.81732  349  -6.5  90    -7.8  73    0     1010.2   NA       0.0000   9999     5870  0     0    
2019/08/23  18:30:01  BASE  0.77028  2    1.1172   9    -6.5  90    -7.9  73    0     1010.2   NA       0.0000   9999     5770  0     0    
2019/08/23  18:31:01  BASE  0.85848  15   1.1172   9    -6.6  90    -8.0  73    0     1010.2   NA       0.0000   9999     5840  0     0    
2019/08/23  18:32:01  BASE  0.84084  20   1.1172   9    -6.7  90    -8.0  73    0     1010.2   NA       0.0000   9999     5810  0     0    
2019/08/23  18:33:01  BASE  0.92316  37   1.1466   51   -6.7  91    -8.0  73    0     1010.2   NA       0.0000   9999     5940  0     0    
2019/08/23  18:34:01  BASE  0.84084  51   1.1466   62   -6.7  91    -8.0  73    0     1010.2   NA       0.0000   9999     5970  0     0    
2019/08/23  18:35:01  BASE  0.48216  44   1.1466   62   -6.7  91    -7.9  73    0     1010.2   NA       0.0000   9999     6000  0     0    
2019/08/23  18:36:01  BASE  0.50568  55   1.24068  78   -6.7  91    -7.9  73    0     1010.2   NA       0.0000   9999     6000  0     0    
2019/08/23  18:37:01  BASE  0.82908  74   1.35828  75   -6.6  91    -7.8  73    0     1010.2   NA       0.0000   9999     5940  0     0    
2019/08/23  18:38:01  BASE  0.97608  71   1.35828  75   -6.5  91    -7.7  72    0     1010.2   NA       0.0000   9999     5910  0     0    
2019/08/23  18:39:01  BASE  1.10544  73   1.35828  75   -6.5  92    -7.6  72    0     1010.2   NA       0.0000   9999     5870  0     0    
2019/08/23  18:40:01  BASE  1.21716  69   1.54056  69   -6.5  92    -7.6  71    0     1010.2   NA       0.0000   9999     5910  0     0    
2019/08/23  18:41:01  BASE  1.31124  59   1.54056  63   -6.5  92    -7.6  70    0     1010.2   NA       0.0000   9999     5910  0     0    
2019/08/23  18:42:01  BASE  1.37592  42   1.54056  63   -6.6  91    -7.7  69    0     1010.2   NA       0.0000   9999     5910  0     0    
2019/08/23  18:43:01  BASE  1.28772  27   1.54056  63   -6.8  91    -8.0  68    0     1010.3   NA       0.0000   9999     5970  0     0    
2019/08/23  18:44:01  BASE  1.09368  17   1.54056  63   -7.1  91    -8.3  67    0     1010.3   NA       0.0000   9999     5910  0     0    
2019/08/23  18:45:01  BASE  0.93492  6    1.54056  63   -7.4  92    -8.5  67    0     1010.3   NA       0.0000   9999     5910  0     0    
2019/08/23  18:46:01  BASE  0.86436  358  1.54056  63   -7.6  93    -8.6  66    0     1010.3   NA       0.0000   9999     5870  0     0    
2019/08/23  18:47:01  BASE  0.44688  3    1.54056  63   -7.7  94    -8.5  65    0     1010.3   NA       0.0000   9999     5910  0     0    
2019/08/23  18:48:01  BASE  0.05292  17   1.54056  63   -7.7  95    -8.3  64    0     1010.3   NA       0.0000   9999     5910  0     0    
2019/08/23  18:49:01  BASE  0.02352  28   1.54056  63   -7.6  97    -8.0  63    0     1010.3   NA       0.0000   9999     5870  0     0    
2019/08/23  18:50:01  BASE  0        50   1.54056  63   -7.4  98    -7.7  62    0     1010.3   NA       0.0000   9999     6000  0     0    
2019/08/23  18:51:01  BASE  0.0294   101  1.51116  32   -7.2  98    -7.4  61    0     1010.3   NA       0.0000   9999     5840  0     0    
2019/08/23  18:52:01  BASE  0.3234   147  1.35828  43   -7.0  99    -7.1  59    0     1010.3   NA       0.0000   9999     5910  21360 0    
2019/08/23  18:53:01  BASE  0.55272  153  1.1172   353  -6.8  99    -6.9  58    0     1010.3   NA       0.0000   9999     4760  6000  0    
2019/08/23  18:54:01  BASE  0.63504  148  1.1172   353  -6.7  98    -6.9  57    0     1010.3   NA       0.0000   9999     4790  6070  0    
2019/08/23  18:55:01  BASE  0.77616  144  0.9996   354  -6.7  98    -7.0  56    0     1010.3   NA       0.0000   9999     4820  6000  0    
2019/08/23  18:56:01  BASE  0.61152  142  0.84672  142  -6.8  97    -7.2  55    0     1010.3   NA       0.0000   9999     4820  5970  0    
2019/08/23  18:57:01  BASE  0.48216  146  0.84672  142  -6.9  97    -7.3  54    0     1010.3   NA       0.0000   9999     4820  6040  0    
2019/08/23  18:58:01  BASE  0.48216  148  0.90552  154  -6.9  97    -7.4  53    0     1010.3   NA       0.0000   9999     4790  0     0    
2019/08/23  18:59:01  BASE  0.69384  147  1.1466   151  -7.0  97    -7.4  53    0     1010.3   NA       0.0000   9999     4790  6070  0    
2019/08/23  19:00:01  BASE  1.09368  148  1.42296  149  -6.9  97    -7.3  52    0     1010.3   NA       0.0000   9999     4790  6000  0    
2019/08/23  19:01:01  BASE  1.34064  150  1.60524  150  -6.9  97    -7.2  52    0     1010.3   NA       0.0000   9999     4860  6040  0    
2019/08/23  19:02:01  BASE  1.47588  149  1.60524  145  -6.8  97    -7.2  51    0     1010.3   NA       0.0000   9999     4860  6000  0    
2019/08/23  19:03:01  BASE  1.48176  148  1.72284  150  -6.8  98    -7.1  49    0     1010.3   NA       0.0000   9999     4820  6070  0    
2019/08/23  19:04:01  BASE  1.49352  147  1.72284  142  -6.8  97    -7.1  48    0     1010.3   NA       0.0000   9999     4860  6040  0    
2019/08/23  19:05:01  BASE  1.55232  144  1.75224  146  -6.8  97    -7.1  47    0     1010.3   NA       0.0000   9999     4860  0     0    
2019/08/23  19:06:01  BASE  1.5876   143  1.81692  129  -6.8  97    -7.1  46    0     1010.3   NA       0.0000   9999     4790  0     0    
2019/08/23  19:07:01  BASE  1.84044  137  2.42256  133  -6.8  97    -7.2  45    0     1010.3   NA       0.0000   9999     4760  5970  0    
2019/08/23  19:08:01  BASE  1.89924  124  2.42256  133  -6.8  97    -7.2  45    0     1010.3   NA       0.0000   9999     4820  5910  0    
2019/08/23  19:09:01  BASE  1.64052  119  2.42256  133  -6.7  97    -7.1  44    0     1010.3   NA       0.0000   9999     4820  0     0    
2019/08/23  19:10:01  BASE  1.55232  124  2.42256  133  -6.6  98    -7.0  43    0     1010.2   NA       0.0000   9999     4760  0     0    
2019/08/23  19:11:01  BASE  1.43472  124  2.42256  133  -6.5  98    -6.8  42    0     1010.2   NA       0.0000   9999     4790  0     0    
2019/08/23  19:12:01  BASE  1.32888  116  2.42256  133  -6.4  98    -6.6  41    0     1010.2   NA       0.0000   9999     4820  0     0    
2019/08/23  19:13:01  BASE  1.21128  108  2.42256  133  -6.3  98    -6.5  40    0     1010.2   NA       0.0000   9999     4820  5740  0    
2019/08/23  19:14:01  BASE  0.80556  108  2.42256  133  -6.2  98    -6.4  40    0     1010.2   NA       0.0000   9999     4920  5610  0    
2019/08/23  19:15:01  BASE  0.50568  111  2.42256  133  -6.1  98    -6.3  39    0     1010.2   NA       0.0000   9999     4920  0     0    
2019/08/23  19:16:01  BASE  0.49392  108  2.42256  133  -6.0  98    -6.3  38    0     1010.2   NA       0.0000   9999     4950  0     0    
2019/08/23  19:17:01  BASE  0.37044  99   2.1168   117  -5.9  98    -6.2  37    0     1010.2   NA       0.0000   9999     4920  0     0    
2019/08/23  19:18:00  BASE  0.1176   76   1.84632  126  -5.9  98    -6.2  37    0     1010.2   NA       0.0000   9999     4950  0     0    
2019/08/23  19:19:00  BASE  0.10584  61   1.78752  106  -5.9  98    -6.2  37    0     1010.2   NA       0.0000   9999     5020  0     0    
2019/08/23  19:20:00  BASE  0.10584  63   1.78752  106  -6.0  97    -6.3  37    0     1010.2   NA       0.0000   9999     5120  0     0    
2019/08/23  19:21:00  BASE  0        63   1.78752  106  -6.1  97    -6.5  37    0     1010.2   NA       0.0000   9999     5180  0     0    
2019/08/23  19:22:00  BASE  0.07644  64   1.1466   96   -6.2  97    -6.7  36    0     1010.2   NA       0.0000   9999     5180  0     0    
2019/08/23  19:23:00  BASE  0.07644  67   0.84672  108  -6.3  97    -6.8  36    0     1010.2   NA       0.0000   9999     5220  0     0    
2019/08/23  19:24:00  BASE  0        63   0.75852  96   -6.4  97    -6.9  36    0     1010.1   NA       0.0000   9999     5120  0     0    
2019/08/23  19:25:00  BASE  0        59   0.75852  96   -6.5  97    -6.9  36    0     1010.1   NA       0.0000   9999     5050  5410  0    
2019/08/23  19:26:00  BASE  0        74   0.69384  94   -6.5  98    -6.8  36    0     1010.0   NA       0.0000   9999     5050  0     0    
2019/08/23  19:27:00  BASE  0        94   0.63504  67   -6.5  98    -6.7  35    0     1010.1   NA       0.0000   9999     4820  5680  0    
2019/08/23  19:28:00  BASE  0        100  0.63504  67   -6.4  99    -6.6  35    0     1010.1   NA       0.0000   9999     4790  5450  0    
2019/08/23  19:29:00  BASE  0        126  0.63504  67   -6.4  99    -6.5  35    0     1010.1   NA       0.0000   9999     4860  0     0    
2019/08/23  19:30:00  BASE  0        186  0.63504  67   -6.3  99    -6.5  35    0     1010.1   NA       0.0000   9999     4790  0     0    
2019/08/23  19:31:00  BASE  0        211  0.63504  67   -6.2  99    -6.4  35    0     1010.1   NA       0.0000   9999     5180  0     0    
2019/08/23  19:32:00  BASE  0        214  0        M    -6.2  98    -6.4  34    0     1010.1   NA       0.0000   9999     5050  0     0    
2019/08/23  19:33:00  BASE  0        214  0        M    -6.1  98    -6.3  34    0     1010.0   NA       0.0000   9999     5090  0     0    
2019/08/23  19:34:00  BASE  0        214  0        M    -6.0  98    -6.3  34    0     1010.0   NA       0.0000   9999     5280  0     0    
2019/08/23  19:35:00  BASE  0        214  0        M    -5.9  98    -6.2  34    0     1010.0   NA       0.0000   9999     5380  0     0    
2019/08/23  19:36:00  BASE  0        211  0        M    -5.9  98    -6.2  33    0     1010.0   NA       0.0000   9999     5510  0     0    
2019/08/23  19:37:00  BASE  0        169  0        M    -5.8  97    -6.1  33    0     1009.9   NA       0.0000   9999     5480  0     0    
2019/08/23  19:38:00  BASE  0        115  0        M    -5.7  97    -6.1  33    0     1009.8   NA       0.0000   9999     5450  0     0    
2019/08/23  19:39:00  BASE  0        101  0        M    -5.6  96    -6.1  32    0     1009.8   NA       0.0000   9999     5350  0     0    
2019/08/23  19:40:00  BASE  0        107  0        M    -5.5  96    -6.1  32    0     1009.8   NA       0.0000   9999     5320  0     0    
2019/08/23  19:41:00  BASE  0        122  0        M    -5.4  95    -6.1  32    0     1009.8   NA       0.0000   9999     5410  0     0    
2019/08/23  19:42:00  BASE  0.07644  139  0.60564  150  -5.4  94    -6.2  31    0     1009.8   NA       0.0000   9999     5350  0     0    
2019/08/23  19:43:00  BASE  0.07644  148  0.60564  150  -5.4  93    -6.3  31    0     1009.8   NA       0.0000   9999     5450  0     0    
2019/08/23  19:44:00  BASE  0        150  0.60564  150  -5.4  92    -6.5  31    0     1009.8   NA       0.0000   9999     5480  0     0    
2019/08/23  19:45:00  BASE  0        150  0.60564  150  -5.5  92    -6.7  30    0     1009.8   NA       0.0000   9999     5480  0     0    
2019/08/23  19:46:00  BASE  0.21756  150  0.69384  150  -5.6  91    -6.8  30    0     1009.7   NA       0.0000   9999     5350  0     0    
2019/08/23  19:47:00  BASE  0.4704   156  0.87612  167  -5.7  91    -6.8  30    0     1009.7   NA       0.0000   9999     5380  0     0    
2019/08/23  19:48:00  BASE  0.7938   162  1.42296  158  -5.7  92    -6.8  29    0     1009.7   NA       0.0000   9999     5580  0     0    
2019/08/23  19:49:00  BASE  1.39944  157  1.81692  151  -5.7  92    -6.7  28    0     1009.7   NA       0.0000   9999     5640  0     0    
2019/08/23  19:50:00  BASE  1.764    153  2.1462   164  -5.7  93    -6.7  28    0     1009.7   NA       0.0000   9999     5640  0     0    
2019/08/23  19:51:01  BASE  1.74636  154  2.1462   164  -5.7  93    -6.7  27    0     1009.7   NA       0.0000   9999     5640  0     0    
2019/08/23  19:52:01  BASE  1.47588  149  2.1462   164  -5.7  93    -6.7  27    0     1009.7   NA       0.0000   9999     5680  0     0    
2019/08/23  19:53:01  BASE  1.37592  140  2.1462   164  -5.8  93    -6.7  26    0     1009.7   NA       0.0000   9999     0     0     0    
2019/08/23  19:54:01  BASE  1.54056  135  2.1462   164  -5.8  94    -6.7  26    0     1009.6   NA       0.0000   9999     5710  0     0    
2019/08/23  19:55:01  BASE  1.42296  136  2.1462   164  -5.9  94    -6.7  25    0     1009.6   NA       0.0000   9999     5510  0     0    
2019/08/23  19:56:01  BASE  1.34064  144  2.1462   164  -5.9  95    -6.6  24    0     1009.6   NA       0.0000   9999     5510  0     0    
2019/08/23  19:57:01  BASE  1.51116  152  2.1462   164  -5.9  95    -6.5  23    0     1009.6   NA       0.0000   9999     5770  0     0    
2019/08/23  19:58:01  BASE  1.5582   159  2.1462   164  -5.9  95    -6.5  23    0     1009.6   NA       0.0000   9999     0     0     0    
2019/08/23  19:59:01  BASE  1.44648  167  2.1462   164  -5.9  96    -6.5  23    0     1009.6   NA       0.0000   9999     5680  0     0    
2019/08/23  20:00:01  BASE  1.34064  167  2.0874   164  -5.9  96    -6.5  22    0     1009.6   NA       0.0000   9999     5640  0     0    
2019/08/23  20:01:01  BASE  1.2348   170  1.84632  169  -5.9  96    -6.5  22    0     1009.6   NA       0.0000   9999     5540  0     0    
2019/08/23  20:02:01  BASE  0.81732  178  1.84632  169  -5.9  96    -6.5  21    0     1009.6   NA       0.0000   9999     5610  0     0    
2019/08/23  20:03:01  BASE  0.33516  161  1.84632  169  -5.9  96    -6.5  21    0     1009.6   NA       0.0000   9999     5580  0     0    
2019/08/23  20:04:01  BASE  0.18816  139  1.84632  169  -5.9  96    -6.5  20    0     1009.6   NA       0.0000   9999     5680  0     0    
2019/08/23  20:05:01  BASE  0.28812  122  1.84632  169  -5.9  96    -6.4  19    0     1009.6   NA       0.0000   9999     5640  0     0    
2019/08/23  20:06:01  BASE  0.32928  91   1.84632  169  -5.8  96    -6.3  19    0     1009.6   NA       0.0000   9999     5640  0     0    
2019/08/23  20:07:01  BASE  0.15288  62   1.84632  169  -5.7  96    -6.2  18    0     1009.6   NA       0.0000   9999     5640  0     0    
2019/08/23  20:08:01  BASE  0        61   1.57584  167  -5.6  96    -6.1  18    0     1009.6   NA       0.0000   9999     5680  0     0    
2019/08/23  20:09:01  BASE  0.09408  91   1.57584  167  -5.5  96    -6.0  17    0     1009.6   NA       0.0000   9999     5870  0     0    
2019/08/23  20:10:01  BASE  0.09408  103  1.54056  184  -5.2  96    -5.8  17    0     1009.6   NA       0.0000   9999     5840  0     0    
2019/08/23  20:11:01  BASE  0.2646   133  0.9702   94   -5.0  95    -5.6  16    0     1009.6   NA       0.0000   9999     5770  0     0    
2019/08/23  20:12:01  BASE  0.57624  162  1.1172   156  -4.9  94    -5.7  16    0     1009.7   NA       0.0000   9999     5740  0     0    
2019/08/23  20:13:01  BASE  0.31164  197  1.1172   156  -4.9  92    -6.0  15    0     1009.7   NA       0.0000   9999     5740  0     0    
2019/08/23  20:14:01  BASE  0.14112  281  1.1172   156  -5.0  91    -6.3  15    0     1009.7   NA       0.0000   9999     5740  0     0    
2019/08/23  20:15:01  BASE  0.47628  294  1.1172   156  -5.3  90    -6.7  14    0     1009.7   NA       0.0000   9999     5770  0     0    
2019/08/23  20:16:01  BASE  0.45276  288  1.1172   156  -5.6  90    -7.0  14    0     1009.7   NA       0.0000   9999     5710  0     0    
2019/08/23  20:17:01  BASE  0.147    261  1.1172   156  -5.7  90    -7.0  13    0     1009.7   NA       0.0000   9999     5640  0     0    
2019/08/23  20:18:01  BASE  0.37632  144  1.18188  145  -5.6  91    -6.8  13    0     1009.7   NA       0.0000   9999     5610  0     0    
2019/08/23  20:19:01  BASE  0.87612  155  1.32888  155  -5.5  92    -6.6  12    0     1009.7   NA       0.0000   9999     5610  0     0    
2019/08/23  20:20:01  BASE  0.7644   160  1.32888  155  -5.4  92    -6.5  12    0     1009.7   NA       0.0000   9999     5680  0     0    
2019/08/23  20:21:01  BASE  0.35868  157  1.32888  155  -5.4  92    -6.4  11    0     1009.7   NA       0.0000   9999     5640  0     0    
2019/08/23  20:22:01  BASE  0.44688  146  1.32888  155  -5.3  91    -6.5  11    0     1009.8   NA       0.0000   9999     5680  0     0    
2019/08/23  20:23:01  BASE  0.32928  134  1.32888  155  -5.3  91    -6.6  11    0     1009.8   NA       0.0000   9999     5770  0     0    
2019/08/23  20:24:01  BASE  0.1176   85   1.32888  155  -5.3  90    -6.7  10    0     1009.8   NA       0.0000   9999     5710  0     0    
2019/08/23  20:25:01  BASE  0.2058   345  1.32888  155  -5.4  90    -6.9  10    0     1009.8   NA       0.0000   9999     5680  0     0    
2019/08/23  20:26:01  BASE  0.0882   343  1.32888  155  -5.5  90    -7.0  9     0     1009.8   NA       0.0000   9999     5680  0     0    
2019/08/23  20:27:01  BASE  0.34104  356  1.32888  155  -5.7  90    -7.1  9     0     1009.8   NA       0.0000   9999     5680  0     0    
2019/08/23  20:28:01  BASE  0.78792  343  1.32888  155  -5.8  90    -7.1  8     0     1009.7   NA       0.0000   9999     5680  0     0    
2019/08/23  20:29:01  BASE  1.01724  344  1.35828  343  -5.9  91    -7.1  8     0     1009.7   NA       0.0000   9999     5680  0     0    
2019/08/23  20:30:01  BASE  1.11132  345  1.39356  345  -5.9  92    -7.1  8     0     1009.7   NA       0.0000   9999     5580  0     0    
2019/08/23  20:31:01  BASE  1.14072  344  1.39356  345  -5.9  92    -7.0  7     0     1009.7   NA       0.0000   9999     5610  0     0    
2019/08/23  20:32:01  BASE  1.2642   351  1.39356  345  -6.0  93    -6.9  7     0     1009.7   NA       0.0000   9999     5640  0     0    
2019/08/23  20:33:01  BASE  1.36416  354  1.51116  3    -6.0  94    -6.9  6     0     1009.7   NA       0.0000   9999     5640  0     0    
2019/08/23  20:34:01  BASE  1.41708  358  1.51116  3    -6.0  94    -6.8  6     0     1009.7   NA       0.0000   9999     5610  0     0    
2019/08/23  20:35:01  BASE  1.3524   7    1.51116  3    -6.0  95    -6.7  6     0     1009.7   NA       0.0000   9999     5610  0     0    
2019/08/23  20:36:01  BASE  1.27008  18   1.51116  3    -6.1  95    -6.7  5     0     1009.7   NA       0.0000   9999     5640  0     0    
2019/08/23  20:37:01  BASE  1.27008  26   1.51116  3    -6.1  96    -6.7  5     0     1009.7   NA       0.0000   9999     5640  0     0    
2019/08/23  20:38:01  BASE  1.30536  28   1.51116  3    -6.2  96    -6.6  5     0     1009.7   NA       0.0000   9999     5640  0     0    
2019/08/23  20:39:01  BASE  1.35828  30   1.51116  3    -6.2  97    -6.6  4     0     1009.7   NA       0.0000   9999     5540  0     0    
2019/08/23  20:40:01  BASE  1.41708  32   1.54056  30   -6.2  98    -6.5  4     0     1009.7   NA       0.0000   9999     5510  0     0    
2019/08/23  20:41:01  BASE  1.47588  35   1.63464  37   -6.3  98    -6.5  4     0     1009.7   NA       0.0000   9999     5610  0     0    
2019/08/23  20:42:01  BASE  1.46412  35   1.63464  37   -6.3  99    -6.4  3     0     1009.7   NA       0.0000   9999     5510  0     0    
2019/08/23  20:43:01  BASE  1.45236  26   1.63464  37   -6.3  99    -6.4  3     0     1009.7   NA       0.0000   9999     5540  0     0    
2019/08/23  20:44:01  BASE  1.33476  21   1.63464  37   -6.3  100   -6.3  3     0     1009.7   NA       0.0000   9999     5580  0     0    
2019/08/23  20:45:01  BASE  1.176    24   1.63464  37   -6.3  100   -6.3  3     0     1009.7   NA       0.0000   9999     5540  0     0    
2019/08/23  20:46:01  BASE  1.25244  20   1.63464  37   -6.2  100   -6.2  2     0     1009.7   NA       0.0000   9999     5580  0     0    
2019/08/23  20:47:01  BASE  1.28772  18   1.63464  37   -6.2  100   -6.2  2     0     1009.7   NA       0.0000   9999     5580  0     0    
2019/08/23  20:48:01  BASE  1.21128  16   1.63464  37   -6.2  100   -6.2  2     0     1009.7   NA       0.0000   9999     5610  0     0    
2019/08/23  20:49:01  BASE  1.18776  15   1.63464  37   -6.2  100   -6.2  2     0     1009.7   NA       0.0000   9999     5580  0     0    
2019/08/23  20:50:01  BASE  1.09956  16   1.63464  37   -6.2  100   -6.2  1     0     1009.7   NA       0.0000   9999     5580  0     0    
2019/08/23  20:51:01  BASE  0.95256  19   1.54056  15   -6.2  100   -6.2  1     0     1009.7   NA       0.0000   9999     5580  0     0    
2019/08/23  20:52:01  BASE  0.72324  23   1.54056  15   -6.1  100   -6.1  1     0     1009.7   NA       0.0000   9999     5540  0     0    
2019/08/23  20:53:01  BASE  0.40572  23   1.39356  14   -6.1  100   -6.1  1     0     1009.6   NA       0.0000   9999     5580  0     0    
2019/08/23  20:54:01  BASE  0.12936  27   1.39356  14   -6.1  100   -6.1  1     0     1009.6   NA       0.0000   9999     5610  0     0    
2019/08/23  20:55:01  BASE  0        40   1.39356  14   -6.0  100   -6.0  1     0     1009.6   NA       0.0000   9999     5610  0     0    
2019/08/23  20:56:01  BASE  0        58   1.29948  14   -5.8  100   -5.8  1     0     1009.6   NA       0.0000   9999     5610  0     0    
2019/08/23  20:57:01  BASE  0.28812  107  1.24068  14   -5.7  100   -5.8  1     0     1009.6   NA       0.0000   9999     5640  0     0    
2019/08/23  20:58:01  BASE  0.63504  140  1.21128  15   -5.7  99    -5.8  0     0     1009.6   NA       0.0000   9999     5610  0     0    
2019/08/23  20:59:01  BASE  0.43512  144  1.1466   14   -5.7  99    -5.9  0     0     1009.6   NA       0.0000   9999     5580  0     0    
2019/08/23  21:00:01  BASE  0.0882   152  0.93492  23   -5.8  98    -6.0  0     0     1009.6   NA       0.0000   9999     5580  0     0    
2019/08/23  21:01:01  BASE  0        160  0.90552  24   -5.9  98    -6.1  0     0     1009.6   NA       0.0000   9999     5580  0     0    
2019/08/23  21:02:01  BASE  0.18228  176  0.84672  202  -5.9  98    -6.2  0     0     1009.6   NA       0.0000   9999     5580  0     0    
2019/08/23  21:03:01  BASE  0.53508  195  0.84672  202  -5.8  98    -6.1  0     0     1009.6   NA       0.0000   9999     5580  0     0    
2019/08/23  21:04:01  BASE  0.69972  198  0.84672  202  -5.7  98    -6.0  0     0     1009.6   NA       0.0000   9999     5580  0     0    
2019/08/23  21:05:00  BASE  0.49392  196  0.84672  199  -5.6  98    -5.9  0     0     1009.6   NA       0.0000   9999     5610  0     0    
2019/08/23  21:06:01  BASE  0.14112  204  0.84672  199  -5.5  97    -5.9  0     0     1009.6   NA       0.0000   9999     5610  0     0    
2019/08/23  21:07:01  BASE  0        213  0.84672  199  -5.5  97    -5.9  0     0     1009.6   NA       0.0000   9999     5610  0     0    
2019/08/23  21:08:01  BASE  0        220  0.84672  199  -5.5  96    -6.0  0     0     1009.6   NA       0.0000   9999     5510  0     0    
2019/08/23  21:09:00  BASE  0        230  0.84672  199  -5.6  96    -6.2  0     0     1009.6   NA       0.0000   9999     5510  0     0    
2019/08/23  21:10:01  BASE  0        236  0.84672  199  -5.7  95    -6.4  0     0     1009.6   NA       0.0000   9999     5540  0     0    
2019/08/23  21:11:00  BASE  0        251  0.84672  199  -5.9  95    -6.6  0     0     1009.6   NA       0.0000   9999     5540  0     0    
2019/08/23  21:12:01  BASE  0        265  0.84672  199  -6.0  95    -6.7  0     0     1009.6   NA       0.0000   9999     5580  0     0    
2019/08/23  21:13:00  BASE  0        267  0.84672  199  -6.2  95    -6.9  0     0     1009.6   NA       0.0000   9999     5540  0     0    
2019/08/23  21:14:01  BASE  0        267  0.84672  199  -6.3  96    -6.9  0     0     1009.6   NA       0.0000   9999     5510  0     0    
2019/08/23  21:15:00  BASE  0        260  0        M    -6.4  97    -6.7  0     0     1009.6   NA       0.0000   9999     5540  0     0    
2019/08/23  21:16:01  BASE  0        211  0        M    -6.4  98    -6.6  0     0     1009.5   NA       0.0000   9999     5510  0     0    
2019/08/23  21:17:00  BASE  0        169  0        M    -6.4  99    -6.5  0     0     1009.6   NA       0.0000   9999     5510  0     0    
2019/08/23  21:18:01  BASE  0        139  0        M    -6.4  100   -6.4  0     0     1009.5   NA       0.0000   9999     5540  0     0    
2019/08/23  21:19:00  BASE  0        109  0        M    -6.4  100   -6.4  0     0     1009.5   NA       0.0000   9999     5540  0     0    
2019/08/23  21:20:00  BASE  0        100  0        M    -6.4  100   -6.4  0     0     1009.5   NA       0.0000   9999     5540  0     0    
2019/08/23  21:21:00  BASE  0        102  0        M    -6.5  100   -6.5  0     0     1009.5   NA       0.0000   9999     5510  0     0    
2019/08/23  21:22:00  BASE  0        104  0        M    -6.5  100   -6.5  0     0     1009.5   NA       0.0000   9999     5510  0     0    
2019/08/23  21:23:00  BASE  0        108  0        M    -6.5  100   -6.5  0     0     1009.5   NA       0.0000   9999     5480  0     0    
2019/08/23  21:24:00  BASE  0        110  0        M    -6.5  100   -6.5  0     0     1009.5   NA       0.0000   9999     5480  0     0    
2019/08/23  21:25:00  BASE  0        106  0        M    -6.4  100   -6.4  0     0     1009.5   NA       0.0000   9999     5510  0     0    
2019/08/23  21:26:00  BASE  0        102  0        M    -6.4  100   -6.4  0     0     1009.5   NA       0.0000   9999     5510  0     0    
2019/08/23  21:27:00  BASE  0        97   0        M    -6.4  100   -6.4  0     0     1009.5   NA       0.0000   9999     5480  0     0    
2019/08/23  21:28:00  BASE  0        87   0        M    -6.3  100   -6.3  0     0     1009.4   NA       0.0000   9999     5450  0     0    
2019/08/23  21:29:00  BASE  0        91   0        M    -6.3  100   -6.3  0     0     1009.4   NA       0.0000   9999     5450  0     0    
2019/08/23  21:30:00  BASE  0        117  0        M    -6.2  100   -6.2  0     0     1009.4   NA       0.0000   9999     5480  0     0    
2019/08/23  21:31:01  BASE  0        135  0        M    -6.1  100   -6.1  0     0     1009.4   NA       0.0000   9999     5450  0     0    
2019/08/23  21:32:01  BASE  0.02352  135  0.60564  136  -6.1  100   -6.1  0     0     1009.4   NA       0.0000   9999     5540  0     0    
2019/08/23  21:33:01  BASE  0.07644  136  0.66444  137  -6.1  100   -6.1  0     0     1009.4   NA       0.0000   9999     5450  0     0    
2019/08/23  21:34:01  BASE  0.05292  138  0.66444  137  -6.0  100   -6.0  0     0     1009.4   NA       0.0000   9999     5480  0     0    
2019/08/23  21:35:01  BASE  0        139  0.66444  137  -6.0  100   -6.0  0     0     1009.4   NA       0.0000   9999     5410  0     0    
2019/08/23  21:36:01  BASE  0        145  0.66444  137  -6.0  100   -6.0  0     0     1009.4   NA       0.0000   9999     5410  0     0    
2019/08/23  21:37:01  BASE  0.25284  153  1.0878   159  -5.9  100   -5.9  0     0     1009.4   NA       0.0000   9999     5510  0     0    
2019/08/23  21:38:01  BASE  0.87024  157  1.48176  163  -5.8  100   -5.8  0     0     1009.4   NA       0.0000   9999     5410  0     0    
2019/08/23  21:39:01  BASE  1.32888  159  1.57584  153  -5.8  100   -5.8  0     0     1009.4   NA       0.0000   9999     5450  0     0    
2019/08/23  21:40:01  BASE  1.48764  164  1.63464  169  -5.7  100   -5.7  0     0     1009.3   NA       0.0000   9999     5510  0     0    
2019/08/23  21:41:01  BASE  1.58172  169  1.75224  173  -5.7  100   -5.7  0     0     1009.2   NA       0.0000   9999     5510  0     0    
2019/08/23  21:42:01  BASE  1.65816  169  1.81692  166  -5.6  100   -5.6  0     0     1009.2   NA       0.0000   9999     5450  0     0    
2019/08/23  21:43:01  BASE  1.69344  168  1.87572  170  -5.6  100   -5.6  0     0     1009.2   NA       0.0000   9999     5410  0     0    
2019/08/23  21:44:01  BASE  1.75812  169  1.9992   172  -5.6  100   -5.6  0     0     1009.2   NA       0.0000   9999     5410  0     0    
2019/08/23  21:45:01  BASE  1.8228   172  1.9992   172  -5.7  100   -5.7  0     0     1009.2   NA       0.0000   9999     5410  0     0    
2019/08/23  21:46:01  BASE  1.75224  176  1.9992   172  -5.7  100   -5.7  0     0     1009.3   NA       0.0000   9999     5510  0     0    
2019/08/23  21:47:01  BASE  1.66992  179  1.9992   172  -5.7  100   -5.7  0     0     1009.4   NA       0.0000   9999     5510  0     0    
2019/08/23  21:48:01  BASE  1.71108  176  1.9992   172  -5.8  100   -5.8  0     0     1009.4   NA       0.0000   9999     5480  0     0    
2019/08/23  21:49:01  BASE  1.75812  174  1.9992   172  -5.8  100   -5.8  0     0     1009.4   NA       0.0000   9999     5450  0     0    
2019/08/23  21:50:01  BASE  1.69344  175  1.9992   172  -5.8  100   -5.8  0     0     1009.4   NA       0.0000   9999     5450  0     0    
2019/08/23  21:51:01  BASE  1.56996  182  1.9992   172  -5.8  100   -5.8  0     0     1009.4   NA       0.0000   9999     5450  0     0    
2019/08/23  21:52:01  BASE  1.53468  182  1.9992   172  -5.8  100   -5.8  0     0     1009.4   NA       0.0000   9999     5450  0     0    
2019/08/23  21:53:01  BASE  1.45824  177  1.9992   172  -5.8  100   -5.8  0     0     1009.4   NA       0.0000   9999     5410  0     0    
2019/08/23  21:54:01  BASE  1.32888  173  1.90512  183  -5.8  100   -5.8  0     0     1009.4   NA       0.0000   9999     5410  0     0    
2019/08/23  21:55:01  BASE  1.30536  170  1.90512  183  -5.8  100   -5.8  0     0     1009.4   NA       0.0000   9999     5450  0     0    
2019/08/23  21:56:01  BASE  1.10544  173  1.90512  183  -5.9  100   -5.9  0     0     1009.4   NA       0.0000   9999     5450  0     0    
2019/08/23  21:57:01  BASE  0.54096  171  1.90512  183  -5.9  100   -5.9  0     0     1009.4   NA       0.0000   9999     5450  0     0    
2019/08/23  21:58:01  BASE  0.09996  166  1.90512  183  -6.0  100   -6.0  0     0     1009.4   NA       0.0000   9999     5410  0     0    
2019/08/23  21:59:01  BASE  0        133  1.90512  183  -6.1  100   -6.1  0     0     1009.3   NA       0.0000   9999     5410  0     0    
2019/08/23  22:00:01  BASE  0        74   1.84632  187  -6.1  100   -6.1  0     0     1009.2   NA       0.0000   9999     5450  0     0    
2019/08/23  22:01:01  BASE  0.08232  38   1.78752  168  -6.2  100   -6.2  0     0     1009.2   NA       0.0000   9999     5410  0     0    
2019/08/23  22:02:01  BASE  0.4704   28   1.78752  168  -6.2  100   -6.2  0     0     1009.2   NA       0.0000   9999     5450  0     0    
2019/08/23  22:03:01  BASE  0.92316  32   1.63464  166  -6.3  100   -6.3  0     0     1009.2   NA       0.0000   9999     5450  0     0    
2019/08/23  22:04:01  BASE  1.0878   30   1.63464  166  -6.3  100   -6.3  0     0     1009.2   NA       0.0000   9999     5450  0     0    
2019/08/23  22:05:01  BASE  1.07604  27   1.27008  33   -6.3  100   -6.3  0     0     1009.2   NA       0.0000   9999     5450  0     0    
2019/08/23  22:06:01  BASE  1.01724  27   1.27008  33   -6.4  100   -6.4  0     0     1009.2   NA       0.0000   9999     5480  0     0    
2019/08/23  22:07:01  BASE  0.94668  26   1.27008  33   -6.4  100   -6.4  0     0     1009.2   NA       0.0000   9999     5410  0     0    
2019/08/23  22:08:01  BASE  0.87612  29   1.27008  33   -6.4  100   -6.4  0     0     1009.2   NA       0.0000   9999     5410  0     0    
2019/08/23  22:09:01  BASE  0.9114   38   1.27008  33   -6.4  100   -6.4  0     0     1009.2   NA       0.0000   9999     5450  0     0    
2019/08/23  22:10:01  BASE  0.95844  45   1.27008  33   -6.3  100   -6.3  0     0     1009.2   NA       0.0000   9999     5410  0     0    
2019/08/23  22:11:01  BASE  0.9114   49   1.27008  33   -6.3  100   -6.3  0     0     1009.1   NA       0.0000   9999     5380  0     0    
2019/08/23  22:12:01  BASE  0.8526   50   1.27008  33   -6.2  100   -6.2  0     0     1009.1   NA       0.0000   9999     5380  0     0    
2019/08/23  22:13:01  BASE  0.81144  51   1.21128  32   -6.1  100   -6.1  0     0     1009.1   NA       0.0000   9999     5410  0     0    
2019/08/23  22:14:01  BASE  0.64092  56   1.1466   26   -6.1  100   -6.1  0     0     1009.1   NA       0.0000   9999     0     0     0    
2019/08/23  22:15:01  BASE  0.6762   53   1.1172   49   -6.0  100   -6.0  0     0     1009.1   NA       0.0000   9999     0     0     0    
2019/08/23  22:16:01  BASE  0.97608  44   1.1466   39   -6.0  100   -6.0  0     0     1009.1   NA       0.0000   9999     0     0     0    
2019/08/23  22:17:01  BASE  1.13484  40   1.29948  40   -6.0  100   -6.0  0     0     1009.1   NA       0.0000   9999     0     0     0    
2019/08/23  22:18:01  BASE  1.14072  37   1.29948  40   -6.0  100   -6.0  0     0     1009.1   NA       0.0000   9999     0     0     0    
2019/08/23  22:19:01  BASE  1.0584   38   1.29948  40   -6.1  100   -6.1  0     0     1009.1   NA       0.0000   9999     0     0     0    
2019/08/23  22:20:01  BASE  1.06428  43   1.29948  40   -6.1  100   -6.1  0     0     1009.2   NA       0.0000   9999     0     0     0    
2019/08/23  22:21:01  BASE  1.12308  51   1.29948  40   -6.1  100   -6.1  0     0     1009.2   NA       0.0000   9999     0     0     0    
2019/08/23  22:22:01  BASE  1.08192  54   1.29948  40   -6.1  100   -6.1  0     0     1009.2   NA       0.0000   9999     0     0     0    
2019/08/23  22:23:01  BASE  1.01724  58   1.29948  40   -6.1  100   -6.1  0     0     1009.2   NA       0.0000   9999     0     0     0    
2019/08/23  22:24:01  BASE  0.95844  62   1.29948  40   -6.1  100   -6.1  0     0     1009.2   NA       0.0000   9999     5480  0     0    
2019/08/23  22:25:01  BASE  0.882    59   1.29948  40   -6.1  100   -6.1  0     0     1009.2   NA       0.0000   9999     0     0     0    
2019/08/23  22:26:01  BASE  0.85848  51   1.29948  40   -6.1  100   -6.1  0     0     1009.2   NA       0.0000   9999     0     0     0    
2019/08/23  22:27:01  BASE  0.82908  44   1.21128  56   -6.1  100   -6.1  0     0     1009.2   NA       0.0000   9999     5380  0     0    
2019/08/23  22:28:01  BASE  0.7644   41   1.21128  56   -6.1  100   -6.1  0     0     1009.2   NA       0.0000   9999     0     0     0    
2019/08/23  22:29:01  BASE  0.69384  40   1.21128  56   -6.0  100   -6.0  0     0     1009.2   NA       0.0000   9999     0     0     0    
2019/08/23  22:30:01  BASE  0.57036  35   1.21128  56   -6.0  100   -6.0  0     0     1009.2   NA       0.0000   9999     5350  0     0    
2019/08/23  22:31:00  BASE  0.588    29   1.0878   56   -6.0  100   -6.0  0     0     1009.2   NA       0.0000   9999     5320  0     0    
2019/08/23  22:32:01  BASE  0.72912  29   1.0584   56   -5.9  100   -5.9  0     0     1009.2   NA       0.0000   9999     5320  0     0    
2019/08/23  22:33:00  BASE  0.81732  36   0.9996   41   -5.9  100   -5.9  0     0     1009.2   NA       0.0000   9999     5410  0     0    
2019/08/23  22:34:01  BASE  0.95256  40   1.0584   40   -5.9  100   -5.9  0     0     1009.1   NA       0.0000   9999     5450  0     0    
2019/08/23  22:35:00  BASE  1.02312  40   1.0584   40   -5.9  100   -5.9  0     0     1009.1   NA       0.0000   9999     5320  0     0    
2019/08/23  22:36:00  BASE  1.00548  41   1.0584   41   -5.9  100   -5.9  0     0     1009.1   NA       0.0000   9999     0     0     0    
2019/08/23  22:37:00  BASE  0.9408   43   1.0584   41   -5.9  100   -5.9  0     0     1009.1   NA       0.0000   9999     0     0     0    
2019/08/23  22:38:01  BASE  0.89964  45   1.0584   41   -5.8  100   -5.8  0     0     1009.1   NA       0.0000   9999     0     0     0    
2019/08/23  22:39:00  BASE  0.84084  47   1.0584   41   -5.8  100   -5.8  0     0     1009.1   NA       0.0000   9999     0     0     0    
2019/08/23  22:40:00  BASE  0.59976  50   1.0584   41   -5.7  100   -5.7  0     0     1009.1   NA       0.0000   9999     0     0     0    
2019/08/23  22:41:00  BASE  0.19992  53   1.0584   41   -5.7  100   -5.7  0     0     1009.1   NA       0.0000   9999     0     0     0    
2019/08/23  22:42:01  BASE  0        56   1.0584   41   -5.6  100   -5.6  0     0     1009.1   NA       0.0000   9999     0     0     0    
2019/08/23  22:43:01  BASE  0        56   1.0584   41   -5.5  100   -5.5  0     0     1009.1   NA       0.0000   9999     0     0     0    
2019/08/23  22:44:00  BASE  0        55   1.0584   41   -5.4  100   -5.4  0     0     1009.1   NA       0.0000   9999     0     0     0    
2019/08/23  22:45:00  BASE  0        58   1.0584   41   -5.3  100   -5.4  0     0     1009.1   NA       0.0000   9999     0     0     0    
2019/08/23  22:46:01  BASE  0        71   0.9996   44   -5.3  99    -5.4  0     0     1009.1   NA       0.0000   9999     0     0     0    
2019/08/23  22:47:00  BASE  0        86   0.93492  45   -5.2  99    -5.4  0     0     1009.1   NA       0.0000   9999     0     0     0    
2019/08/23  22:48:01  BASE  0        98   0.81732  49   -5.2  98    -5.4  0     0     1009.1   NA       0.0000   9999     0     0     0    
2019/08/23  22:49:00  BASE  0        103  0.72324  49   -5.2  98    -5.4  0     0     1009.1   NA       0.0000   9999     0     0     0    
2019/08/23  22:50:00  BASE  0        104  0        M    -5.1  98    -5.4  0     0     1009.1   NA       0.0000   9999     0     0     0    
2019/08/23  22:51:01  BASE  0        96   0        M    -5.1  97    -5.5  0     0     1009.1   NA       0.0000   9999     0     0     0    
2019/08/23  22:52:01  BASE  0        88   0        M    -5.1  97    -5.5  0     0     1009.1   NA       0.0000   9999     0     0     0    
2019/08/23  22:53:00  BASE  0        83   0        M    -5.0  97    -5.5  0     0     1009.1   NA       0.0000   9999     0     0     0    
2019/08/23  22:54:01  BASE  0        61   0        M    -5.0  97    -5.4  0     0     1009.1   NA       0.0000   9999     0     0     0    
2019/08/23  22:55:00  BASE  0        28   0        M    -4.9  97    -5.4  0     0     1009.1   NA       0.0000   9999     0     0     0    
2019/08/23  22:56:00  BASE  0        17   0        M    -4.9  97    -5.3  0     0     1009.1   NA       0.0000   9999     0     0     0    
2019/08/23  22:57:00  BASE  0.33516  12   0.81732  7    -4.8  96    -5.3  0     0     1009.1   NA       0.0000   9999     0     0     0    
2019/08/23  22:58:01  BASE  0.74088  9    0.84672  9    -4.9  96    -5.4  0     0     1009.1   NA       0.0000   9999     0     0     0    
2019/08/23  22:59:01  BASE  0.7938   9    0.84672  9    -4.9  95    -5.5  0     0     1009.1   NA       0.0000   9999     0     0     0    
2019/08/23  23:00:00  BASE  0.67032  9    0.84672  9    -4.9  95    -5.6  0     0     1009.1   NA       0.0000   9999     0     0     0    
2019/08/23  23:01:00  BASE  0.27636  9    0.84672  9    -5.0  95    -5.6  0     0     1009.1   NA       0.0000   9999     0     0     0    
2019/08/23  23:02:00  BASE  0        9    0.84672  9    -5.0  95    -5.6  0     0     1009.1   NA       0.0000   9999     0     0     0    
2019/08/23  23:03:00  BASE  0        9    0.84672  9    -5.1  96    -5.7  0     0     1009.1   NA       0.0000   9999     0     0     0    
2019/08/23  23:04:00  BASE  0        9    0.84672  9    -5.1  96    -5.7  0     0     1009.1   NA       0.0000   9999     0     0     0    
2019/08/23  23:05:00  BASE  0        9    0.84672  9    -5.1  96    -5.6  0     0     1009.1   NA       0.0000   9999     0     0     0    
2019/08/23  23:06:00  BASE  0        9    0.84672  9    -5.1  96    -5.6  0     0     1009.1   NA       0.0000   9999     0     0     0    
2019/08/23  23:07:00  BASE  0        9    0.84672  9    -5.1  97    -5.6  0     0     1009.1   NA       0.0000   9999     0     0     0    
2019/08/23  23:08:00  BASE  0        9    0.84672  9    -5.1  97    -5.5  0     0     1009.1   NA       0.0000   9999     0     0     0    
2019/08/23  23:09:00  BASE  0        10   0.72324  9    -5.1  97    -5.5  0     0     1009.1   NA       0.0000   9999     0     0     0    
2019/08/23  23:10:00  BASE  0        10   0        M    -5.1  97    -5.5  0     0     1009.1   NA       0.0000   9999     0     0     0    
2019/08/23  23:11:00  BASE  0        10   0        M    -5.1  97    -5.5  0     0     1009.1   NA       0.0000   9999     0     0     0    
2019/08/23  23:12:00  BASE  0        10   0        M    -5.1  97    -5.5  0     0     1009.1   NA       0.0000   9999     0     0     0    
2019/08/23  23:13:01  BASE  0        17   0        M    -5.1  97    -5.5  0     0     1009.1   NA       0.0000   9999     0     0     0    
2019/08/23  23:14:01  BASE  0        40   0        M    -5.1  97    -5.5  0     0     1009.1   NA       0.0000   9999     0     0     0    
2019/08/23  23:15:00  BASE  0        62   0        M    -5.1  97    -5.6  0     0     1009.1   NA       0.0000   9999     0     0     0    
2019/08/23  23:16:00  BASE  0        70   0        M    -5.1  97    -5.6  0     0     1009.1   NA       0.0000   9999     0     0     0    
2019/08/23  23:17:00  BASE  0        78   0        M    -5.1  97    -5.6  0     0     1009.1   NA       0.0000   9999     0     0     0    
2019/08/23  23:18:01  BASE  0        85   0        M    -5.1  97    -5.5  0     0     1009.1   NA       0.0000   9999     0     0     0    
2019/08/23  23:19:00  BASE  0        85   0        M    -5.0  97    -5.4  0     0     1009.1   NA       0.0000   9999     0     0     0    
2019/08/23  23:20:00  BASE  0        85   0        M    -4.9  97    -5.3  0     0     1009.0   NA       0.0000   9999     0     0     0    
2019/08/23  23:21:00  BASE  0        85   0        M    -4.8  97    -5.3  0     0     1009.0   NA       0.0000   9999     0     0     0    
2019/08/23  23:22:01  BASE  0        85   0        M    -4.8  97    -5.2  0     0     1009.0   NA       0.0000   9999     0     0     0    
2019/08/23  23:23:00  BASE  0        84   0        M    -4.7  96    -5.3  0     0     1009.0   NA       0.0000   9999     0     0     0    
2019/08/23  23:24:00  BASE  0        84   0        M    -4.7  96    -5.3  0     0     1009.0   NA       0.0000   9999     0     0     0    
2019/08/23  23:25:00  BASE  0        84   0        M    -4.7  95    -5.4  0     0     1009.0   NA       0.0000   9999     0     0     0    
2019/08/23  23:26:00  BASE  0        84   0        M    -4.7  95    -5.4  0     0     1009.0   NA       0.0000   9999     0     0     0    
2019/08/23  23:27:00  BASE  0        84   0        M    -4.7  94    -5.5  0     0     1009.0   NA       0.0000   9999     0     0     0    
2019/08/23  23:28:00  BASE  0        84   0        M    -4.7  94    -5.5  0     0     1009.0   NA       0.0000   9999     0     0     0    
2019/08/23  23:29:00  BASE  0        71   0        M    -4.7  94    -5.6  0     0     1009.0   NA       0.0000   9999     0     0     0    
2019/08/23  23:30:00  BASE  0        43   0        M    -4.7  94    -5.6  0     0     1009.0   NA       0.0000   9999     0     0     0    
2019/08/23  23:31:00  BASE  0        29   0        M    -4.7  93    -5.6  0     0     1009.0   NA       0.0000   9999     0     0     0    
2019/08/23  23:32:00  BASE  0        29   0        M    -4.8  93    -5.7  0     0     1009.0   NA       0.0000   9999     0     0     0    
2019/08/23  23:33:00  BASE  0        30   0        M    -4.8  93    -5.7  0     0     1008.9   NA       0.0000   9999     0     0     0    
2019/08/23  23:34:01  BASE  0        36   0        M    -4.8  93    -5.7  0     0     1008.9   NA       0.0000   9999     0     0     0    
2019/08/23  23:35:00  BASE  0.07644  46   0.63504  50   -4.9  94    -5.8  0     0     1008.9   NA       0.0000   9999     0     0     0    
2019/08/23  23:36:00  BASE  0.12936  59   0.66444  60   -4.9  94    -5.8  0     0     1008.9   NA       0.0000   9999     0     0     0    
2019/08/23  23:37:00  BASE  0.05292  67   0.66444  60   -5.0  94    -5.7  0     0     1008.9   NA       0.0000   9999     0     0     0    
2019/08/23  23:38:00  BASE  0        65   0.66444  60   -5.0  95    -5.7  0     0     1008.9   NA       0.0000   9999     0     0     0    
2019/08/23  23:39:00  BASE  0        61   0.66444  60   -4.9  95    -5.6  0     0     1008.9   NA       0.0000   9999     0     0     0    
2019/08/23  23:40:00  BASE  0        62   0.66444  60   -4.9  95    -5.6  0     0     1008.9   NA       0.0000   9999     0     0     0    
2019/08/23  23:41:00  BASE  0        78   0.66444  60   -4.8  95    -5.5  0     0     1008.9   NA       0.0000   9999     0     0     0    
2019/08/23  23:42:00  BASE  0        103  0.66444  60   -4.8  95    -5.5  0     0     1008.9   NA       0.0000   9999     0     0     0    
2019/08/23  23:43:00  BASE  0        120  0.66444  60   -4.8  95    -5.4  0     0     1008.9   NA       0.0000   9999     0     0     0    
2019/08/23  23:44:00  BASE  0        125  0.66444  60   -4.8  95    -5.4  0     0     1008.9   NA       0.0000   9999     0     0     0    
2019/08/23  23:45:00  BASE  0        121  0.66444  60   -4.8  95    -5.5  0     0     1008.9   NA       0.0000   9999     0     0     0    
2019/08/23  23:46:00  BASE  0        120  0        M    -4.9  95    -5.6  0     0     1008.9   NA       0.0000   9999     0     0     0    
2019/08/23  23:47:00  BASE  0        125  0        M    -4.9  95    -5.7  0     0     1008.9   NA       0.0000   9999     0     0     0    
2019/08/23  23:48:00  BASE  0        128  0        M    -5.0  94    -5.8  0     0     1008.8   NA       0.0000   9999     0     0     0    
2019/08/23  23:49:00  BASE  0        128  0        M    -5.1  94    -5.8  0     0     1008.8   NA       0.0000   9999     0     0     0    
2019/08/23  23:50:00  BASE  0        128  0        M    -5.0  94    -5.8  0     0     1008.8   NA       0.0000   9999     0     0     0    
2019/08/23  23:51:00  BASE  0        128  0        M    -4.9  94    -5.7  0     0     1008.8   NA       0.0000   9999     0     0     0    
2019/08/23  23:52:01  BASE  0        118  0        M    -4.8  94    -5.7  0     0     1008.9   NA       0.0000   9999     0     0     0    
2019/08/23  23:53:00  BASE  0        61   0        M    -4.8  93    -5.7  0     0     1008.8   NA       0.0000   9999     0     0     0    
2019/08/23  23:54:01  BASE  0        25   0        M    -4.8  93    -5.8  0     0     1008.8   NA       0.0000   9999     0     0     0    
2019/08/23  23:55:01  BASE  0        26   0        M    -4.9  93    -5.9  0     0     1008.8   NA       0.0000   9999     0     0     0    
2019/08/23  23:56:01  BASE  0        27   0        M    -5.0  92    -6.1  0     0     1008.8   NA       0.0000   9999     0     0     0    
2019/08/23  23:57:01  BASE  0        41   0        M    -5.1  92    -6.1  0     0     1008.8   NA       0.0000   9999     0     0     0    
2019/08/23  23:58:01  BASE  0        105  0        M    -5.1  93    -6.1  0     0     1008.8   NA       0.0000   9999     0     0     0    
2019/08/23  23:59:01  BASE  0        124  0        M    -5.1  93    -6.1  0     0     1008.8   NA       0.0000   9999     0     0     0